ECMWFNIL_925_spd_000.txt.gz
Wind_Speed
34 34 31 29 28 27 26 26 25 24 22 22 21 20 18 16 15 15 14 13 12 10 9 8 7 7 7 7 7 7 8 8 8 8 8 8 8 9 9 10 11 12
35 34 31 29 28 27 25 25 24 23 22 22 21 20 18 17 16 15 15 14 14 13 12 10 9 8 8 8 9 9 9 9 9 9 9 10 10 11 12 12 13 14
35 33 31 29 28 25 24 23 22 22 21 21 20 19 18 18 17 16 15 15 15 13 13 12 11 10 10 10 10 11 11 11 10 10 10 11 12 13 13 14 14 15
33 32 31 29 27 24 22 22 22 22 20 19 20 19 18 17 16 16 15 15 14 14 13 13 12 12 11 11 12 12 12 12 12 11 12 12 12 13 14 14 14 15
34 34 32 30 28 25 23 23 23 22 20 18 19 18 17 16 16 16 16 15 15 14 14 13 13 13 12 12 13 13 13 13 12 12 13 13 13 14 14 15 15 16
36 36 35 33 31 28 26 25 24 21 19 18 19 18 17 16 17 16 16 15 15 15 15 15 15 14 13 13 14 14 13 13 13 13 14 15 15 15 15 16 17 18
38 37 36 34 32 29 27 25 23 20 18 18 19 18 17 17 17 17 16 16 16 16 16 16 15 15 14 14 14 14 13 13 13 13 15 16 16 16 17 17 18 19
39 39 37 36 33 30 28 27 24 21 19 19 19 19 18 18 18 18 17 17 17 17 17 16 16 15 14 14 14 14 14 13 13 14 15 16 17 18 18 18 18 18
41 40 39 37 35 34 32 28 25 23 21 21 21 20 20 19 19 19 18 18 18 18 17 17 16 15 14 14 14 14 14 13 13 14 15 17 18 18 18 17 17 17
41 41 41 40 39 37 33 28 26 25 23 23 23 22 22 22 20 19 19 19 19 18 17 17 16 16 15 14 15 14 14 14 14 15 16 18 18 18 17 17 17 17
39 40 40 40 38 36 33 29 28 27 25 24 24 24 25 24 22 20 20 20 19 17 16 16 16 16 16 15 15 14 14 15 15 16 17 17 18 17 16 16 16 17
38 37 36 36 36 34 31 29 28 28 26 25 25 25 26 25 23 21 21 20 18 16 16 18 18 18 18 17 16 16 16 16 16 17 17 17 18 18 17 17 18 18
34 34 35 37 36 32 29 29 29 29 26 24 24 25 26 26 24 22 21 19 18 17 18 19 20 20 19 18 17 17 17 17 18 18 18 18 19 19 19 19 19 19
41 41 40 38 32 28 27 28 28 27 23 21 24 27 26 25 24 22 20 19 17 17 18 19 20 20 19 19 19 18 18 19 19 19 19 20 20 21 21 20 20 20
39 35 29 24 19 18 18 17 18 21 21 22 25 28 26 24 22 20 18 17 17 17 18 19 20 20 20 19 19 19 19 20 20 19 20 21 22 22 21 21 21 21
26 21 17 16 17 15 11 7 9 14 18 21 24 27 26 22 21 19 17 16 17 18 19 20 21 22 21 20 19 19 20 21 21 22 22 22 23 23 23 23 21 21
17 14 13 15 19 21 19 15 14 17 17 16 18 22 22 20 20 18 16 17 19 19 20 21 23 23 21 20 20 21 22 22 23 25 25 25 26 25 25 24 22 21
17 16 14 13 17 24 27 26 25 22 18 16 16 17 16 17 18 18 17 20 22 22 22 23 24 23 22 22 23 23 23 24 25 27 29 30 29 27 25 23 22 22
22 20 19 16 17 24 28 28 26 20 17 19 19 16 16 18 19 19 21 25 25 24 24 25 24 23 22 23 24 24 24 25 26 29 31 32 31 28 24 22 21 22
24 23 21 18 22 28 28 24 20 16 16 18 19 17 16 19 22 22 25 27 27 26 26 26 25 23 23 24 26 27 26 26 28 30 31 31 30 26 22 20 21 21
26 25 24 24 26 27 23 19 16 15 16 17 18 18 16 19 23 25 25 26 27 27 26 27 26 24 24 26 27 29 29 29 30 31 30 29 26 23 21 20 21 20
30 29 28 26 21 16 14 15 14 15 18 19 19 19 19 22 25 25 24 25 26 27 26 27 27 26 25 25 26 29 30 30 30 29 27 24 21 20 20 20 19 17
29 27 24 18 10 7 9 12 15 18 20 22 21 22 23 23 21 20 21 22 23 23 23 24 23 21 19 20 23 26 27 27 27 26 24 20 18 18 20 19 16 14
28 26 21 13 11 14 16 19 25 26 23 22 24 25 23 17 14 15 17 18 20 20 18 15 13 11 11 15 18 20 23 26 25 22 19 16 16 18 19 17 14 12
30 27 21 16 15 15 16 21 24 22 17 16 18 18 14 11 11 12 13 15 16 15 10 7 8 9 10 13 16 19 24 25 22 18 16 15 16 18 18 16 13 11
30 28 24 20 16 11 13 17 16 11 6 5 6 7 7 8 8 7 9 9 8 8 7 6 11 14 16 18 22 25 25 21 17 15 15 15 16 17 16 14 13 11

ECMWFNIL_925_spd_003.txt.gz
Wind_Speed
34 32 30 27 27 25 24 24 23 24 25 26 26 25 23 21 18 18 18 18 17 16 14 11 10 10 10 9 8 8 8 8 8 8 8 9 9 9 9 9 9 9
34 33 30 28 29 27 26 26 26 26 27 27 28 26 24 21 19 19 19 19 19 17 15 13 12 11 10 9 8 8 8 9 9 9 9 9 10 10 11 11 10 10
35 33 31 30 30 29 29 29 27 27 27 28 28 26 23 21 20 20 20 20 19 18 17 14 13 13 11 10 9 9 9 10 10 9 9 9 9 10 11 11 10 10
35 33 32 31 31 31 31 30 29 28 28 28 28 26 24 22 21 21 21 20 20 19 18 16 15 15 14 12 11 10 10 11 11 11 11 11 11 11 11 11 11 10
35 34 32 32 32 32 32 31 30 29 29 28 27 26 24 23 23 22 22 21 21 20 19 17 16 16 15 13 12 11 11 11 11 12 13 12 12 12 11 11 12 12
35 34 34 34 33 33 33 32 30 29 29 27 26 25 24 24 23 23 23 22 21 21 20 19 17 16 15 14 13 12 11 11 11 12 13 12 12 11 11 12 13 14
36 35 35 35 34 34 32 30 29 28 26 25 24 24 24 24 23 22 22 21 21 21 20 19 18 16 15 14 14 13 12 12 12 12 12 13 13 12 12 12 14 15
35 35 34 32 31 30 28 28 27 25 22 22 23 22 22 22 21 21 21 21 21 21 20 20 18 16 15 14 14 13 12 12 12 12 13 14 14 13 13 12 14 15
29 28 26 26 27 26 26 28 27 24 22 21 21 20 20 19 19 19 20 20 21 21 20 19 17 15 15 14 14 13 12 12 12 13 14 14 14 13 13 13 14 14
25 24 24 25 27 28 30 32 29 25 23 21 21 20 18 16 16 18 20 20 21 21 20 19 18 16 16 15 14 14 13 13 13 14 15 15 15 14 14 14 13 13
29 31 31 29 30 33 35 34 31 28 26 22 21 19 14 13 17 19 20 21 22 22 21 20 19 17 17 16 15 13 13 14 14 15 15 15 16 16 15 14 14 14
37 38 34 31 33 35 35 35 32 29 26 22 20 17 13 14 18 21 21 22 24 24 23 21 19 17 17 17 15 13 13 14 15 15 16 16 17 16 16 16 16 16
39 37 36 37 37 34 31 31 31 29 26 22 19 15 13 15 19 22 23 24 25 26 25 23 19 18 18 18 17 15 14 15 17 17 17 18 17 17 17 17 18 19
33 35 39 39 35 33 30 29 29 28 25 20 16 16 17 19 22 25 26 26 27 28 26 24 21 20 20 20 19 17 16 17 18 18 19 19 19 18 17 18 19 21
27 31 36 35 33 33 31 29 27 23 19 17 19 24 27 27 26 26 26 28 29 29 27 25 23 22 21 20 19 18 17 18 19 19 20 20 20 19 19 19 20 21
27 30 33 33 35 35 35 35 31 24 25 30 30 31 34 31 27 25 26 29 30 29 28 27 25 23 21 19 19 18 18 18 19 19 20 21 22 22 21 22 22 22
25 28 31 33 35 35 34 34 30 24 31 40 36 32 31 29 27 28 29 31 30 29 28 26 24 23 20 19 20 19 19 19 20 21 22 23 24 24 24 25 24 25
24 27 29 29 28 26 25 26 25 26 33 36 33 30 28 28 30 31 31 33 31 28 26 24 23 21 19 19 19 20 21 21 21 22 22 24 25 25 26 26 26 27
25 24 23 23 24 24 26 30 32 33 33 33 31 30 30 31 31 31 32 33 31 27 24 21 20 20 20 20 20 20 21 22 22 23 23 25 27 27 27 27 27 27
25 23 23 26 28 31 35 37 36 34 33 33 32 30 31 32 30 30 30 30 27 23 19 17 16 19 22 23 21 21 20 21 21 21 21 23 25 25 26 26 25 25
27 29 31 31 33 35 36 34 34 34 33 33 33 32 31 30 29 30 29 26 22 17 15 14 14 17 21 22 21 20 19 19 17 15 15 18 20 22 23 23 22 22
30 35 36 34 34 37 36 33 32 31 31 32 34 33 29 26 25 24 23 19 15 12 12 14 13 15 17 18 17 17 16 14 12 11 13 17 20 22 23 23 21 19
31 35 36 36 36 35 31 28 27 27 29 31 31 28 24 21 20 19 17 14 10 8 9 9 10 13 15 15 14 14 13 12 13 14 15 17 20 22 23 23 20 15
30 33 34 35 34 29 25 25 25 27 30 32 30 24 19 17 17 16 14 10 7 6 6 7 11 15 16 15 14 14 13 14 16 18 18 19 20 21 21 20 16 13
30 31 32 32 30 26 24 25 26 25 25 24 20 17 15 14 14 12 10 8 7 7 7 8 13 19 21 18 16 16 16 16 16 17 19 21 20 19 19 17 13 11
30 30 30 29 29 27 23 21 21 18 16 14 14 13 13 13 12 11 9 8 9 10 10 12 17 22 21 17 16 18 19 19 17 17 19 18 17 16 15 12 9 8

ECMWFNIL_925_spd_006.txt.gz
Wind_Speed
22 22 22 22 22 19 18 17 16 15 14 13 12 12 12 12 12 12 11 10 9 9 9 8 8 8 7 7 7 7 6 7 7 7 7 7 7 7 7 7 7 7
23 22 21 21 21 19 18 18 17 16 15 13 12 11 11 12 11 11 11 9 9 10 10 9 9 9 8 7 8 8 8 8 8 8 8 8 9 9 9 9 9 9
24 23 22 22 21 20 19 18 18 17 15 13 12 11 11 12 12 11 10 10 10 10 10 10 10 9 9 8 8 8 9 9 9 9 8 9 10 10 9 9 9 10
26 24 23 23 21 19 19 19 18 17 15 13 13 13 12 12 12 12 11 11 11 10 11 11 10 10 10 9 9 9 9 9 10 10 9 10 10 10 10 10 10 10
26 24 22 22 20 19 18 19 18 17 16 14 14 14 14 14 13 13 12 12 12 11 11 11 11 10 10 10 10 10 9 10 10 10 10 10 10 10 10 10 10 10
25 24 22 21 21 21 20 19 19 19 17 16 16 15 15 16 15 14 13 13 12 11 11 11 11 11 11 11 11 10 10 10 10 10 10 10 10 10 11 10 11 11
24 23 23 23 23 23 22 21 22 21 18 17 17 17 15 15 15 15 14 13 12 11 11 11 11 11 11 11 11 11 10 10 10 11 11 11 10 10 11 11 11 12
25 26 26 26 24 23 23 23 24 23 20 18 17 17 16 15 15 16 16 15 13 12 12 12 11 12 12 11 12 12 11 11 11 12 12 12 11 11 11 12 12 13
27 27 27 26 25 25 25 24 24 23 22 20 18 17 18 17 16 17 18 17 15 14 14 14 13 12 13 13 13 13 12 12 12 12 13 13 12 12 12 12 13 14
27 27 28 28 28 28 26 23 21 20 21 20 18 16 18 18 17 18 19 18 16 15 17 18 17 15 15 15 15 14 14 14 13 14 14 14 13 13 12 13 14 14
28 28 29 30 30 27 24 20 17 17 19 20 18 17 18 18 18 18 19 19 18 17 19 21 20 19 18 17 16 16 15 15 14 15 15 15 14 14 13 14 14 15
30 29 31 33 29 21 20 21 18 16 17 18 18 18 17 17 19 20 21 23 23 22 22 22 21 20 20 19 17 16 16 15 15 15 15 15 15 14 14 14 15 16
30 31 30 25 18 17 20 23 19 15 16 18 19 20 22 26 28 26 25 26 27 25 24 22 22 21 21 20 18 17 16 16 16 16 15 16 16 15 14 14 15 17
26 24 17 15 21 24 24 22 18 17 19 22 25 28 34 39 35 29 28 29 30 29 26 22 22 22 21 21 20 18 17 16 16 16 16 16 16 15 15 14 16 17
18 14 14 24 30 30 25 22 24 24 25 29 34 39 42 40 35 32 33 34 33 32 28 24 24 24 23 24 23 21 19 18 17 17 17 17 16 16 16 15 15 16
16 17 22 30 32 30 28 30 33 36 39 42 43 42 40 37 35 35 35 33 31 30 29 27 26 26 26 26 25 23 21 19 17 17 17 17 17 17 16 16 16 16
20 23 27 32 34 35 38 40 42 43 45 46 43 41 41 40 38 38 36 32 28 27 28 27 27 27 27 27 26 25 24 21 19 19 18 18 18 18 18 19 18 17
23 26 30 35 37 38 41 45 48 46 42 42 44 44 44 42 40 38 33 28 25 24 26 27 26 27 27 27 26 26 24 22 21 21 18 18 20 20 19 19 18 16
25 27 31 36 39 40 42 44 47 46 43 42 44 45 44 41 36 30 25 23 23 24 24 23 24 26 27 26 25 25 23 21 22 21 19 19 22 21 18 17 17 15
26 26 27 32 35 37 38 39 41 43 44 42 40 41 41 35 27 23 21 20 21 23 22 21 21 24 27 26 24 24 22 20 20 21 21 22 23 23 20 17 15 12
25 25 25 27 30 29 30 31 33 35 36 34 30 29 30 26 21 20 20 20 22 23 21 18 18 22 25 24 23 23 22 20 18 19 21 22 23 23 19 15 13 11
24 25 24 24 25 25 24 26 27 27 27 25 23 21 21 20 18 18 19 21 23 23 20 18 20 21 21 21 23 24 23 19 16 17 19 20 18 17 16 15 15 13
23 24 23 22 23 23 23 23 23 23 24 24 23 22 21 20 18 18 19 21 22 23 23 23 24 23 21 22 25 25 20 16 15 15 16 16 15 16 18 19 18 14
23 23 22 22 23 23 22 21 21 23 24 24 23 22 21 21 20 19 18 19 21 24 26 24 22 21 24 26 27 23 18 16 15 14 13 15 16 16 16 17 16 14
23 23 23 23 23 22 20 19 19 21 22 22 22 21 20 20 21 19 18 19 19 21 25 24 21 21 25 28 26 23 20 17 14 13 13 15 14 12 10 10 11 11
22 23 23 23 22 21 19 18 18 18 18 19 19 19 18 19 20 19 18 19 18 19 22 23 21 20 24 26 24 24 22 18 15 13 13 12 9 8 8 8 7 6

ECMWFNIL_925_spd_009.txt.gz
Wind_Speed
22 21 19 18 17 16 15 15 14 13 12 11 11 10 10 10 10 11 11 10 10 9 9 9 9 8 7 7 6 6 5 5 5 5 5 5 5 5 5 5 5 5
23 22 20 18 17 17 16 15 14 14 13 12 12 11 11 12 12 12 12 12 11 11 11 10 10 10 9 8 8 7 6 6 6 6 6 7 7 7 7 7 7 7
24 23 22 20 19 18 18 17 15 15 14 14 13 12 12 13 14 13 13 13 12 12 12 12 11 11 10 10 9 9 8 7 7 7 8 8 8 8 8 8 8 8
25 24 23 21 20 20 19 18 17 16 16 15 14 13 13 13 14 14 14 14 13 13 13 13 13 12 12 11 11 10 9 9 8 8 8 9 9 9 9 9 9 9
26 25 24 23 22 21 21 20 19 18 17 15 14 13 13 14 14 14 14 14 14 14 14 15 14 14 14 13 12 11 10 9 9 9 9 9 10 10 10 10 10 10
27 26 26 25 24 23 22 21 19 18 17 15 14 13 14 15 15 14 15 15 15 16 16 16 17 16 16 15 15 13 11 10 10 10 10 11 11 11 11 11 11 11
27 28 28 26 25 24 22 20 19 18 17 17 16 15 15 16 15 15 16 17 17 18 18 19 19 19 19 18 18 16 14 13 11 11 11 12 12 12 12 12 12 12
28 29 28 26 25 23 21 20 19 19 19 18 18 17 17 17 17 17 18 20 21 20 20 20 20 20 20 20 20 19 18 15 14 13 13 13 13 13 13 13 13 13
29 28 27 27 25 23 22 21 20 20 21 22 21 20 20 20 21 22 24 25 24 22 22 21 20 20 19 19 19 20 20 17 15 14 13 13 13 13 13 13 13 14
29 28 28 27 25 23 23 23 22 21 23 25 25 23 23 25 26 28 29 29 27 25 24 23 22 21 20 19 19 19 19 18 15 14 13 13 13 13 13 14 14 14
30 29 28 28 26 24 25 25 25 26 27 28 27 26 29 31 33 34 34 32 30 27 26 25 23 22 21 20 19 19 18 17 15 15 14 14 14 14 14 14 13 13
30 29 28 28 28 28 29 29 30 31 31 29 28 30 35 38 39 38 35 32 31 29 28 28 27 24 21 19 19 18 17 16 15 15 14 14 14 14 14 14 13 13
30 29 30 32 32 32 33 33 33 33 33 32 32 35 40 42 40 37 34 33 33 32 31 31 27 23 20 19 19 19 18 17 16 15 15 15 15 14 14 13 13 15
29 30 34 38 38 37 36 34 33 35 35 35 37 40 44 44 41 39 36 35 35 34 32 29 25 22 21 21 21 20 19 18 17 16 16 16 16 15 14 14 14 14
29 30 34 39 38 37 38 36 37 39 40 40 42 45 46 44 41 40 38 36 34 33 30 26 24 22 22 22 22 21 20 19 17 17 16 16 17 17 16 16 15 14
29 29 31 33 34 39 42 42 42 45 45 44 46 46 45 42 39 36 35 34 34 31 27 25 24 23 23 24 24 22 20 19 18 17 17 16 17 18 17 16 15 15
26 28 28 30 34 40 44 44 45 46 46 45 44 42 40 38 36 33 30 29 29 27 24 24 23 23 24 26 26 24 22 19 18 18 17 17 18 19 18 16 15 15
26 29 29 32 38 41 42 43 44 44 43 39 35 31 30 30 30 30 27 25 24 24 24 23 22 22 25 26 27 28 26 21 18 17 16 16 18 19 18 17 16 15
29 31 29 31 36 38 39 40 40 39 37 30 23 21 23 23 22 24 24 23 22 22 23 23 21 22 25 26 26 28 29 26 19 15 15 16 17 17 17 17 16 14
30 31 28 28 30 31 32 32 31 30 28 23 18 17 19 20 20 20 22 22 21 21 21 21 20 21 24 25 24 26 29 28 23 19 19 19 18 17 16 17 17 15
28 28 26 25 25 26 26 26 24 23 22 20 19 18 17 18 19 20 20 20 20 19 18 18 19 20 21 22 23 25 27 27 25 24 24 22 21 21 20 20 19 16
26 26 23 22 24 25 24 23 22 21 20 19 19 18 17 16 17 18 19 19 19 18 18 18 18 19 21 21 21 23 24 23 23 26 26 23 21 22 23 22 18 14
25 25 22 21 24 25 24 22 21 20 19 19 19 19 19 18 18 18 18 18 19 20 21 21 18 19 22 23 21 21 21 22 24 25 22 19 17 17 18 17 14 12
25 25 22 21 23 25 23 21 19 19 19 19 19 19 19 19 19 18 18 19 20 20 21 20 18 19 23 24 23 22 22 23 24 22 18 16 15 15 16 17 15 13
25 25 24 22 23 23 22 20 19 18 17 17 16 16 16 16 16 15 15 16 17 17 18 18 18 20 23 26 25 23 23 24 22 18 15 14 15 17 17 16 12 11
26 26 25 24 23 22 20 19 18 17 15 14 14 14 13 13 13 14 13 13 13 14 16 18 19 20 23 26 26 24 26 25 18 14 13 14 16 17 14 10 9 10

ECMWFNIL_925_spd_012.txt.gz
Wind_Speed
26 25 25 23 22 21 21 21 21 20 20 19 19 17 17 16 15 16 17 17 15 12 12 12 12 13 12 12 13 11 10 11 12 11 10 10 9 8 6 5 5 4
28 26 25 25 24 22 22 22 21 21 20 20 18 18 18 17 16 17 18 18 16 15 15 15 15 15 14 13 14 14 13 13 13 12 13 12 10 9 7 6 6 7
29 28 27 25 25 24 22 22 21 21 21 20 19 19 20 19 19 19 20 19 18 18 18 17 16 16 16 15 15 15 14 14 14 13 13 13 12 11 10 9 9 8
31 29 28 26 25 25 24 23 22 22 22 21 20 20 21 21 22 22 23 22 21 20 20 19 18 18 18 17 16 16 15 15 14 14 14 14 14 13 12 10 9 8
32 30 29 27 25 26 26 24 24 23 23 23 23 22 23 24 25 25 26 25 24 23 22 21 20 19 19 19 18 18 17 16 16 15 14 14 13 12 13 11 10 10
32 31 30 29 27 27 28 26 25 25 25 25 25 25 25 26 27 27 28 28 27 25 23 22 22 21 21 21 21 19 19 18 17 17 16 15 13 12 12 11 11 12
32 32 31 30 29 29 29 27 27 28 28 27 27 28 28 28 29 29 30 29 27 25 24 24 24 24 23 24 23 22 21 20 18 18 18 17 15 14 12 11 11 10
32 32 32 32 31 29 28 28 29 30 30 29 30 31 31 31 32 31 30 29 28 26 26 26 27 26 25 24 25 24 23 22 19 18 18 18 17 16 15 13 12 11
32 32 33 33 32 30 28 29 31 32 32 32 32 32 32 33 33 32 31 30 29 28 28 28 28 28 27 25 25 25 25 23 21 19 18 17 17 17 16 14 13 13
33 32 33 33 31 30 31 31 31 32 34 35 34 33 34 34 34 32 32 32 31 30 30 30 29 29 28 26 25 25 25 24 22 20 19 19 19 18 17 16 15 14
34 33 33 33 32 32 34 34 32 32 34 36 36 35 35 35 34 33 32 33 33 31 31 31 31 30 29 27 26 25 25 25 23 21 21 20 20 19 18 17 17 15
36 35 34 33 34 34 35 36 34 33 34 37 38 37 35 34 34 34 33 34 34 33 33 33 32 32 31 29 27 26 26 25 23 22 22 21 20 19 18 18 17 16
36 37 36 35 37 37 36 37 37 35 35 37 38 37 36 34 34 34 34 34 34 34 34 34 33 32 32 31 29 27 27 25 23 22 22 22 21 20 19 18 17 17
36 37 38 38 39 38 38 38 38 38 37 37 37 37 37 35 34 34 35 34 34 35 35 34 34 33 32 33 31 28 27 25 23 23 22 22 21 20 19 18 17 17
36 36 37 39 39 39 39 40 40 40 39 37 36 36 36 34 32 32 35 35 33 34 35 34 34 33 33 34 33 30 27 24 23 23 23 22 21 20 19 18 18 18
36 35 35 37 39 40 41 41 41 40 39 37 36 36 33 32 30 30 35 37 34 33 34 33 33 33 34 35 34 31 28 24 23 24 23 22 21 20 20 19 19 18
36 35 35 36 39 40 40 41 39 37 36 35 34 33 31 30 29 28 32 35 33 32 32 32 31 31 33 35 34 32 28 25 23 23 23 23 21 20 19 20 20 19
37 36 35 36 37 38 38 37 35 32 30 30 29 28 28 28 28 27 27 28 28 28 28 29 29 30 32 34 33 32 29 25 23 22 23 22 21 20 19 20 20 20
36 36 34 34 35 36 34 32 31 28 27 27 26 25 24 24 24 24 24 24 24 24 25 25 26 27 30 31 31 31 29 26 23 21 21 21 20 20 20 20 20 19
34 35 33 33 33 31 29 28 29 27 25 24 23 20 20 20 19 20 22 22 22 22 23 22 22 23 26 28 29 29 28 28 25 21 19 19 19 20 20 19 19 19
34 34 32 31 30 27 26 29 29 26 22 21 18 16 16 16 16 17 19 21 20 20 21 20 19 20 24 26 27 27 27 29 29 24 19 17 18 18 17 17 17 17
38 35 30 28 27 25 25 28 27 22 20 19 17 15 14 15 16 15 16 18 19 18 19 19 18 19 22 25 26 26 26 29 30 27 21 19 19 19 17 16 16 16
37 35 30 27 26 24 23 24 22 20 19 20 20 17 15 15 16 15 16 17 17 17 17 16 16 17 20 23 25 25 27 29 30 27 24 23 22 20 18 17 16 16
32 33 31 29 26 24 22 20 20 20 19 19 19 18 17 16 15 16 17 17 17 17 17 17 16 17 19 22 25 26 27 29 29 26 25 24 21 18 17 17 17 17
28 30 30 28 24 23 21 19 18 17 16 17 16 15 15 14 14 14 16 17 17 17 18 18 17 16 17 21 24 25 26 27 27 24 22 20 17 15 16 17 17 17
29 28 27 24 21 20 20 19 17 16 15 13 12 12 11 11 12 12 13 13 13 14 15 17 17 16 17 19 21 22 24 24 23 21 18 16 15 15 16 16 16 18

ECMWFNIL_925_spd_015.txt.gz
Wind_Speed
34 34 33 33 32 31 31 32 32 32 31 31 31 30 31 32 30 31 29 27 26 26 26 22 19 21 21 17 15 18 19 17 14 13 12 13 14 13 11 10 11 10
35 35 34 33 33 32 32 32 33 33 33 32 32 31 32 32 31 32 30 28 27 27 26 23 20 22 24 21 18 19 19 16 15 14 13 13 14 13 11 11 10 9
36 35 35 34 34 33 32 32 34 34 33 33 33 32 32 32 32 33 31 29 29 28 25 24 23 24 24 23 22 21 19 17 18 17 14 15 15 14 13 12 10 9
36 36 37 36 35 34 33 32 34 35 34 33 33 33 33 31 33 35 33 31 31 29 26 24 25 25 25 23 23 23 22 20 20 19 16 17 17 16 15 14 11 9
37 37 37 37 35 35 34 33 35 36 35 34 33 34 34 33 33 35 34 33 33 31 28 26 25 25 25 24 23 23 23 23 22 21 19 18 18 17 16 15 13 12
37 38 38 37 36 36 36 35 36 36 35 35 35 35 35 35 35 35 34 35 35 33 30 29 27 26 25 26 25 23 24 24 23 23 22 19 18 18 17 16 16 15
38 39 38 37 36 37 37 37 37 38 37 36 36 36 36 37 37 35 35 36 36 34 33 32 30 28 27 27 27 25 24 24 23 24 24 21 19 18 18 18 17 16
39 40 38 36 36 37 39 38 38 38 38 37 37 37 37 38 38 36 36 36 36 35 34 33 32 30 29 29 29 28 26 25 25 24 25 24 22 20 21 20 18 17
40 40 38 37 37 38 40 40 39 38 38 39 39 38 37 38 38 38 37 37 37 35 35 35 34 32 31 30 31 31 29 28 27 27 26 26 25 24 23 22 21 19
40 39 38 38 38 39 41 42 40 39 40 40 39 38 38 37 37 38 38 38 38 37 36 36 35 34 33 32 32 32 32 31 30 29 28 27 27 26 24 23 23 22
40 39 39 39 40 40 42 42 40 39 41 41 40 39 38 38 38 38 38 39 39 39 38 37 37 36 36 35 34 33 33 33 32 31 30 28 26 26 25 24 23 23
40 39 40 41 42 42 42 41 40 40 40 41 41 39 38 38 38 39 39 40 40 40 39 39 38 38 38 36 35 34 33 33 33 32 32 30 27 26 25 25 24 23
41 41 41 42 43 44 42 40 40 40 40 41 42 40 39 39 39 40 40 40 39 39 39 39 38 38 38 37 36 35 34 34 33 32 32 31 29 27 26 25 25 24
42 42 43 44 45 45 42 41 41 41 41 41 41 41 41 41 41 40 39 38 38 38 38 38 38 38 38 38 37 36 35 34 33 32 31 30 29 27 26 25 25 25
42 42 42 44 44 44 43 43 42 42 41 40 40 41 41 40 39 39 38 37 37 37 37 37 38 38 39 39 38 36 35 34 33 32 32 31 29 27 25 24 24 25
42 42 42 43 44 44 44 44 43 42 40 39 39 40 39 38 36 35 36 36 35 35 36 36 37 38 38 39 39 38 36 34 33 32 32 30 29 28 26 25 25 25
42 42 42 43 44 44 43 43 42 41 39 37 37 36 36 35 34 33 33 34 34 34 34 35 36 37 37 38 39 38 36 35 33 33 31 30 28 27 27 27 26 25
42 42 42 43 43 42 41 41 40 38 36 34 32 32 33 32 32 32 32 32 33 33 34 35 35 35 36 37 38 38 37 34 33 32 31 29 28 27 27 27 27 26
42 42 42 42 41 41 40 39 37 35 33 32 30 29 29 30 30 30 31 31 32 32 33 34 34 34 34 35 37 38 36 34 32 30 29 29 28 27 27 27 27 26
42 41 40 39 40 39 38 36 35 33 32 31 29 27 27 29 30 30 30 31 31 32 32 33 33 33 33 33 34 36 36 34 32 30 29 28 28 28 28 27 27 26
41 40 39 38 38 38 36 34 33 32 30 29 29 29 29 29 30 29 29 29 30 31 31 30 30 30 30 30 31 33 34 35 33 31 29 27 27 29 29 27 26 24
42 40 38 38 37 36 34 33 32 30 29 29 29 29 28 28 29 29 28 28 28 29 29 27 26 27 27 28 29 31 34 36 35 32 28 26 25 26 27 26 25 23
41 40 38 37 36 35 32 31 31 31 31 31 29 27 27 27 28 28 28 27 27 27 27 26 25 25 26 27 29 31 34 36 36 33 28 24 21 21 23 23 22 20
41 40 38 37 35 34 33 32 32 32 32 31 29 27 27 26 26 26 26 26 26 25 26 25 25 24 25 25 27 30 32 34 35 34 29 25 22 20 20 21 20 18
39 39 38 37 36 35 34 34 32 31 31 29 28 27 25 25 24 24 23 24 24 23 23 24 24 23 23 24 25 27 30 33 33 31 28 26 24 21 19 20 20 19
39 40 40 39 38 36 34 33 32 30 29 28 27 24 23 23 23 23 23 23 23 22 23 23 22 23 23 24 25 26 29 32 32 29 27 26 24 22 21 21 20 20

ECMWFNIL_925_spd_018.txt.gz
Wind_Speed
40 39 39 38 37 36 36 35 34 34 34 34 34 33 33 33 32 31 31 30 29 29 29 27 25 24 24 24 24 23 21 20 19 19 19 18 18 18 17 15 14 11
40 39 38 37 37 37 36 36 36 36 36 34 34 34 34 34 34 32 32 30 30 31 30 28 27 26 25 25 26 26 24 23 21 19 20 19 19 20 18 16 14 12
40 39 38 37 37 37 36 36 37 37 37 35 35 35 35 35 34 34 33 32 32 33 33 31 29 29 27 26 26 27 26 25 23 21 21 20 20 21 20 17 15 14
41 40 39 38 38 38 37 37 37 37 36 35 36 36 36 35 35 35 35 34 33 34 36 34 33 32 30 28 27 27 27 27 25 23 22 20 20 21 21 19 16 15
43 41 40 39 38 37 37 38 38 37 36 36 37 37 36 36 36 36 36 35 34 35 37 36 35 34 32 30 29 29 28 28 27 25 23 21 20 21 21 20 18 17
43 42 41 39 38 37 38 39 39 39 38 38 38 38 37 37 37 37 38 37 36 37 37 37 37 36 33 32 32 30 30 30 28 26 25 23 21 21 22 22 21 19
42 42 41 39 38 39 39 39 39 39 39 39 38 39 38 38 38 39 39 39 38 39 39 39 39 37 35 34 34 32 31 30 29 27 27 26 24 23 23 24 23 22
42 42 41 39 39 40 40 40 39 40 40 39 39 39 39 39 39 40 40 40 40 40 40 41 41 39 37 36 36 35 34 32 31 30 29 28 27 26 26 26 24 23
42 41 41 40 40 41 41 41 40 40 40 40 40 40 39 40 40 41 42 42 42 42 42 43 42 41 39 38 38 37 37 35 35 34 33 31 30 29 28 27 26 25
42 41 41 40 41 42 42 42 40 40 40 41 41 40 40 40 40 41 42 43 43 43 44 44 43 42 40 39 39 38 37 37 36 36 35 34 34 32 29 27 27 26
42 41 41 42 42 43 43 42 40 40 41 41 41 40 41 41 41 41 42 44 45 45 45 44 44 43 41 40 40 39 38 37 36 36 35 34 34 34 31 28 26 27
42 41 42 43 44 44 43 42 41 41 41 41 42 41 41 41 42 43 43 45 46 46 45 44 43 43 43 42 40 39 38 37 36 35 34 33 33 33 32 30 28 27
42 43 44 45 46 46 44 42 42 42 41 42 43 42 41 42 43 44 44 45 45 44 44 44 43 43 43 42 41 40 38 37 36 35 34 33 32 32 31 31 30 29
43 43 44 45 46 46 43 42 42 42 42 42 42 42 42 43 43 44 43 42 42 43 42 42 42 42 43 42 41 40 39 37 36 36 35 34 33 32 31 31 31 30
43 43 44 45 45 44 43 42 42 42 42 41 41 42 42 42 41 41 40 39 40 40 40 41 42 42 43 43 42 41 39 38 36 36 35 34 33 32 32 31 31 30
41 42 42 43 44 44 43 43 42 42 41 41 41 41 40 38 37 36 37 38 39 39 39 40 41 42 43 43 43 41 40 38 36 36 36 35 34 33 33 33 32 31
41 41 41 43 44 43 43 43 42 41 40 40 39 39 38 36 35 35 37 39 39 40 40 40 40 41 42 43 43 41 40 39 37 36 35 35 34 34 34 34 34 33
41 41 41 42 43 43 43 42 41 39 38 38 37 37 36 35 36 37 38 39 39 40 40 40 41 41 42 42 42 41 40 39 38 37 35 35 35 35 35 34 34 32
41 41 41 42 43 43 41 39 38 38 37 36 36 36 36 36 37 38 38 39 39 39 39 40 40 41 41 40 40 41 41 40 39 37 36 36 36 36 36 35 33 31
41 41 42 42 42 40 39 37 37 37 36 35 35 34 35 36 38 38 38 39 39 39 39 39 39 39 39 39 39 40 41 41 40 38 37 36 36 36 36 34 32 31
41 41 41 41 40 38 37 37 36 36 36 35 34 34 35 36 37 37 37 38 39 39 38 37 38 38 37 37 38 39 40 41 41 39 37 36 35 36 35 34 32 31
42 42 40 39 38 38 37 36 36 36 36 35 34 34 34 34 35 37 38 38 38 37 36 35 36 36 36 36 37 38 40 41 40 38 36 36 36 36 34 33 31 30
43 42 40 38 38 37 37 37 37 36 36 36 34 33 32 34 35 37 38 37 36 36 35 34 34 34 34 35 35 37 39 41 39 37 36 36 35 33 32 31 29 28
44 42 40 38 38 39 39 38 37 36 36 36 35 34 34 35 36 35 35 35 35 35 35 34 33 32 32 33 34 36 38 40 39 36 34 32 30 29 28 27 26 26
43 41 39 38 39 40 39 38 38 37 37 36 36 36 35 35 34 33 32 32 33 34 34 33 31 30 31 32 33 34 36 38 37 34 30 27 25 25 24 24 24 24
40 40 40 40 40 40 39 39 38 36 35 36 35 35 34 32 32 31 30 30 30 31 31 30 29 29 30 31 32 33 35 37 35 32 28 25 22 22 22 22 22 22

ECMWFNIL_925_spd_021.txt.gz
Wind_Speed
43 41 39 39 38 37 35 34 35 35 35 35 35 35 35 34 33 31 30 29 28 27 26 26 28 28 26 25 26 25 24 24 24 23 22 22 21 20 20 19 18 17
43 41 39 38 37 36 35 35 36 36 36 36 36 36 35 34 32 31 30 29 29 28 27 28 30 29 27 26 26 26 26 26 26 24 23 22 21 21 20 20 20 19
43 42 40 39 38 37 36 35 36 36 36 35 36 36 35 34 33 32 31 30 30 29 29 31 31 30 28 27 27 28 28 27 26 25 23 22 22 21 20 20 20 19
44 43 42 41 40 38 36 36 36 36 36 35 35 35 35 34 33 32 31 30 31 31 32 33 33 31 30 29 29 29 29 28 27 25 24 23 23 22 20 20 21 20
45 44 43 42 40 38 37 37 37 37 36 35 35 35 34 34 33 33 32 32 33 33 33 34 34 33 32 31 31 31 30 30 29 27 26 25 24 23 22 21 22 21
43 43 42 41 40 38 38 39 39 38 37 36 35 34 35 35 34 34 34 34 34 34 35 35 35 34 33 33 33 32 32 31 30 30 29 27 26 24 23 23 24 23
41 41 41 40 39 38 38 39 39 39 38 36 35 35 35 35 35 35 35 35 35 36 36 36 36 36 35 35 35 34 32 32 31 31 31 30 28 26 24 25 26 25
40 40 40 40 39 38 39 40 39 39 38 37 36 35 36 36 36 36 36 36 36 37 37 37 37 36 36 37 36 35 34 33 32 32 32 32 29 27 26 25 25 26
40 40 40 40 39 39 40 41 40 39 38 37 37 36 36 37 37 37 37 37 37 38 38 38 37 37 38 38 38 37 36 35 34 33 33 33 32 30 27 26 26 26
41 40 40 40 41 41 41 41 40 39 38 38 37 36 36 37 37 37 38 38 38 38 38 39 38 38 38 39 39 38 37 36 35 34 34 34 34 32 30 28 27 27
41 40 40 41 41 41 42 41 40 39 38 38 38 37 37 37 37 37 37 38 39 39 39 39 39 39 39 39 40 39 38 37 36 35 34 35 34 33 32 31 30 29
41 41 42 42 42 42 41 40 40 39 38 38 38 38 37 37 37 38 38 39 40 40 40 40 39 39 39 39 40 39 39 38 37 36 35 35 34 34 33 32 32 31
42 43 42 42 43 42 40 39 39 39 39 39 38 37 37 37 37 37 38 39 39 39 40 40 39 40 40 40 40 39 39 39 37 37 36 35 35 35 34 33 33 32
43 43 43 43 42 41 39 38 38 39 39 38 37 37 38 38 37 37 37 38 38 39 39 39 39 40 41 41 40 39 39 39 38 37 36 36 36 36 35 35 34 34
42 41 41 41 40 39 39 39 38 38 38 37 37 38 38 37 37 36 36 36 37 38 38 39 40 41 42 42 41 40 39 38 38 37 37 36 35 35 35 35 35 35
40 40 40 40 40 40 39 39 38 37 36 37 37 37 37 36 36 36 36 36 37 37 38 39 41 42 43 43 42 41 39 38 37 37 37 36 35 34 35 35 36 36
39 39 39 40 41 40 39 38 37 36 36 36 36 35 36 35 35 36 36 37 37 38 39 40 42 42 41 42 43 42 40 38 38 38 37 36 35 34 35 36 37 36
39 39 39 40 40 40 39 37 36 35 35 35 35 35 36 36 36 36 37 38 38 38 39 41 41 41 40 41 42 42 41 39 38 38 38 37 37 36 37 37 35 33
38 38 39 39 40 40 38 36 35 35 36 36 36 36 35 36 37 37 38 39 39 39 40 41 40 39 40 41 42 42 41 40 39 39 38 38 38 38 38 36 33 32
38 38 39 39 39 38 36 35 36 37 37 37 35 35 36 37 38 38 38 39 40 40 40 40 38 38 40 41 41 41 41 41 41 40 39 39 39 40 38 35 32 32
39 39 39 38 37 36 36 36 37 37 37 36 35 36 38 38 38 38 39 40 40 40 39 38 38 38 39 40 40 40 40 41 41 40 39 39 39 39 37 34 31 31
40 40 38 37 36 36 36 37 38 38 37 37 37 38 38 37 38 39 40 40 39 39 38 38 38 38 39 40 39 39 39 40 40 39 38 38 39 38 35 31 30 31
40 39 38 36 36 36 38 38 39 39 38 38 38 37 37 38 39 40 40 39 39 39 39 38 37 37 39 39 39 38 38 39 40 39 37 38 38 35 30 28 29 30
41 40 38 36 37 38 39 40 40 39 40 40 40 39 39 40 40 39 38 39 39 40 41 39 37 37 38 38 38 38 38 39 40 38 36 36 33 29 27 28 28 28
40 39 38 37 38 40 40 40 40 40 40 40 40 40 39 39 38 36 36 38 39 40 41 39 37 37 37 37 37 37 37 39 39 36 34 32 27 25 26 27 26 25
38 39 40 40 40 41 41 40 40 38 38 39 39 39 37 35 36 36 36 36 37 38 38 38 37 36 36 36 36 36 36 38 37 35 33 30 27 26 25 23 23 23

ECMWFNIL_925_spd_024.txt.gz
Wind_Speed
42 41 40 39 39 38 36 36 35 34 34 34 34 34 34 33 32 31 31 30 29 28 27 25 24 23 23 22 21 21 22 23 23 23 21 21 21 21 21 20 18 17
42 41 40 38 38 38 37 38 37 36 35 35 35 35 33 32 31 31 31 30 30 29 28 26 25 24 24 23 22 23 24 24 24 23 22 22 22 22 22 20 19 18
43 42 41 40 39 39 39 38 37 37 37 35 35 34 33 32 31 31 30 30 30 29 28 27 26 26 25 24 24 24 25 26 25 24 23 23 22 22 22 20 20 19
43 43 43 42 41 40 39 38 37 37 36 35 35 34 33 32 30 30 30 30 30 30 29 28 27 27 26 25 25 26 27 27 26 25 24 24 23 23 22 20 20 20
43 43 43 42 41 39 38 38 38 38 37 36 35 34 33 32 31 30 30 30 30 30 30 29 28 28 27 27 27 28 28 27 26 25 25 25 24 24 22 21 20 20
42 42 42 42 40 38 38 39 39 38 37 36 35 34 34 33 32 32 31 31 31 31 31 30 30 29 29 28 29 30 30 29 27 26 27 27 26 24 23 22 21 21
41 41 42 41 40 39 39 39 39 38 37 36 35 35 35 34 33 33 32 32 32 32 32 31 31 31 30 30 31 32 32 30 28 27 28 28 27 26 25 24 23 23
40 41 42 41 41 40 40 39 38 38 37 35 35 35 35 35 34 34 33 33 33 33 33 33 33 32 32 33 34 34 33 32 31 29 30 30 29 28 28 26 25 24
40 40 41 41 41 41 40 39 38 37 36 35 35 35 35 35 35 35 34 34 34 34 34 34 34 34 34 34 35 35 35 34 33 32 32 31 31 31 30 29 27 26
40 40 40 41 42 41 40 39 38 37 36 36 35 35 35 36 35 35 35 35 35 35 36 36 36 35 35 36 36 36 36 36 35 34 33 33 33 32 31 30 29 29
40 40 40 41 41 41 40 40 39 38 37 36 36 35 35 35 35 35 36 36 37 37 37 38 37 37 36 37 37 37 37 37 36 35 35 34 34 33 32 31 31 31
40 41 41 41 41 41 40 40 39 39 38 37 37 36 36 35 36 36 37 38 39 39 39 39 38 38 38 37 37 37 37 37 37 36 36 35 34 33 33 32 32 31
41 42 42 41 41 41 40 40 40 39 38 38 37 36 36 37 37 38 39 40 40 40 40 39 39 38 38 38 37 37 37 37 37 36 36 35 35 35 34 33 33 32
42 42 41 41 41 40 40 40 39 39 38 37 37 37 38 38 39 39 40 40 40 40 40 39 39 39 39 38 38 37 37 37 37 36 36 36 36 35 35 34 33 33
42 40 40 40 39 39 39 39 38 38 37 37 37 38 39 39 39 40 40 40 40 40 40 39 39 40 40 40 39 39 38 37 36 36 36 36 36 35 34 34 34 34
40 39 39 39 39 39 39 38 38 37 37 37 38 38 38 38 39 39 40 41 40 39 38 39 40 42 42 42 41 41 39 37 36 36 36 36 35 34 34 35 35 34
39 39 38 39 40 40 40 39 38 37 37 38 38 38 39 38 39 40 41 41 40 39 39 40 42 43 44 43 43 42 40 38 37 37 37 36 35 34 35 35 35 35
39 39 39 40 41 41 40 39 38 38 38 39 39 39 39 38 40 42 42 40 39 39 40 41 43 44 44 44 43 42 41 39 38 37 37 36 36 36 36 35 36 33
39 38 39 40 41 41 40 38 38 39 40 40 40 40 39 40 41 42 41 39 39 39 41 42 43 44 44 44 43 42 42 40 39 38 37 37 36 36 36 36 33 24
38 39 39 40 40 39 38 38 40 40 41 41 40 39 39 40 41 41 40 39 40 40 41 41 42 43 44 43 43 42 42 42 40 38 38 37 37 37 37 35 30 24
38 38 38 38 38 38 38 38 39 40 41 40 39 40 41 41 40 40 40 40 40 40 39 40 42 43 43 43 43 42 42 42 40 39 37 37 37 37 36 34 31 30
39 38 37 36 36 36 37 37 39 40 40 40 38 38 39 39 39 39 39 39 39 39 39 40 41 41 42 43 43 42 41 41 40 39 37 37 37 37 35 34 33 33
38 36 35 35 35 37 38 39 40 40 39 39 38 37 37 38 38 37 38 38 39 39 41 40 39 39 41 43 42 41 40 40 40 38 37 37 37 36 34 33 33 33
36 35 35 36 37 39 40 40 40 39 39 39 38 37 37 38 37 36 36 38 39 41 42 41 38 38 41 42 41 40 40 40 40 39 37 37 36 33 32 33 33 32
37 38 40 41 41 41 40 40 39 38 38 38 38 38 37 36 35 34 35 37 39 41 42 40 37 37 39 40 39 39 39 40 40 38 36 35 34 31 30 31 30 30
38 40 41 41 41 40 39 38 38 37 37 38 38 37 35 33 33 34 34 35 37 38 39 39 38 37 37 38 38 38 39 40 40 38 36 35 33 30 28 28 28 28

ECMWFNIL_925_spd_027.txt.gz
Wind_Speed
37 36 37 34 33 32 32 34 35 32 31 30 29 31 32 31 31 30 28 24 20 18 17 16 17 16 18 20 20 19 19 19 18 18 18 19 19 18 16 15 14 13
39 37 37 34 33 36 37 37 36 35 35 35 33 33 34 33 31 31 30 28 24 21 18 17 17 17 20 22 21 18 18 20 20 19 19 20 21 20 17 16 16 16
39 37 37 35 34 37 36 33 35 36 36 36 35 35 34 33 32 32 31 30 28 25 22 18 16 17 18 21 23 21 21 22 21 21 21 21 21 21 19 17 17 18
39 37 37 35 33 34 33 31 34 36 34 34 35 35 34 33 33 31 29 30 27 26 25 20 17 17 16 19 24 25 24 23 22 22 22 22 22 21 20 18 18 18
42 41 38 35 32 32 34 34 35 35 34 33 35 35 35 34 34 30 28 28 23 24 26 21 17 17 16 18 23 26 26 24 23 23 23 23 22 21 20 19 19 19
42 43 41 39 36 35 36 37 36 35 34 33 34 36 35 35 35 32 31 28 23 23 26 23 18 17 17 18 21 26 27 26 24 25 25 24 23 22 21 20 20 20
39 41 42 40 38 37 38 37 37 37 36 34 35 37 36 36 35 34 33 31 27 25 27 26 21 18 17 17 20 26 28 27 26 26 26 26 25 24 21 20 21 21
37 38 40 40 37 35 36 36 36 38 39 37 36 36 37 37 36 36 35 33 31 28 28 29 24 19 19 18 21 27 30 29 29 28 28 27 26 25 23 21 22 22
36 35 37 38 37 34 33 33 33 36 40 40 37 35 37 39 38 37 36 36 36 30 26 29 26 20 20 20 24 30 31 31 31 30 30 29 28 27 24 23 24 23
36 35 35 36 36 34 33 33 32 33 37 40 37 33 35 39 39 39 38 38 38 33 28 29 27 22 21 22 27 31 31 33 33 32 33 32 30 29 26 25 25 25
36 36 35 35 35 33 33 34 33 31 33 36 35 32 33 38 40 40 40 39 40 38 34 31 27 23 23 25 29 31 32 34 34 34 34 34 32 31 28 27 27 26
36 37 36 35 35 34 34 35 34 32 31 33 35 33 33 35 39 41 41 41 41 40 39 36 29 24 25 29 32 32 33 35 35 36 36 35 34 32 31 30 29 28
37 37 36 35 36 36 35 35 35 34 32 33 34 34 33 34 38 42 42 42 42 40 40 39 32 26 29 34 35 34 35 36 36 37 36 35 34 33 32 32 31 30
37 36 36 36 36 36 36 34 34 35 34 33 34 34 34 35 39 42 42 42 41 41 41 38 31 30 36 38 37 36 37 37 38 38 37 35 35 33 33 32 32 32
35 35 36 38 37 36 36 35 34 35 35 33 35 36 36 36 39 41 42 41 39 40 41 35 28 32 40 41 39 39 39 38 39 39 37 36 34 33 33 33 33 33
39 38 37 40 40 38 39 38 36 37 38 37 39 39 37 36 38 39 38 37 37 38 37 32 28 30 38 42 42 41 40 40 40 39 38 36 35 33 33 33 35 35
42 41 37 40 41 39 39 39 36 36 38 40 39 38 36 37 38 38 35 32 34 36 34 32 30 31 36 43 44 42 41 41 40 40 39 37 35 34 34 35 35 35
41 39 37 38 39 38 37 36 35 35 36 37 37 36 36 37 37 37 36 33 32 34 34 33 32 32 37 43 45 44 42 40 39 39 38 36 36 35 35 36 36 35
38 37 36 35 36 36 34 34 34 34 35 35 35 35 36 36 36 36 36 35 34 34 35 35 33 34 38 43 44 45 44 41 37 37 38 37 36 36 36 36 37 35
38 37 35 34 34 34 33 34 35 35 35 35 34 34 35 36 36 36 36 36 36 35 35 35 34 35 40 43 44 45 45 43 39 36 37 38 38 38 38 37 37 37
36 35 32 31 32 32 33 35 35 35 35 34 34 35 36 36 36 36 37 37 36 34 34 34 34 36 40 43 44 45 44 44 41 36 35 37 38 39 39 38 38 38
30 28 27 27 28 30 31 33 33 34 34 34 34 34 35 35 35 36 37 37 36 36 36 35 34 36 41 43 44 45 43 43 43 38 33 34 37 39 39 38 39 38
27 28 28 28 29 31 33 34 35 35 35 35 35 35 35 36 35 36 37 37 37 37 37 37 35 36 41 43 44 45 44 43 44 40 32 31 35 38 38 38 39 39
36 35 34 32 33 35 36 36 36 35 35 36 36 36 36 36 35 36 38 38 38 39 38 37 35 36 41 43 43 45 45 45 45 40 32 29 31 34 37 38 38 38
40 35 33 32 33 35 35 33 32 31 31 33 35 34 34 34 34 36 37 38 38 38 39 39 34 34 39 42 43 44 44 45 45 39 32 31 29 29 32 36 37 37
34 30 31 33 33 33 31 29 30 29 29 32 34 34 33 33 34 36 37 38 37 37 39 40 37 35 38 42 44 44 44 44 43 38 34 33 30 27 28 32 34 35

ECMWFNIL_925_spd_030.txt.gz
Wind_Speed
25 24 24 24 23 23 22 22 21 21 21 21 20 20 20 21 20 19 19 18 18 19 18 17 16 15 15 15 14 14 13 12 11 12 12 12 12 12 11 11 11 9
27 25 24 23 23 24 24 23 22 21 22 22 21 20 19 20 20 21 21 20 19 19 18 18 17 17 16 15 15 15 14 13 12 13 13 13 13 12 12 12 12 11
29 27 26 25 25 26 25 23 22 22 22 22 22 21 19 19 20 21 22 21 20 19 19 19 18 18 17 16 16 16 15 14 14 14 14 14 14 13 13 13 12 12
31 30 28 28 27 25 24 23 23 23 23 22 22 22 20 19 20 21 22 22 21 19 19 19 19 19 18 18 17 17 16 16 16 15 15 15 15 15 14 13 13 12
33 31 29 29 28 25 24 24 25 24 24 24 22 22 22 21 21 21 21 22 22 21 20 20 20 19 19 19 18 18 17 17 17 17 17 17 16 16 15 14 14 13
32 32 32 31 29 26 25 26 26 25 24 24 23 22 22 23 22 22 22 22 22 22 21 21 20 20 20 20 19 19 18 18 18 19 19 18 17 17 15 15 15 15
32 33 34 32 29 27 27 27 27 27 25 24 24 24 23 23 24 24 24 23 22 22 22 22 21 21 21 22 21 20 19 18 18 20 20 19 18 17 16 15 16 16
33 33 33 33 30 29 29 28 28 28 27 26 25 25 25 25 25 25 25 25 24 23 23 22 22 22 22 23 22 21 21 20 19 21 22 21 20 19 17 16 16 17
33 32 33 33 32 31 31 30 29 28 28 28 27 27 26 27 27 26 26 26 25 24 23 23 23 23 23 23 23 22 22 21 20 21 22 22 21 20 19 18 17 17
33 33 32 33 33 33 32 31 30 29 29 30 29 28 27 28 28 27 27 27 26 25 24 24 24 24 24 24 24 23 23 22 22 22 22 23 22 21 20 20 19 18
35 34 34 34 34 33 32 32 31 29 29 29 30 30 28 27 27 28 28 28 27 27 26 25 25 25 25 24 25 25 24 23 23 23 23 23 23 22 21 21 20 20
35 35 35 35 35 33 32 32 32 31 30 30 30 31 30 28 28 28 28 28 28 27 27 27 26 26 26 25 25 25 24 23 23 23 24 23 23 23 23 23 22 21
36 36 36 36 35 34 33 33 33 33 32 31 30 31 31 30 29 29 29 29 28 28 27 27 27 27 27 26 26 26 25 24 23 23 23 23 23 23 24 24 23 22
36 35 35 35 34 33 33 34 34 34 33 32 30 30 31 31 30 30 29 28 28 28 28 27 27 27 28 28 28 28 27 24 24 24 23 23 23 24 24 24 24 23
33 33 33 33 33 33 34 34 33 33 33 32 31 30 30 31 31 30 29 28 28 29 28 28 28 28 29 29 30 30 28 24 24 25 24 23 23 24 25 25 24 24
31 31 31 32 33 33 34 33 32 32 31 32 31 30 29 30 30 29 29 28 29 29 28 28 28 29 31 33 33 31 27 25 25 25 25 24 23 23 24 25 25 25
30 31 30 32 33 33 32 32 31 30 30 31 31 30 29 29 29 30 29 28 28 29 29 29 28 30 33 36 37 34 29 26 25 25 24 24 24 24 24 24 25 25
29 30 30 30 31 31 31 31 30 30 29 30 30 30 29 28 28 29 29 28 27 28 29 29 29 32 36 38 39 39 36 30 26 25 25 25 25 26 25 24 24 24
28 28 29 29 30 30 29 28 29 30 30 29 30 29 29 29 29 28 29 28 28 28 29 30 30 32 37 39 39 40 41 37 30 24 24 25 26 26 26 25 24 23
27 28 28 28 27 27 27 27 29 30 30 29 28 28 30 31 30 31 31 30 30 31 30 30 30 32 36 40 40 40 42 42 36 26 23 25 26 26 26 26 25 23
28 29 27 26 26 26 27 28 29 30 30 29 28 28 30 31 32 33 33 31 33 34 32 31 32 33 35 38 41 41 41 43 40 30 25 24 25 25 26 25 26 25
30 30 28 27 27 27 29 30 31 32 32 30 29 28 29 30 31 32 31 32 34 34 34 34 33 33 36 38 40 41 42 43 41 34 28 26 24 24 25 24 26 26
30 30 29 29 29 30 31 32 33 32 31 29 29 29 28 29 30 30 30 32 34 34 35 36 33 33 36 39 40 41 43 44 41 35 32 30 26 25 25 25 27 28
28 29 29 30 30 31 32 32 31 30 29 29 29 29 29 29 28 28 28 30 32 34 36 36 33 32 36 39 42 43 44 45 40 34 33 32 28 27 27 27 29 31
26 27 28 29 31 31 30 30 29 28 28 28 29 29 28 28 26 26 27 28 29 32 36 37 35 33 35 39 41 43 46 45 39 33 33 32 29 29 29 28 29 31
25 27 29 29 29 29 28 27 27 27 26 27 27 27 26 27 27 27 27 28 29 31 35 37 37 36 37 39 41 44 47 46 40 35 34 33 30 29 28 28 29 30

ECMWFNIL_925_spd_033.txt.gz
Wind_Speed
26 25 26 26 25 24 24 23 22 21 21 21 20 20 21 21 20 20 20 20 20 19 19 18 18 17 16 15 15 14 14 14 14 13 13 13 13 13 13 14 14 12
27 26 26 25 25 25 25 24 23 22 22 22 21 20 20 20 21 21 21 21 21 20 20 20 19 19 18 16 16 16 15 15 15 14 14 14 14 14 14 15 15 13
29 28 27 27 27 27 26 25 24 23 22 22 22 21 20 20 20 22 22 22 21 21 21 21 20 20 19 18 17 17 16 16 16 15 15 15 15 15 15 15 15 15
31 30 29 28 27 27 26 25 25 24 23 22 23 22 21 20 20 21 23 23 22 21 21 21 21 21 20 19 18 17 17 17 17 16 16 16 16 16 15 15 15 15
33 32 30 29 27 26 26 26 26 25 25 24 23 22 22 22 21 21 22 23 23 22 22 22 22 21 21 20 19 18 18 18 18 17 17 17 17 17 16 16 16 16
33 32 31 30 28 27 27 27 27 26 25 25 24 23 23 23 23 22 22 23 23 23 22 22 22 22 21 21 20 19 19 19 19 19 19 19 18 17 17 17 18 18
33 33 33 31 29 28 28 27 27 27 26 25 24 24 24 24 24 24 23 23 23 23 23 23 23 23 22 21 21 20 19 19 20 21 21 20 20 19 18 18 19 19
34 33 33 32 31 30 29 28 27 27 27 26 25 25 25 25 25 25 24 24 23 23 23 23 23 23 22 22 22 21 20 20 20 22 22 22 22 21 20 19 19 20
34 33 33 33 32 31 31 30 28 28 28 28 27 26 26 26 26 25 25 25 25 23 23 23 24 24 23 23 23 23 22 22 21 22 23 24 24 23 22 21 20 21
34 34 33 34 34 33 33 32 30 29 29 29 29 28 27 27 26 26 26 26 26 25 24 25 25 25 25 24 24 24 24 23 23 23 24 24 24 24 24 24 23 22
36 35 35 36 36 35 35 34 33 31 30 30 30 30 29 27 27 27 27 27 27 27 26 26 26 26 26 26 25 25 25 24 24 24 24 24 25 25 25 25 24 24
36 36 36 37 37 36 35 35 35 33 31 31 31 31 30 29 28 28 29 29 29 29 28 28 28 27 28 27 26 25 26 25 25 25 25 25 25 25 25 26 26 25
36 36 36 36 37 36 35 35 35 35 33 31 31 31 31 31 30 30 30 30 30 29 29 29 29 29 28 28 28 26 26 26 26 26 25 25 26 26 26 26 27 27
35 35 36 36 36 36 35 35 35 35 34 32 31 30 31 31 31 31 30 29 29 29 30 29 30 29 29 29 29 28 28 27 27 27 26 26 26 26 27 27 27 27
33 32 33 35 34 34 35 34 34 34 33 32 31 30 30 30 30 30 30 29 29 29 29 30 30 30 30 31 30 30 29 28 28 28 27 27 27 27 27 27 27 27
32 31 30 32 33 34 34 33 33 32 32 33 32 30 29 29 29 29 29 29 30 30 30 30 30 31 33 34 34 32 30 29 28 28 27 27 27 27 28 28 28 27
31 31 30 30 32 32 31 31 31 31 31 33 32 30 29 28 28 29 29 29 29 30 30 31 31 32 35 38 38 36 33 30 28 28 28 28 28 28 28 28 28 28
30 30 30 30 30 31 30 29 30 29 29 29 30 31 30 28 28 30 30 30 29 30 31 31 31 32 36 40 41 42 39 33 28 28 28 28 28 29 29 28 28 28
30 30 30 30 30 30 29 28 28 29 29 29 29 30 30 30 30 31 31 31 30 30 30 31 30 32 36 40 42 44 44 39 31 28 28 28 28 29 30 29 28 27
29 30 30 29 29 29 29 28 29 31 31 30 30 30 31 32 31 31 32 32 32 31 30 31 31 32 35 40 43 44 46 45 37 30 28 30 30 31 32 31 29 28
29 30 29 29 29 29 30 31 32 33 33 32 30 30 32 32 31 31 32 32 32 31 30 30 31 32 34 38 42 44 46 48 43 35 31 31 31 33 34 32 31 30
28 28 28 28 29 30 32 32 33 32 32 31 29 29 29 30 30 31 31 31 33 33 32 32 32 33 36 38 41 44 45 48 47 39 33 32 31 33 34 32 31 32
27 27 27 28 28 30 31 31 31 30 29 29 29 29 29 30 30 30 30 31 33 33 34 33 32 34 37 37 39 43 44 48 49 41 34 33 32 32 33 33 34 35
27 27 27 28 28 30 30 29 29 28 28 29 29 29 29 29 28 28 29 30 32 33 33 33 31 32 35 37 39 41 43 48 48 40 34 34 32 32 33 33 34 37
28 28 28 28 29 29 28 28 27 27 26 27 28 28 28 27 26 27 28 28 30 31 33 34 33 32 34 37 39 40 43 48 44 36 34 35 33 33 34 33 34 36
27 28 28 28 28 27 26 25 25 25 25 26 26 26 26 26 27 27 27 27 28 29 32 35 35 34 35 37 40 40 43 47 42 35 35 36 33 34 35 34 34 35

ECMWFNIL_925_spd_036.txt.gz
Wind_Speed
32 31 31 30 29 28 27 25 25 25 25 24 24 25 25 25 24 24 25 25 25 25 23 21 21 20 19 18 18 17 17 17 17 17 16 16 16 15 15 15 15 15
34 32 32 31 30 29 29 28 27 25 26 25 24 24 25 25 24 25 25 26 26 25 25 23 22 22 21 19 20 20 18 18 18 18 17 18 17 16 15 16 17 17
36 34 34 33 32 32 31 30 29 27 26 26 26 24 24 25 25 25 26 26 26 25 25 24 23 23 23 21 21 21 21 20 20 18 18 19 18 17 16 16 18 18
38 37 36 34 33 33 32 31 30 29 27 26 27 26 24 23 24 26 26 26 26 25 25 25 24 24 24 23 22 21 21 21 21 20 19 21 20 19 17 17 18 19
41 39 37 35 34 33 33 33 31 30 29 27 26 27 26 24 24 25 27 27 27 26 25 25 25 24 24 24 23 22 21 21 22 21 21 22 21 20 19 18 19 20
41 40 38 36 35 34 33 34 33 31 30 29 27 27 27 27 25 25 26 27 27 26 26 25 26 26 25 25 25 24 23 21 21 22 23 23 23 22 20 19 21 21
39 40 39 37 36 35 34 33 33 32 31 30 29 28 28 28 28 27 26 27 27 27 26 26 27 27 26 27 27 26 26 23 22 23 24 24 23 23 22 21 22 23
38 39 39 37 35 35 34 33 32 33 32 30 30 30 29 29 30 29 28 27 27 28 28 28 28 29 28 28 29 29 28 27 24 24 26 26 24 24 25 23 23 25
37 37 37 37 35 33 34 34 32 33 34 32 30 29 30 30 29 30 30 29 28 28 29 29 29 30 30 29 30 31 30 29 27 27 28 28 27 26 26 26 24 25
37 35 35 36 35 33 34 34 32 32 33 33 32 29 29 31 30 30 31 31 30 30 30 31 31 31 32 31 31 31 32 31 29 29 30 30 30 29 28 28 27 26
37 35 35 36 36 34 33 34 32 31 31 33 33 31 29 31 32 31 31 32 33 32 32 32 32 32 32 32 31 31 32 32 31 30 30 31 31 30 29 29 29 28
37 37 36 35 36 34 33 34 33 31 31 31 32 33 31 31 32 33 33 33 34 34 33 33 33 33 33 33 32 32 32 32 31 31 31 31 32 31 31 31 31 30
36 38 37 36 37 37 34 34 34 33 32 31 32 33 33 32 32 34 35 35 35 35 35 34 34 34 34 35 34 32 32 32 31 31 31 31 32 32 31 31 32 32
37 38 40 39 38 38 37 35 35 35 34 33 32 33 33 32 32 34 35 35 35 36 36 35 35 35 35 36 36 34 33 33 32 32 32 32 32 32 32 31 32 33
37 37 40 40 38 38 39 37 37 37 36 35 34 34 33 33 32 32 33 35 35 35 36 36 36 37 37 37 37 37 34 33 33 33 32 32 32 32 32 33 32 32
36 36 37 39 39 39 39 39 37 37 37 36 35 35 34 34 33 32 32 33 35 35 36 36 36 37 39 40 40 40 37 35 33 34 33 33 32 32 33 34 34 33
36 36 36 38 39 38 38 39 38 37 37 37 37 35 35 35 35 34 33 32 33 34 35 36 37 38 39 42 44 43 41 38 35 35 35 35 34 34 34 34 34 34
36 36 35 36 38 38 38 38 38 37 37 37 37 37 35 35 35 36 36 33 32 33 34 35 37 39 40 43 45 46 45 41 38 36 36 36 36 36 35 34 34 34
35 35 35 35 37 38 37 36 37 38 37 37 37 37 35 35 37 37 37 36 35 34 35 35 35 37 40 43 45 47 47 45 40 38 38 38 38 37 37 36 35 35
35 34 34 33 34 35 35 35 37 38 38 37 35 35 36 36 37 37 37 38 38 36 36 36 35 36 39 42 45 47 49 48 44 40 39 39 39 39 39 38 38 36
34 33 32 32 31 33 34 35 36 37 37 36 33 34 37 37 36 36 37 38 39 38 36 35 36 36 38 41 45 47 49 50 47 42 39 39 39 40 40 40 39 38
32 32 31 32 31 31 33 34 35 35 35 34 33 32 34 35 35 35 36 37 38 38 37 37 37 37 38 41 43 45 48 50 50 45 40 38 38 39 40 40 40 39
31 31 31 31 30 31 33 34 33 32 32 33 32 30 30 32 33 34 34 35 36 38 39 40 38 37 38 39 41 44 47 50 51 47 42 40 39 38 39 39 39 40
30 31 30 30 31 31 32 32 31 30 30 31 31 31 29 29 30 32 33 34 35 37 38 39 38 36 37 38 39 41 45 50 51 47 43 42 40 37 36 37 39 41
29 30 30 30 31 30 29 29 29 29 28 29 31 31 30 28 27 28 30 32 33 34 36 37 37 36 35 37 38 39 43 48 49 46 43 42 39 36 35 35 37 39
29 29 30 29 29 29 27 27 28 27 26 27 28 28 28 28 28 27 28 29 30 31 33 35 37 35 35 36 37 38 41 45 46 44 43 40 37 35 35 35 36 37

ECMWFNIL_925_spd_039.txt.gz
Wind_Speed
38 37 36 35 35 34 34 35 35 33 32 32 32 32 33 32 30 30 30 30 29 27 26 25 25 25 24 22 21 20 20 20 20 21 20 20 20 19 18 18 17 15
40 39 37 35 35 35 34 34 35 35 34 32 32 31 31 31 31 30 29 30 29 29 28 26 25 25 25 24 23 21 21 21 21 22 21 21 21 21 20 20 21 19
41 40 39 38 37 36 35 34 34 35 35 33 32 30 29 30 30 30 29 30 30 30 29 29 26 26 25 25 24 23 23 23 23 23 23 22 22 22 22 21 22 23
42 41 41 40 39 38 37 35 33 34 35 34 33 31 30 29 29 29 29 30 31 31 31 30 29 27 27 27 26 26 25 25 24 24 24 23 23 23 23 22 22 24
44 43 42 41 39 39 37 36 34 33 33 33 33 32 31 30 30 30 30 31 32 32 32 32 31 30 29 29 28 28 28 27 26 26 25 25 24 24 24 23 23 23
43 43 42 41 40 39 38 38 37 35 33 33 33 33 32 31 33 33 33 33 34 34 33 33 32 32 31 31 31 30 30 30 29 29 28 27 26 26 25 25 25 24
41 42 41 41 40 40 39 39 38 37 35 34 33 34 34 32 33 34 35 35 34 35 35 34 34 34 33 32 32 32 31 31 31 31 31 29 28 28 28 27 27 26
41 41 41 40 40 40 40 39 38 38 37 36 34 34 35 35 33 33 35 36 35 35 35 35 35 35 34 34 34 34 33 32 32 32 32 32 30 30 31 30 29 29
40 40 40 40 40 39 39 39 39 39 38 37 36 35 35 36 36 34 34 36 37 36 35 35 36 36 36 35 35 35 35 34 33 33 33 33 33 32 32 32 31 30
39 39 40 40 40 39 39 38 38 38 38 38 38 36 35 35 36 36 34 34 36 37 37 37 37 37 37 37 37 37 37 36 35 35 35 35 35 35 34 34 33 33
40 40 40 41 41 40 39 39 38 37 38 39 38 37 36 36 36 37 36 35 36 38 39 39 39 38 39 39 39 38 38 38 37 36 36 36 36 36 36 35 35 35
41 41 41 41 42 41 40 39 38 38 38 39 39 38 37 36 36 37 38 39 39 39 39 41 40 40 40 40 40 39 38 39 38 38 37 37 37 37 37 37 37 37
41 41 41 42 42 42 41 40 39 39 38 39 40 39 37 37 37 38 39 40 41 41 40 40 41 41 41 40 40 39 39 39 39 39 38 38 38 38 39 38 38 38
41 42 42 42 43 42 41 41 40 40 39 39 39 40 39 39 38 39 40 41 42 42 42 41 40 41 41 41 41 40 39 40 40 40 39 38 38 38 39 39 39 39
42 42 43 42 42 42 42 41 41 41 40 39 39 40 41 41 40 39 40 41 41 42 42 41 40 41 41 42 42 41 40 40 40 40 40 39 38 38 38 39 39 39
42 41 42 42 42 42 43 42 41 41 41 40 40 41 41 41 40 40 39 40 41 41 41 41 41 41 43 44 44 44 42 41 40 41 41 40 39 38 38 39 39 40
42 41 41 42 42 42 43 43 42 41 41 41 41 40 40 41 41 41 40 40 41 41 41 41 42 42 43 45 46 45 44 42 41 41 41 41 40 39 39 39 39 40
40 41 40 41 42 42 42 43 43 41 41 41 40 40 40 40 41 42 41 40 40 41 41 41 43 44 44 45 46 47 47 45 42 40 40 40 41 40 40 39 39 39
40 40 40 40 41 42 41 41 41 41 41 41 41 40 39 40 41 42 41 40 39 40 42 42 43 45 46 46 46 47 48 47 44 41 39 40 40 40 40 39 39 39
41 41 41 40 40 41 40 39 40 41 41 40 39 39 39 40 41 41 41 41 41 40 41 43 44 45 46 47 48 48 48 49 47 42 39 39 40 40 40 40 40 39
41 41 41 40 39 39 39 39 39 39 39 38 38 39 41 40 40 40 41 42 42 42 40 41 43 44 45 46 47 47 47 48 48 44 39 38 39 39 40 40 40 40
40 40 39 39 39 38 39 38 38 37 37 37 37 37 38 38 38 39 40 41 42 42 41 41 42 42 42 44 45 45 45 46 47 45 41 39 39 39 39 39 39 40
38 39 38 38 38 38 38 38 37 37 36 36 35 34 34 36 37 38 39 39 39 40 42 43 41 39 38 39 40 41 43 44 46 45 42 41 41 38 37 37 38 39
36 38 38 37 37 37 37 36 36 36 35 35 35 35 34 34 35 35 36 37 37 39 41 42 39 35 33 34 35 37 40 42 44 43 42 42 40 37 36 36 36 38
35 36 37 37 37 37 36 35 35 34 34 34 35 35 34 33 32 32 33 35 36 37 38 38 36 33 31 31 31 32 35 39 42 42 41 40 37 35 36 36 37 37
34 35 36 36 36 35 34 34 33 32 32 33 33 33 32 32 31 31 32 33 34 34 34 34 34 33 32 31 30 29 31 35 39 41 40 36 35 35 36 37 38 37

ECMWFNIL_925_spd_042.txt.gz
Wind_Speed
40 38 37 37 35 36 37 37 37 37 36 35 35 34 34 33 32 29 28 28 28 27 26 26 25 24 23 22 21 20 20 21 21 21 21 21 20 20 20 19 17 17
40 39 38 36 35 34 35 37 37 36 37 36 36 35 34 33 32 30 29 29 29 29 28 27 26 26 25 24 23 22 21 21 22 22 23 22 21 21 22 21 19 18
40 39 38 37 36 35 34 35 36 36 36 36 35 34 34 33 32 31 30 30 30 30 30 29 28 27 27 26 25 24 24 23 23 23 24 24 23 22 23 23 21 20
41 40 39 39 39 37 35 34 35 35 35 35 35 35 35 33 33 32 32 31 31 31 31 31 30 28 28 28 28 27 26 26 25 24 25 26 25 24 23 23 23 22
41 41 40 40 39 38 36 35 35 35 35 35 36 36 36 35 34 33 33 33 33 32 31 32 31 30 29 29 30 30 30 29 27 26 27 27 27 26 24 24 25 24
39 40 40 39 39 38 37 36 37 36 36 37 36 36 36 35 35 35 34 34 34 33 33 32 32 32 31 31 31 32 32 31 30 29 29 29 29 28 27 26 27 27
38 39 39 38 37 36 36 37 37 37 37 37 37 36 35 35 35 35 35 34 34 34 34 33 33 34 33 33 33 33 33 33 32 30 30 31 30 30 29 28 29 29
39 39 39 38 37 36 36 36 36 37 37 36 36 37 36 36 35 35 35 35 35 35 35 35 35 35 35 35 35 35 35 34 33 32 32 32 32 32 32 31 30 31
40 39 39 38 37 36 36 36 36 37 36 35 36 37 37 37 37 37 36 35 36 36 36 36 36 36 36 36 36 36 36 36 35 34 34 34 34 34 34 33 32 32
39 39 39 39 38 37 37 37 37 36 36 36 36 36 36 38 38 38 37 37 37 37 38 38 38 38 37 37 38 37 37 37 36 36 36 36 37 37 36 35 35 35
39 39 39 39 39 38 38 38 38 37 37 37 37 36 36 37 38 38 38 39 39 39 40 40 40 39 39 39 39 39 39 39 38 38 38 38 39 39 38 37 37 38
39 40 39 39 39 39 39 39 38 38 38 38 38 38 37 37 37 38 39 40 41 42 41 41 41 40 40 40 40 40 40 40 39 39 39 39 39 39 39 39 39 40
39 40 40 40 40 40 39 39 39 39 39 39 40 40 39 38 38 39 40 41 42 42 42 42 41 41 41 41 41 41 41 40 40 40 40 40 40 40 40 39 40 40
40 40 41 41 40 40 40 40 40 40 40 40 40 40 41 41 41 40 41 41 42 42 42 42 41 41 41 42 42 42 41 41 41 40 40 40 40 40 40 40 40 40
41 40 40 40 40 40 40 41 41 40 40 40 40 41 41 42 42 41 41 42 42 42 42 41 41 42 43 43 43 42 42 42 41 40 40 40 40 40 40 40 40 40
40 39 39 39 39 40 40 41 41 40 40 40 41 41 42 42 42 41 41 42 42 42 42 41 41 43 44 45 45 44 43 42 41 40 40 39 39 39 39 39 40 40
39 38 38 38 39 39 40 41 41 41 40 41 41 41 42 42 42 41 42 43 42 42 42 42 43 44 45 46 47 46 45 42 41 40 39 38 38 38 38 39 39 40
38 38 37 38 38 39 39 40 40 40 40 40 41 41 41 41 42 42 43 43 42 42 43 43 45 45 46 47 47 48 47 44 41 39 38 38 38 38 39 38 38 38
38 38 38 38 38 39 39 39 39 39 40 40 40 41 40 40 41 43 43 43 42 42 43 44 45 46 47 47 48 48 48 47 44 40 39 39 39 39 39 38 37 37
39 38 38 38 39 39 39 38 39 40 40 40 39 39 40 41 41 42 43 43 43 43 43 43 45 46 46 47 48 48 48 47 46 43 40 39 39 39 39 39 38 37
38 38 38 38 39 39 39 39 40 40 40 39 38 38 40 41 41 41 42 43 44 44 43 43 44 45 45 46 48 48 47 46 46 44 41 40 39 39 39 39 39 38
38 37 37 38 38 38 39 39 39 40 40 40 39 39 39 39 39 40 41 41 42 42 42 43 44 43 43 44 45 45 45 44 44 45 43 41 39 38 39 40 39 39
38 38 37 38 38 38 38 38 39 40 40 40 39 39 38 39 40 40 40 40 40 40 41 42 42 40 39 40 40 40 41 42 43 44 43 42 41 39 39 40 40 41
40 40 39 38 38 39 39 39 39 40 40 40 40 39 39 40 40 40 39 39 39 40 41 41 40 37 35 35 35 35 38 41 43 43 42 42 41 40 40 40 40 41
41 41 41 40 40 40 40 40 40 40 40 40 40 40 40 40 39 38 38 39 39 39 39 39 37 35 33 32 31 31 34 38 41 42 41 40 40 39 40 40 40 41
40 41 42 42 42 41 40 40 40 39 39 38 38 38 38 37 37 37 37 38 38 38 37 37 36 34 32 31 30 30 32 34 38 40 40 39 39 39 38 38 39 41

ECMWFNIL_925_spd_045.txt.gz
Wind_Speed
39 38 36 35 35 35 34 34 34 34 35 34 34 33 32 32 32 31 29 27 25 24 23 23 23 23 22 21 20 19 18 18 18 19 20 21 22 21 21 20 19 18
40 39 38 36 35 34 34 34 35 35 35 36 36 35 33 31 31 31 30 28 27 25 24 24 24 23 23 22 21 20 20 19 19 20 21 22 22 23 23 21 21 20
40 39 39 37 37 36 35 34 34 34 34 35 36 35 34 32 31 31 30 29 28 27 26 25 24 24 24 23 23 22 22 22 21 21 21 22 23 23 23 22 22 22
40 40 39 39 38 37 35 34 34 34 34 33 34 35 35 33 32 31 31 30 29 28 27 26 26 25 25 24 24 24 24 24 23 22 22 23 23 23 23 23 23 23
40 40 39 39 38 36 35 34 35 35 34 34 34 35 35 34 33 32 31 31 30 30 29 28 27 27 27 26 26 26 26 26 25 24 24 24 24 24 24 24 24 24
39 39 39 38 37 36 35 35 36 35 35 36 35 35 35 34 34 33 32 31 32 32 31 30 29 28 28 28 28 28 27 27 27 26 27 26 26 25 25 25 26 26
38 38 38 37 36 36 36 36 36 35 36 36 35 35 35 35 35 34 33 32 32 32 32 32 31 30 30 30 30 30 29 28 28 28 29 28 28 27 26 27 27 28
38 38 38 37 36 36 36 36 35 35 35 34 34 34 35 35 36 35 35 34 33 33 33 33 33 32 32 31 31 31 30 30 30 30 30 30 30 30 29 29 29 29
38 38 38 38 37 36 36 36 36 35 34 33 34 34 34 35 36 36 36 35 35 34 34 34 34 34 33 33 32 32 31 31 31 31 32 32 32 32 32 31 30 31
38 38 38 38 37 37 37 37 36 35 34 34 34 34 33 35 35 35 36 36 35 36 36 36 36 35 35 34 34 33 32 33 32 32 33 33 34 34 33 32 32 33
38 37 37 37 37 37 37 37 36 35 34 35 35 34 34 34 34 35 35 36 36 37 37 38 37 37 36 36 35 35 34 34 34 34 34 34 35 34 34 34 33 34
37 37 37 37 37 37 37 37 36 35 35 35 36 36 36 35 34 35 35 36 38 38 39 39 38 38 37 37 37 36 35 35 35 35 35 35 35 35 35 35 35 36
39 39 39 38 38 38 38 37 37 36 37 37 37 37 36 36 35 35 36 37 38 39 39 39 38 38 38 38 37 36 36 36 36 36 36 36 36 36 35 36 36 37
40 40 40 39 39 39 38 37 37 37 37 37 37 37 37 37 37 36 36 37 38 39 39 39 38 38 39 38 38 37 36 37 37 37 36 36 36 36 36 36 37 37
39 39 39 39 39 38 38 38 37 37 37 37 37 37 38 38 38 37 36 37 38 39 39 39 38 39 40 40 39 38 37 38 37 37 37 37 36 35 35 36 37 38
38 38 38 38 38 38 39 38 37 36 36 37 37 38 38 38 38 37 37 37 38 38 39 39 39 40 41 41 41 40 39 38 37 38 37 36 36 35 35 36 37 39
36 36 36 36 37 38 38 38 37 37 37 37 37 38 38 38 37 37 38 39 38 38 39 39 40 41 42 43 43 42 41 39 38 38 37 36 36 35 36 36 37 38
35 35 35 35 36 37 37 37 37 37 37 37 37 38 38 37 37 38 39 39 38 39 39 40 41 42 42 43 43 43 43 41 39 37 36 36 36 36 37 37 36 37
35 35 35 36 36 37 37 37 37 37 37 38 38 37 37 37 38 38 39 39 38 39 40 40 41 42 42 43 43 44 44 43 41 39 36 35 35 36 37 37 37 36
36 36 36 37 37 37 37 37 37 38 38 39 38 37 37 38 38 38 39 39 39 40 40 40 41 42 42 42 43 44 43 42 42 40 37 36 36 36 37 37 37 36
36 36 36 36 37 37 37 37 37 38 38 39 38 38 39 40 39 39 39 40 40 40 40 40 42 42 41 42 43 43 42 41 41 41 39 39 38 38 38 38 37 37
36 36 36 36 37 37 36 37 37 38 39 39 38 39 40 39 39 40 40 41 41 40 39 40 42 41 41 41 42 41 40 40 40 40 40 40 41 40 39 39 39 38
37 37 37 37 37 36 36 37 38 39 39 39 38 38 38 38 39 40 40 40 40 39 40 41 41 40 40 40 40 38 38 38 39 40 40 41 42 42 41 40 41 41
38 38 38 38 37 37 37 38 38 39 40 40 39 39 39 39 39 38 39 39 40 41 41 41 40 40 39 39 38 37 36 36 38 39 40 41 41 41 41 42 43 43
39 39 39 38 38 38 38 39 40 40 40 40 39 39 39 38 37 36 37 38 39 40 40 39 39 39 38 38 38 37 36 36 36 37 39 40 39 39 40 41 43 44
38 39 39 38 38 39 39 40 40 40 39 38 37 37 37 35 35 35 35 37 37 37 37 38 38 37 37 37 37 37 37 36 36 37 38 38 37 37 38 39 41 42

ECMWFNIL_925_spd_048.txt.gz
Wind_Speed
37 36 36 35 34 34 33 32 32 32 32 31 31 31 30 29 27 26 25 26 26 26 24 22 20 20 19 20 20 19 18 17 17 16 15 16 16 17 19 20 19 19
38 37 36 35 34 34 34 34 34 33 33 32 32 32 31 29 28 27 26 25 26 26 25 24 22 21 20 20 20 20 19 19 18 17 16 16 17 17 19 19 20 20
38 37 37 36 36 35 35 34 34 34 33 32 32 32 31 31 29 28 28 26 26 26 26 25 24 22 21 21 21 21 21 20 19 18 17 17 17 18 19 19 20 21
39 38 38 38 37 36 34 33 33 33 33 33 33 33 32 31 30 30 29 28 27 27 27 27 26 24 23 22 22 22 22 21 20 19 19 19 18 18 19 19 21 21
39 39 39 38 37 35 33 33 33 33 34 34 33 33 32 32 31 31 30 30 29 28 28 28 27 26 25 24 24 24 23 22 21 20 20 20 20 19 19 19 20 22
38 38 38 38 36 35 34 34 34 34 34 34 34 33 33 32 32 32 32 32 31 30 29 29 29 28 27 26 25 25 24 23 22 21 22 22 21 20 20 20 21 22
37 38 38 38 36 36 36 36 35 34 34 33 33 33 32 32 32 32 33 32 32 31 30 30 30 29 28 28 27 26 25 24 23 23 23 23 22 22 22 22 23 24
37 38 38 37 36 36 36 35 35 34 34 33 32 33 32 33 33 33 33 32 32 31 31 31 31 30 29 29 28 28 26 26 25 25 25 24 24 24 25 25 25 26
37 37 37 37 36 36 36 36 35 34 33 33 32 32 32 33 34 34 33 33 32 32 31 31 31 30 30 30 29 29 28 27 27 26 26 26 26 27 27 27 27 28
36 36 37 37 37 37 37 37 36 34 33 33 33 32 32 33 34 33 33 33 33 33 32 32 31 31 30 30 30 29 29 28 28 27 27 28 28 28 28 28 29 30
37 36 36 37 38 38 38 38 36 34 33 33 33 33 33 33 33 33 33 33 34 34 34 34 33 32 31 31 31 30 29 29 29 29 29 29 29 30 30 30 30 31
37 37 37 38 38 38 38 37 36 35 34 34 33 34 33 33 33 33 33 34 35 35 35 35 34 33 33 32 32 31 30 30 30 30 30 30 31 31 31 31 32 32
38 38 38 38 38 38 38 37 36 35 35 34 34 34 33 33 33 33 34 35 36 36 36 36 35 34 34 33 32 32 31 31 32 31 31 32 32 32 32 33 33 33
39 39 39 39 39 38 38 37 37 36 36 35 34 34 34 35 34 34 34 34 35 36 36 36 35 35 35 34 33 33 33 33 33 32 32 32 33 33 34 34 34 34
39 38 38 38 37 37 38 37 37 36 36 35 35 35 35 35 35 34 34 34 35 36 36 35 35 35 36 35 35 34 34 34 33 33 33 33 33 33 34 35 35 35
38 37 37 37 37 37 37 37 36 36 36 36 36 36 35 35 35 34 34 35 35 35 35 35 35 36 37 37 36 36 35 34 33 33 33 33 33 34 35 36 35 35
36 36 35 36 37 37 36 36 36 35 35 36 36 36 36 35 34 34 35 36 35 35 35 35 36 37 37 37 37 37 36 34 33 33 33 33 34 34 35 36 35 35
35 35 34 35 36 36 36 36 35 35 35 35 36 36 36 35 35 35 36 36 35 35 35 35 36 38 38 38 38 37 36 35 34 33 32 33 34 34 35 35 34 34
35 34 34 35 36 36 36 35 35 35 36 36 36 36 36 36 36 37 37 36 36 36 36 37 37 37 38 38 38 38 37 36 36 35 34 34 34 34 35 35 34 34
35 35 36 36 36 37 36 36 36 37 37 37 36 36 35 36 36 37 38 38 37 38 38 37 38 39 39 38 39 39 38 37 37 36 35 35 35 35 35 35 35 34
35 36 36 36 37 37 36 37 37 37 37 37 36 36 36 37 37 38 38 38 38 38 38 38 40 40 39 39 39 38 37 36 36 36 36 36 37 37 37 37 36 34
36 36 36 37 37 36 36 36 36 37 37 37 36 36 36 37 37 37 37 38 38 38 37 38 40 40 39 40 40 38 36 35 35 36 37 37 38 38 38 38 37 35
36 37 37 37 36 35 35 36 36 37 38 37 36 35 35 36 36 36 37 37 37 37 37 38 39 39 39 40 39 37 36 35 35 36 36 37 38 38 39 38 38 37
37 38 37 36 36 35 35 36 36 37 38 37 36 36 37 37 37 36 36 37 37 37 37 38 39 38 37 38 38 37 36 35 35 36 36 37 37 38 38 38 38 38
37 38 38 36 36 36 37 38 38 38 38 37 36 36 37 37 36 35 35 36 37 37 37 37 37 37 36 37 37 36 36 35 35 35 35 36 36 36 37 38 38 38
36 37 37 37 37 38 38 38 38 37 36 35 35 35 35 34 34 34 34 35 35 35 35 36 36 36 37 38 37 36 36 35 35 35 36 35 35 35 35 36 36 35

ECMWFNIL_925_spd_051.txt.gz
Wind_Speed
34 34 32 30 30 29 28 31 31 29 29 28 27 27 27 27 25 24 24 24 22 21 20 19 19 18 17 15 13 11 11 13 13 13 12 11 12 12 12 12 12 12
35 34 33 30 29 32 32 32 32 31 31 31 29 28 28 27 25 24 24 24 23 22 21 20 19 19 18 17 15 11 9 10 11 12 12 12 12 12 12 12 11 13
35 33 34 31 30 33 32 31 33 33 32 31 31 29 28 27 26 25 25 25 24 23 22 21 20 20 19 19 17 13 10 10 11 12 12 12 12 12 12 12 11 12
34 33 33 31 29 30 30 29 31 33 31 31 31 30 28 28 27 26 26 25 25 24 23 22 20 20 20 20 19 14 10 10 11 11 11 11 11 12 12 12 12 12
35 35 34 31 28 27 28 29 29 31 31 31 31 30 29 28 27 27 26 26 26 25 25 24 22 22 21 21 20 15 11 11 11 10 11 12 12 12 12 12 12 13
34 35 35 32 29 29 30 30 30 31 32 31 31 31 30 29 28 28 27 27 27 26 25 25 24 23 22 22 21 15 11 12 12 11 12 13 13 13 13 12 13 15
34 34 34 32 30 30 32 31 30 32 32 31 31 31 30 29 29 29 28 28 27 26 25 25 25 25 24 23 23 18 12 12 12 12 13 14 14 14 14 13 13 16
33 32 33 31 29 29 30 29 30 32 33 32 31 31 31 31 30 30 29 29 27 26 26 26 26 26 25 24 24 22 16 13 13 14 14 15 15 15 16 14 13 16
31 31 32 31 30 29 29 28 28 30 33 33 31 29 30 32 31 30 30 30 28 27 27 27 26 26 26 25 26 25 22 19 16 16 16 17 17 18 18 16 16 18
32 31 31 31 30 29 29 28 27 27 29 32 30 26 27 31 32 30 30 30 29 28 28 27 27 26 26 26 26 26 25 23 21 21 21 21 21 21 19 18 19 20
32 31 31 31 31 30 29 29 27 25 27 29 29 25 25 29 31 31 30 30 29 29 29 29 28 28 27 26 26 26 25 25 24 24 25 25 25 24 22 22 22 21
31 31 31 31 31 30 28 28 27 25 25 28 28 27 26 26 29 31 31 31 30 30 29 30 29 29 28 28 26 25 25 25 24 25 26 27 26 25 24 24 24 23
32 32 31 31 31 30 28 27 27 26 25 26 27 27 27 26 26 29 32 32 31 30 30 30 30 30 30 30 28 27 26 26 25 25 26 27 27 26 24 23 23 24
32 31 31 31 30 30 29 27 27 27 26 26 27 28 28 26 25 27 30 31 30 31 31 30 30 30 30 30 30 29 28 27 27 26 26 26 27 26 25 24 23 23
31 30 31 32 31 32 33 30 28 29 28 27 30 31 30 28 27 26 27 29 29 30 30 29 28 28 29 31 31 30 29 28 26 27 27 26 26 25 25 26 25 24
33 32 32 35 35 36 36 33 30 30 30 31 33 33 32 31 29 26 25 27 28 28 28 26 26 27 30 32 31 31 30 27 26 27 28 27 26 25 25 25 26 26
37 36 34 35 37 37 37 36 33 31 31 33 33 32 32 31 30 27 26 26 25 26 26 25 26 29 31 33 33 32 30 28 26 27 28 28 27 26 25 24 24 25
38 35 32 33 36 36 36 36 34 31 30 31 31 30 30 29 28 28 28 27 25 24 25 25 26 30 32 33 33 33 32 29 26 24 24 25 25 25 25 22 22 22
34 32 31 31 33 35 35 34 33 31 30 30 30 29 28 28 28 28 28 28 26 25 25 26 26 29 33 34 33 33 33 31 29 26 23 23 24 24 23 23 23 22
33 32 31 31 33 34 33 33 33 31 30 29 28 27 27 28 29 28 27 28 28 27 27 26 26 29 32 34 34 34 32 32 32 29 26 24 24 24 23 24 24 24
34 33 31 31 33 34 33 32 31 30 30 28 27 26 26 28 29 28 27 28 29 29 27 27 28 30 33 33 34 33 32 32 32 32 29 27 25 25 25 25 25 25
34 33 32 31 32 32 31 31 30 31 32 30 27 26 25 26 28 28 27 27 29 29 27 27 28 31 33 34 34 33 31 31 33 34 32 30 28 27 27 27 27 26
33 33 33 32 32 31 31 30 30 31 32 30 28 26 24 24 25 26 27 27 28 28 28 28 29 30 33 34 33 32 31 31 33 34 33 31 30 29 28 28 28 29
32 33 32 32 31 31 31 30 29 29 29 28 28 27 25 24 24 25 26 26 26 27 28 28 28 30 33 35 34 32 32 33 34 33 32 32 31 31 31 31 31 32
32 32 32 31 30 30 30 29 29 29 28 27 27 27 26 25 24 23 24 25 25 27 29 30 29 28 31 34 34 33 33 33 34 33 31 30 30 29 29 30 32 34
32 32 32 31 30 30 30 29 29 28 27 26 26 25 24 24 24 23 23 23 24 24 26 29 28 27 29 33 34 34 33 34 34 33 30 28 28 28 26 26 27 28

ECMWFNIL_925_spd_054.txt.gz
Wind_Speed
23 22 22 21 21 20 20 19 19 19 19 18 17 17 16 16 15 14 14 14 15 15 14 13 13 12 11 10 10 9 9 9 9 9 8 8 8 8 8 8 8 7
25 24 22 21 21 20 20 20 19 19 19 19 18 16 15 15 15 15 15 14 15 15 15 14 13 13 12 11 11 10 9 9 10 9 9 9 9 8 8 9 9 9
26 25 24 23 22 22 21 20 20 19 19 19 18 16 15 15 15 15 15 15 14 14 15 15 14 14 13 12 12 11 10 10 10 10 10 10 10 9 9 9 9 9
27 26 26 25 23 22 21 20 20 20 19 18 18 18 16 15 15 15 15 15 14 14 14 15 14 14 13 13 13 12 11 10 10 9 10 10 10 10 9 9 9 9
29 27 26 26 23 21 21 21 21 20 20 20 19 18 17 16 16 15 15 15 15 14 14 14 15 14 14 14 14 13 12 11 10 10 10 10 10 11 10 10 10 10
29 28 27 26 24 22 21 21 22 21 20 20 19 18 18 18 17 16 15 15 15 15 15 15 15 15 14 14 14 14 13 12 11 11 11 11 11 11 11 10 11 11
29 30 28 26 24 24 23 22 22 22 21 20 19 18 18 18 18 18 17 16 15 15 15 15 15 15 15 14 14 14 14 13 12 12 12 12 12 12 12 12 11 12
29 29 28 27 25 25 24 23 22 22 21 20 19 19 19 18 18 18 18 17 17 16 16 15 15 15 15 15 15 15 15 14 13 13 14 13 13 13 13 13 13 13
29 28 28 28 27 26 26 25 23 23 22 21 20 19 19 19 19 18 18 18 18 17 17 16 16 16 16 15 15 15 16 15 14 14 14 14 14 14 14 14 14 14
29 29 28 28 28 27 27 26 24 23 23 23 22 21 19 19 19 19 18 18 18 18 18 18 17 17 16 16 16 16 16 16 15 15 15 15 15 15 14 14 14 14
30 30 29 30 29 28 27 27 25 24 23 23 23 22 21 20 20 20 19 19 19 19 19 19 18 18 17 17 16 16 16 16 16 15 16 16 15 15 15 15 15 15
31 30 30 30 30 29 27 27 26 25 24 23 23 23 23 21 20 20 21 21 21 20 20 20 19 19 18 18 17 16 16 16 16 16 16 16 16 16 16 16 16 16
32 31 31 30 29 28 27 26 26 26 25 23 23 23 24 23 22 21 22 22 22 21 20 20 19 19 19 18 18 17 17 16 16 16 16 16 16 16 17 17 17 16
33 31 30 30 28 27 27 26 26 26 25 23 22 23 24 23 23 22 22 22 22 21 21 20 19 19 19 19 19 18 18 17 17 17 17 16 16 17 17 17 17 17
31 30 29 29 28 27 27 26 26 26 25 24 23 23 23 23 23 22 21 21 21 21 21 20 20 20 20 20 20 19 19 19 18 18 18 17 17 16 17 17 17 17
30 29 28 28 28 28 28 27 26 25 25 25 24 23 22 22 22 22 22 21 21 21 21 21 21 21 22 24 23 21 20 19 19 19 18 18 17 17 17 17 18 18
30 29 29 29 29 28 28 27 26 25 25 25 24 23 23 22 22 23 22 21 21 21 21 21 21 22 24 27 27 26 22 19 18 19 18 18 17 17 18 18 18 18
30 29 29 29 29 28 28 28 26 25 25 25 25 24 23 22 22 23 23 22 21 21 21 22 22 23 26 28 29 29 27 23 19 18 18 18 17 18 18 18 17 17
30 29 29 29 29 29 28 27 27 26 26 25 25 23 23 22 23 22 22 22 22 21 21 21 21 22 26 29 29 29 29 27 23 19 18 18 17 18 18 18 17 17
29 29 29 28 28 28 27 28 28 28 26 25 24 23 23 23 23 22 22 23 23 22 22 21 21 22 25 28 29 29 28 29 26 22 19 19 18 18 18 18 17 17
30 29 28 27 28 28 28 28 28 27 26 25 23 23 23 23 23 23 23 23 23 23 22 22 22 23 24 26 28 28 27 27 27 24 21 20 19 20 19 19 18 18
30 29 28 27 27 28 28 28 27 27 26 25 24 23 22 22 22 22 23 23 23 23 23 23 22 23 26 27 27 27 25 26 27 25 23 22 21 20 21 20 19 19
30 29 29 28 27 28 28 27 27 26 26 25 24 23 22 22 22 22 22 23 24 24 24 23 23 24 26 28 28 27 26 26 26 24 23 23 22 21 21 20 20 21
29 29 28 28 27 28 28 27 26 25 25 25 25 24 23 22 22 21 22 23 24 25 25 24 23 23 26 29 29 29 28 28 26 23 22 22 21 21 21 21 22 23
28 28 28 27 27 27 26 26 25 24 24 24 24 24 23 23 22 21 21 22 23 24 25 25 24 23 25 29 30 30 31 30 26 22 22 22 21 20 20 20 21 22
27 28 28 28 27 26 25 24 24 23 23 24 23 23 22 22 22 22 21 21 21 22 23 25 24 23 25 28 30 31 32 32 28 23 21 21 20 19 19 19 19 19

ECMWFNIL_925_spd_057.txt.gz
Wind_Speed
25 24 23 23 22 22 21 21 19 19 19 19 18 17 18 17 16 16 16 15 15 15 14 13 12 11 10 9 9 8 8 8 8 8 7 8 8 7 7 7 7 5
26 24 23 23 22 22 22 22 21 20 20 20 19 17 17 18 17 17 17 16 16 16 15 15 14 13 12 11 10 10 9 9 9 8 8 8 8 8 8 8 7 7
27 25 24 24 23 23 23 22 21 20 20 20 20 18 17 18 18 18 18 18 17 16 16 15 15 14 13 12 12 11 10 10 10 9 9 9 9 8 8 8 8 8
28 26 25 24 24 24 23 23 22 22 21 20 20 20 19 18 19 19 19 19 18 17 17 17 16 15 14 13 13 12 11 11 10 9 9 9 9 9 9 8 8 8
30 28 26 25 24 23 23 23 23 22 22 21 20 21 20 19 20 20 19 19 19 18 17 17 17 16 15 15 14 13 12 12 11 10 10 10 10 10 9 9 9 8
30 28 27 26 25 24 23 24 24 23 22 22 21 21 21 21 21 21 21 20 19 18 18 18 18 17 16 16 15 14 13 12 11 11 11 11 10 11 10 10 9 9
30 30 28 27 25 25 24 24 24 23 23 22 21 21 21 22 22 22 22 22 20 20 19 19 19 18 17 17 16 15 14 13 12 13 13 11 11 11 11 10 10 10
32 31 30 28 27 26 26 25 24 24 23 22 22 22 22 22 23 22 22 22 21 21 20 20 19 19 18 18 17 16 16 14 13 14 14 13 12 12 12 11 11 11
32 31 30 30 29 28 27 26 25 24 24 23 23 23 22 23 23 23 22 22 22 21 21 20 20 20 19 18 18 18 17 16 15 15 15 15 14 13 13 13 12 12
32 31 31 31 30 29 28 28 26 25 25 24 24 24 23 23 23 22 23 23 22 22 21 21 21 21 20 19 19 19 18 18 17 16 16 16 16 15 14 14 13 13
33 32 32 32 32 30 29 29 28 27 26 25 25 25 24 24 23 23 23 23 23 23 22 22 22 21 21 20 20 19 19 19 18 17 17 17 16 16 15 15 15 15
34 33 33 33 33 31 30 30 29 28 27 26 26 26 26 25 24 24 23 24 24 23 23 23 22 22 21 20 20 20 19 19 18 18 18 17 17 17 16 16 16 16
35 35 34 34 33 32 30 30 29 29 28 27 26 26 26 26 25 24 24 24 24 24 23 23 23 22 22 21 20 20 20 20 19 19 18 18 18 18 18 18 17 17
36 35 34 33 33 32 31 29 29 29 28 27 26 26 27 27 26 25 24 24 24 24 23 23 23 22 22 22 21 21 20 20 19 19 19 19 18 18 18 18 18 18
34 33 33 33 32 32 31 30 29 29 28 27 27 26 26 26 26 26 25 24 24 24 24 23 23 23 23 23 22 22 21 20 20 20 19 19 18 18 18 18 18 18
33 32 33 33 33 33 32 31 29 29 29 28 28 26 26 26 26 26 26 25 24 24 24 24 23 24 25 26 25 23 22 21 20 20 20 19 19 18 18 18 18 18
33 32 32 33 34 33 33 32 30 29 29 29 28 27 26 26 26 27 26 25 25 25 24 24 24 24 26 29 28 26 24 21 20 20 20 20 19 19 18 18 18 19
33 32 32 33 33 33 33 32 31 29 29 29 29 28 27 26 26 27 27 25 25 25 25 24 24 25 27 30 31 30 28 23 20 20 20 20 20 20 19 19 19 19
33 33 32 32 33 32 32 32 31 30 29 30 29 28 27 27 26 26 26 26 25 25 25 24 24 25 28 30 31 32 31 28 23 20 20 20 20 20 20 20 19 19
32 32 32 32 32 31 31 32 31 30 29 29 29 28 27 27 27 26 26 26 25 24 24 24 24 25 28 30 31 31 32 31 27 21 19 20 20 19 20 20 19 19
32 32 31 31 32 31 31 31 31 30 29 28 28 28 28 27 27 26 26 26 26 25 24 23 24 25 27 29 31 30 30 32 30 23 19 19 19 19 19 19 19 19
32 32 31 31 32 32 31 31 31 30 30 28 27 27 26 25 25 26 26 26 26 26 25 24 23 24 25 27 29 29 29 30 30 25 21 19 18 18 19 19 19 19
32 32 31 31 32 32 31 31 30 30 29 28 26 26 26 25 25 25 25 25 26 26 26 25 24 25 25 26 27 27 28 29 29 24 21 21 19 19 19 20 20 21
33 32 32 32 32 32 31 30 29 29 29 28 27 26 26 26 25 24 24 25 26 27 27 26 25 27 28 28 28 28 28 29 27 23 21 20 19 19 19 20 21 23
33 32 31 31 31 31 30 30 29 28 27 27 26 26 26 25 25 24 24 25 25 26 27 27 26 27 30 30 30 30 31 29 26 22 20 19 19 19 19 20 21 23
32 32 31 31 30 30 29 28 28 26 26 26 26 25 25 25 25 24 24 24 24 25 27 27 26 26 29 31 32 33 33 32 27 22 21 20 19 19 19 19 21 22

ECMWFNIL_925_spd_060.txt.gz
Wind_Speed
32 32 30 29 28 26 24 23 23 23 22 21 21 21 21 19 18 18 18 17 17 15 14 13 13 12 11 9 9 9 8 7 7 7 6 7 7 6 7 7 7 7
32 32 31 29 28 27 26 25 24 23 24 23 21 21 22 21 20 20 20 19 18 17 16 15 14 14 12 11 10 11 10 9 8 7 7 7 7 7 7 7 8 7
33 32 32 30 29 29 27 26 25 24 24 24 22 21 21 21 21 21 21 21 20 18 18 17 16 15 14 12 12 11 11 10 9 9 8 8 8 8 7 7 8 8
34 33 33 30 28 29 28 26 26 25 24 24 24 22 20 21 22 23 23 22 21 20 19 19 17 16 16 14 13 12 11 11 10 10 10 9 9 9 8 8 8 9
37 34 33 31 29 29 29 28 27 26 25 24 24 24 22 22 23 24 24 24 23 21 21 20 19 18 17 17 15 14 13 12 11 11 11 11 10 10 9 9 9 9
37 35 33 32 30 29 29 29 28 27 26 25 25 25 24 23 24 25 25 25 24 22 21 21 21 19 19 18 18 16 14 13 12 13 13 12 11 10 10 9 10 10
36 36 34 32 31 30 30 29 29 28 27 26 25 26 26 24 25 26 26 25 25 23 23 22 22 21 20 20 20 18 17 15 14 15 15 14 12 12 11 10 10 11
35 36 35 33 31 31 30 30 30 30 28 27 26 26 26 26 26 26 26 26 25 25 24 24 24 24 22 21 21 20 19 17 16 16 16 15 14 14 13 13 12 12
35 35 35 34 32 31 31 30 30 30 29 28 27 26 27 27 27 27 27 27 26 26 26 25 25 26 23 22 22 22 21 19 17 17 18 17 16 15 15 14 14 13
36 35 34 34 33 32 32 31 29 29 29 29 28 26 27 28 28 28 28 28 28 27 27 26 26 27 26 24 24 24 23 22 20 19 19 19 18 17 16 15 15 15
36 35 35 35 34 33 32 32 30 29 29 30 29 27 27 28 29 29 29 29 29 28 28 28 27 28 28 26 25 25 25 24 22 21 21 21 20 19 18 17 17 17
37 36 36 36 36 34 33 33 31 30 30 30 30 29 29 29 30 30 30 30 30 29 29 30 29 28 29 28 26 25 25 24 23 22 22 22 21 20 20 19 19 18
38 38 37 37 36 35 33 33 32 31 31 31 31 30 30 29 29 30 30 30 31 30 29 30 30 29 30 30 27 26 26 25 24 23 23 23 22 22 21 20 21 20
38 38 38 37 37 36 35 34 33 33 32 32 32 31 31 30 30 30 31 30 31 31 29 29 30 30 30 31 30 27 27 26 25 24 23 23 23 22 21 21 21 21
38 37 37 37 37 37 36 35 35 34 33 33 34 32 31 31 30 30 31 29 29 31 30 29 30 30 30 32 32 30 27 27 26 25 24 23 23 22 22 22 22 21
38 37 37 38 38 38 37 36 35 35 34 34 35 34 32 31 31 30 30 30 29 30 30 29 29 29 31 32 34 33 30 27 26 27 25 24 24 23 23 22 22 22
37 37 38 39 39 39 39 37 35 35 34 33 34 35 34 32 32 31 30 30 29 29 29 29 28 29 31 34 35 35 33 29 27 27 27 26 25 25 24 24 23 23
36 36 37 39 39 40 40 39 36 35 35 33 33 35 35 33 33 32 31 30 30 29 29 29 29 29 31 34 36 35 35 32 29 27 27 27 26 25 25 24 24 23
36 36 36 38 39 40 40 40 37 35 35 34 32 33 35 34 33 33 32 31 30 30 30 29 28 29 31 33 36 37 36 34 30 28 27 27 27 27 26 25 25 25
35 35 35 37 38 38 39 39 38 36 35 35 32 31 33 33 32 31 32 31 31 31 31 29 28 29 31 33 35 37 37 35 32 28 26 26 26 27 27 26 26 26
35 35 35 35 36 37 37 38 38 36 35 35 33 31 32 33 32 30 31 32 31 30 30 30 28 29 31 33 34 36 37 38 35 29 25 25 25 26 27 27 27 27
35 34 34 35 36 36 35 36 37 37 36 35 33 31 31 31 31 30 30 31 31 30 29 28 28 29 31 32 34 35 36 37 37 33 28 24 23 24 26 27 27 27
35 35 34 34 35 35 35 36 36 37 36 35 33 31 29 30 30 29 29 29 30 31 30 28 28 29 31 32 34 36 36 37 38 36 32 29 25 23 23 25 26 27
36 35 35 34 35 35 35 35 35 35 35 35 33 31 29 29 30 29 29 29 30 31 31 29 28 28 30 32 33 36 37 38 38 36 33 31 29 26 24 24 25 28
34 35 35 34 35 35 34 34 35 34 34 34 33 31 29 28 29 28 28 29 29 30 31 31 29 29 30 31 32 35 37 38 37 34 30 28 28 27 27 27 27 28
34 35 35 34 34 34 32 32 33 32 32 33 32 31 29 28 28 28 27 28 28 29 31 32 31 30 31 31 31 33 36 37 35 32 30 28 27 26 27 28 29 30

ECMWFNIL_925_spd_063.txt.gz
Wind_Speed
39 37 36 34 33 33 33 30 29 28 28 27 27 25 23 23 23 22 22 21 20 20 18 16 15 15 15 14 12 14 14 11 9 9 10 10 10 10 10 9 9 9
40 39 38 37 35 33 33 33 32 31 30 29 28 27 24 23 23 23 23 22 21 21 21 19 18 17 17 16 15 15 14 12 12 11 10 11 11 11 11 10 9 9
41 40 39 38 37 35 33 34 34 33 33 31 30 29 26 25 24 24 24 24 23 22 22 21 20 20 19 18 18 18 17 15 15 13 11 11 11 11 11 11 10 10
41 41 41 40 39 37 35 33 34 34 34 33 31 30 29 27 26 26 26 26 24 23 23 23 22 21 22 20 18 18 19 18 17 15 13 12 12 12 12 11 11 11
43 42 42 41 40 39 36 34 34 35 34 34 32 31 30 29 28 28 28 28 27 25 23 24 24 23 22 22 20 18 19 18 18 18 16 14 13 13 13 12 11 11
42 42 42 41 40 39 38 37 36 36 35 34 34 32 31 30 31 31 30 30 29 28 25 25 26 25 23 23 23 21 19 18 18 18 17 16 15 14 14 14 13 12
41 42 42 41 40 40 40 40 38 37 36 35 35 34 32 31 31 32 32 32 31 29 28 26 27 27 25 24 25 23 21 20 18 18 18 18 17 15 15 14 14 14
42 42 41 41 40 40 40 41 40 39 38 36 35 35 35 33 33 34 34 33 33 31 29 29 29 29 27 26 26 26 24 22 21 19 19 19 19 19 17 16 15 15
41 42 42 41 40 40 41 41 41 40 39 37 36 36 36 36 34 35 36 35 35 33 31 30 30 30 29 28 28 27 27 26 24 22 21 20 20 21 20 19 18 17
40 41 42 42 42 41 41 41 41 40 39 38 37 36 36 37 36 35 37 37 36 35 34 32 32 31 31 30 30 29 29 28 27 25 24 23 22 21 21 20 21 20
41 41 42 43 43 42 41 41 40 39 39 38 38 36 36 38 37 36 37 38 38 37 36 34 34 33 33 33 31 30 30 30 29 28 27 25 24 23 22 21 21 22
41 41 42 44 44 43 42 41 40 39 39 38 39 37 36 37 39 37 37 39 39 38 37 36 35 35 35 34 33 32 31 31 30 29 28 27 26 25 24 23 22 22
42 43 43 44 45 44 42 41 40 39 39 39 39 39 37 37 39 39 38 39 40 39 38 38 37 37 37 36 35 33 32 31 31 30 29 28 27 27 26 24 23 23
42 43 43 43 43 43 42 41 41 40 40 40 40 40 39 38 39 40 39 39 40 40 39 38 38 38 38 37 36 34 33 32 31 31 30 29 28 28 27 26 24 24
42 41 41 41 41 42 42 42 42 41 40 40 40 41 40 38 38 40 40 39 39 40 39 38 38 38 38 38 38 36 34 33 32 31 31 30 29 28 28 28 27 26
39 40 40 40 41 42 43 42 42 41 40 40 41 41 40 39 38 39 40 39 39 39 38 38 38 38 39 39 38 38 36 33 32 32 31 31 30 29 29 29 28 28
37 39 40 40 42 43 44 43 42 42 41 40 41 41 41 39 38 38 40 40 39 39 38 38 38 38 39 39 39 39 37 35 32 32 32 31 31 31 31 30 29 29
38 38 39 40 41 42 44 44 42 42 41 40 40 41 41 39 38 38 40 40 39 39 39 38 38 37 39 40 40 40 39 37 34 32 32 32 32 31 32 31 31 30
37 38 38 39 40 42 42 42 41 41 41 41 41 41 41 40 38 37 39 39 39 39 39 39 39 38 38 39 41 41 41 39 37 34 32 33 33 33 32 32 32 31
37 38 38 38 39 40 40 40 40 41 41 41 40 40 41 41 40 37 37 39 40 39 38 38 39 39 39 39 40 41 41 41 39 36 34 33 34 34 34 33 33 33
39 39 39 38 38 39 39 40 40 40 40 40 38 39 41 42 42 39 37 38 39 39 38 37 38 39 40 40 40 40 41 41 41 38 35 33 33 34 34 35 34 33
42 40 40 39 38 38 38 39 40 39 39 39 37 37 39 40 41 40 39 38 38 39 39 38 37 39 40 40 40 40 40 41 42 39 36 34 33 33 34 34 35 34
43 42 41 39 38 39 38 39 40 40 39 38 36 35 36 38 39 39 40 39 38 38 39 39 38 38 39 40 40 39 40 41 42 40 37 36 35 34 34 34 34 35
43 42 42 40 40 40 39 39 40 40 39 38 37 35 35 37 38 38 38 40 39 38 38 39 38 39 39 40 40 40 40 41 42 40 38 37 36 34 33 33 33 34
42 42 42 42 41 41 40 40 39 39 39 38 37 36 34 34 36 36 36 38 39 39 38 37 36 38 40 40 39 40 40 42 42 40 38 38 37 36 35 33 31 31
41 42 43 43 42 41 40 40 39 38 38 38 37 36 34 33 34 35 35 36 37 38 39 38 36 35 38 40 40 40 41 42 42 40 38 38 38 38 38 36 35 33

ECMWFNIL_925_spd_066.txt.gz
Wind_Speed
39 37 36 36 37 37 34 32 31 31 30 30 30 29 28 26 25 25 24 22 22 20 19 20 20 18 16 15 17 17 15 13 12 12 13 14 14 14 14 13 11 9
41 39 36 36 37 37 36 34 33 31 30 30 30 29 28 26 25 25 25 23 23 22 20 20 21 20 18 17 17 18 19 18 15 13 14 14 14 15 16 15 13 10
42 40 38 37 38 39 38 36 34 33 32 30 30 29 29 27 25 25 25 24 24 23 22 21 21 21 20 20 18 17 20 21 17 15 15 14 14 15 16 15 14 11
43 42 41 39 39 41 40 38 36 34 33 32 31 30 29 28 26 25 25 25 24 24 24 24 23 22 22 23 21 17 18 21 19 17 16 15 14 15 16 15 14 12
43 43 43 41 40 41 41 40 38 36 34 33 32 31 30 29 28 26 25 26 26 25 25 25 25 25 24 24 24 22 20 21 21 19 18 18 15 15 16 16 15 14
43 43 43 41 40 40 41 41 41 39 37 36 34 33 32 31 30 28 27 28 28 27 27 27 27 27 26 26 26 26 25 24 23 21 20 20 18 17 17 17 18 17
43 43 43 42 40 39 41 42 42 41 40 39 37 36 35 33 32 31 30 30 30 30 29 29 29 29 29 28 28 28 28 27 26 25 24 23 21 20 19 19 19 20
42 43 43 42 41 40 40 41 42 42 42 40 38 38 38 37 36 35 33 32 32 32 32 31 30 30 30 30 30 30 29 28 27 27 27 26 24 23 22 20 20 21
40 41 42 42 42 41 42 42 42 42 41 40 39 39 39 39 39 37 36 35 34 34 34 33 32 31 31 31 31 31 31 30 28 27 28 28 28 27 25 23 22 22
39 38 39 41 42 43 43 43 42 41 40 39 39 39 39 39 39 38 37 36 36 36 36 35 35 34 33 33 33 32 32 32 31 29 28 28 28 29 28 26 24 24
40 39 38 39 41 42 42 42 42 41 40 39 39 39 38 39 39 38 38 37 37 37 37 37 37 36 35 34 34 34 33 33 33 32 31 30 29 28 28 28 27 26
40 40 40 40 41 40 41 41 41 40 39 39 39 39 38 39 39 39 39 39 39 39 39 38 38 37 37 36 35 34 34 34 34 33 33 32 31 29 28 27 27 27
40 41 41 41 40 40 40 39 40 40 39 39 40 39 39 38 39 39 39 40 41 40 40 40 39 38 38 37 36 35 34 34 34 34 34 33 33 32 30 29 28 27
39 39 40 40 39 39 39 39 39 39 39 40 39 39 39 39 39 40 40 40 41 41 41 41 40 39 38 38 37 35 35 34 34 34 34 34 34 33 32 31 30 28
38 37 37 38 38 38 38 39 39 39 39 39 39 39 40 40 40 40 40 40 40 41 41 41 40 40 40 39 38 36 35 35 35 34 34 34 34 34 33 32 31 30
29 33 35 36 37 38 39 39 39 38 38 38 39 40 40 40 40 39 40 40 41 40 40 40 40 40 41 40 40 38 37 36 35 35 35 34 34 33 33 33 32 32
20 25 30 34 38 39 39 40 39 38 38 38 39 39 40 39 39 39 39 40 40 40 40 40 41 41 42 42 42 41 39 37 36 36 35 35 34 33 33 33 33 33
30 30 30 33 37 39 39 40 39 39 38 38 38 39 39 39 39 39 40 39 40 40 40 40 41 42 43 43 43 43 41 39 38 37 36 35 35 34 34 33 33 33
43 43 40 38 38 40 40 39 39 39 40 39 39 39 39 39 39 40 40 40 39 40 40 41 41 42 43 44 44 44 43 42 39 37 36 36 36 35 35 35 34 34
42 43 43 41 40 39 39 39 39 40 41 40 38 38 38 39 39 40 40 41 41 40 41 41 42 43 43 44 45 45 44 43 41 38 36 36 36 36 36 36 35 35
38 37 37 37 39 40 39 40 40 41 41 40 38 37 38 39 39 40 40 41 42 41 40 41 42 43 44 44 46 45 45 44 43 40 37 36 36 36 36 36 36 36
39 37 34 34 37 39 40 40 41 41 40 39 38 37 37 38 39 39 40 40 41 41 40 41 42 43 44 45 46 45 44 44 43 41 38 36 36 35 35 36 36 36
39 37 34 33 34 37 40 41 41 41 40 39 38 37 36 37 38 38 39 40 41 41 41 41 42 43 44 45 45 45 43 43 43 42 39 38 37 36 36 36 36 36
36 35 34 34 35 37 39 39 40 40 40 40 39 38 37 37 37 37 38 39 40 42 43 42 42 42 43 45 46 45 44 43 43 41 39 38 38 37 36 36 36 36
36 35 35 35 37 38 38 38 39 39 39 39 39 39 38 37 36 36 37 38 39 41 43 43 42 42 43 44 45 45 44 44 42 39 38 38 38 37 36 36 37 37
36 36 37 37 38 38 38 38 38 38 38 38 39 38 37 36 36 36 36 37 38 39 41 43 43 42 42 43 44 44 45 45 42 38 37 38 38 37 36 35 36 37

ECMWFNIL_925_spd_069.txt.gz
Wind_Speed
39 38 36 36 35 33 31 31 30 29 28 27 26 25 25 25 24 24 23 21 20 20 19 18 19 17 16 15 14 14 13 13 13 13 13 13 13 14 14 14 13 11
39 39 37 36 36 34 33 32 32 31 30 29 27 25 24 24 24 24 24 23 21 21 20 19 19 19 18 17 16 15 15 15 14 13 13 13 13 13 14 15 15 13
39 39 38 37 37 37 35 34 33 32 31 30 28 26 25 25 24 24 24 24 23 21 21 20 20 20 20 19 17 16 16 17 16 14 13 13 13 14 14 14 15 14
40 40 40 39 38 37 36 34 33 33 33 33 31 29 28 27 26 25 25 25 24 23 22 21 20 20 21 21 20 18 17 17 17 16 16 14 13 14 13 13 14 15
41 41 40 40 39 37 36 35 35 35 34 34 33 31 30 29 28 27 26 26 25 24 23 22 21 20 21 22 21 20 19 18 17 17 19 17 14 14 13 13 14 15
41 41 40 39 38 37 36 36 37 36 36 35 34 32 31 30 30 29 28 27 26 25 24 23 22 21 22 22 22 21 21 20 18 18 20 19 17 15 14 13 15 15
39 40 40 39 37 36 36 37 37 37 38 37 35 34 32 31 30 30 29 28 27 26 25 24 23 22 23 24 23 23 22 22 20 19 20 21 20 18 17 16 15 16
39 39 39 39 37 36 36 36 36 37 38 37 37 36 34 33 32 31 30 29 28 27 26 25 24 23 24 25 25 25 25 24 22 21 21 22 22 21 20 18 17 17
37 38 38 38 37 36 36 36 36 36 36 37 38 37 36 34 33 32 31 30 30 29 28 27 26 25 25 26 27 27 27 27 26 25 24 24 24 24 23 22 21 20
37 37 37 38 39 39 38 37 36 35 34 35 37 37 36 35 34 33 32 31 31 31 30 30 29 28 27 27 28 29 29 29 29 28 28 27 27 27 26 26 25 24
38 38 38 39 40 41 41 40 38 36 34 34 35 35 35 35 34 34 33 33 33 33 32 32 30 30 30 29 30 30 30 30 30 30 30 29 29 29 28 28 27 27
38 39 40 40 41 41 41 41 40 38 36 35 34 34 35 35 35 35 35 35 36 35 35 34 33 31 31 31 32 31 31 31 31 31 30 30 30 29 28 28 28 28
39 40 41 41 41 41 40 40 41 40 39 38 36 35 35 35 35 36 36 37 37 37 37 36 35 33 32 32 32 32 32 32 31 31 31 30 30 30 29 28 28 28
39 40 40 40 40 39 39 39 40 40 41 40 39 37 36 36 36 36 36 36 37 37 38 37 36 35 34 33 33 33 33 33 32 32 31 31 30 30 30 29 29 28
37 37 38 38 38 38 38 39 39 39 39 39 39 38 38 37 36 36 35 35 36 36 36 36 35 35 35 34 34 34 33 33 33 32 32 31 31 31 31 30 30 30
37 37 37 37 37 38 39 39 39 38 38 38 38 38 38 37 36 36 35 35 35 35 35 35 35 36 36 36 36 35 34 34 33 33 33 32 31 31 31 31 31 31
35 35 34 35 35 37 37 38 38 38 38 38 37 37 37 37 36 36 36 36 35 35 35 35 36 37 37 36 36 36 35 34 34 34 33 33 32 32 32 32 32 32
32 33 33 34 35 35 36 36 36 36 36 37 37 37 37 36 36 36 36 36 35 35 35 35 37 37 37 37 37 37 36 35 34 34 33 33 33 33 33 33 32 32
34 34 34 35 36 37 38 37 36 36 37 37 37 36 35 35 36 36 36 36 35 35 35 36 37 37 37 37 37 37 37 36 35 35 34 34 34 33 33 33 33 32
36 36 36 38 39 38 37 37 38 38 39 38 37 35 35 35 36 36 36 36 36 36 36 36 37 38 38 38 38 38 38 37 36 36 35 34 34 34 33 33 33 32
38 40 41 42 41 38 36 37 38 39 39 38 37 37 37 37 36 35 36 36 36 36 36 36 37 38 38 38 38 39 38 38 37 36 35 34 35 35 35 34 34 34
35 38 41 41 39 36 35 35 36 38 39 38 37 37 37 37 36 36 36 36 36 36 36 37 38 38 37 38 39 39 38 38 37 37 36 35 35 35 36 36 36 35
30 31 34 35 34 34 35 36 36 36 37 37 36 35 35 36 36 37 36 36 36 36 37 38 39 39 38 39 39 38 38 38 38 38 37 37 37 37 36 37 37 37
30 31 32 31 31 34 36 36 36 36 36 36 36 36 36 36 36 36 36 36 37 38 39 39 39 39 39 39 39 38 38 38 39 38 37 37 38 38 37 37 37 37
32 33 33 32 32 34 36 36 36 36 36 36 36 37 36 35 34 34 34 36 37 38 39 39 40 39 39 39 40 39 39 39 38 37 36 37 37 37 37 37 37 38
29 32 33 33 34 36 36 36 35 35 35 35 36 36 35 34 34 33 34 35 35 36 37 38 40 39 39 40 41 40 40 40 38 37 37 37 37 36 35 35 36 37

ECMWFNIL_925_spd_072.txt.gz
Wind_Speed
36 35 35 34 32 30 29 28 26 25 24 24 23 21 20 18 18 19 19 18 18 17 16 14 12 11 10 10 10 9 9 9 9 9 9 9 10 10 11 11 10 9
36 36 35 34 33 31 30 30 29 26 25 24 22 20 19 18 17 18 19 19 18 18 16 15 13 12 12 12 11 11 10 10 10 9 9 10 10 10 10 10 11 11
36 36 35 35 34 33 31 31 30 28 26 24 23 21 20 18 17 17 18 18 19 18 17 15 14 13 13 13 13 13 12 11 11 10 10 10 11 11 10 10 11 11
37 37 37 37 36 34 32 31 30 29 27 26 26 24 22 20 19 18 17 18 18 18 18 16 16 15 14 13 14 15 15 13 12 11 11 12 12 12 11 10 11 11
38 38 38 37 37 35 33 32 32 31 30 29 28 27 25 23 22 20 19 18 18 18 18 18 17 16 15 14 15 15 16 16 14 12 12 12 12 13 12 11 10 10
37 38 38 37 37 35 34 33 33 33 32 31 29 28 27 26 25 23 21 20 20 19 19 19 18 18 17 16 16 16 17 18 16 14 14 14 13 13 13 12 11 10
37 37 38 37 36 36 36 35 34 34 34 32 30 29 28 27 27 26 24 23 22 22 21 20 19 19 18 18 17 17 18 19 18 17 16 16 14 14 14 14 13 13
36 36 37 37 36 36 36 36 35 35 34 32 31 30 29 28 28 28 27 25 24 24 23 22 21 19 19 19 19 19 19 20 20 19 18 18 17 16 15 15 15 15
36 35 36 36 36 37 37 37 37 36 35 33 32 31 30 29 29 29 28 27 26 26 25 25 24 22 20 20 20 20 20 20 21 21 20 19 19 19 18 17 17 17
35 35 35 36 37 37 38 38 38 37 37 36 34 32 31 30 30 29 29 28 27 27 27 27 26 25 23 22 21 21 20 20 21 22 22 22 21 21 20 20 20 20
35 35 35 36 37 38 38 38 37 36 37 37 36 34 33 31 30 29 29 29 29 29 29 29 28 27 26 24 23 22 22 21 21 22 23 23 23 23 23 23 22 22
34 35 36 36 36 36 37 37 36 35 34 35 36 35 35 33 31 30 30 30 31 30 30 30 30 29 28 27 26 25 24 23 23 23 24 24 25 24 24 24 24 24
35 36 35 35 35 35 35 35 34 34 34 34 34 33 34 34 33 32 32 31 31 31 30 31 30 30 29 29 28 27 26 26 25 25 26 26 26 26 25 25 24 24
35 35 35 34 35 35 35 35 34 34 35 35 34 33 33 34 34 34 33 33 32 31 31 30 30 30 31 30 30 29 28 28 27 27 27 27 27 27 27 26 25 25
35 35 34 35 35 34 35 35 35 35 35 35 35 35 35 35 34 34 33 33 33 32 32 31 31 32 32 32 32 31 31 30 29 29 29 28 28 28 28 28 27 27
36 36 35 35 35 35 36 36 35 35 34 34 35 36 35 35 34 33 33 33 33 33 32 32 32 33 34 34 34 33 32 32 31 30 30 30 29 29 29 29 29 28
35 35 35 35 36 37 36 36 36 35 35 35 35 34 35 35 34 34 34 34 33 33 33 33 34 35 35 35 35 34 33 32 32 32 31 31 31 30 31 31 30 30
36 35 35 36 38 39 40 40 38 37 36 35 35 35 35 34 34 35 35 34 34 33 33 34 35 35 35 35 35 34 34 33 33 33 32 32 32 32 32 32 31 31
39 38 38 38 38 39 40 41 40 38 37 37 36 36 35 34 35 36 36 35 35 34 35 35 35 36 36 35 35 35 34 34 34 34 34 33 33 33 33 33 33 32
36 36 36 38 39 38 37 36 37 38 39 39 37 35 34 34 35 36 36 36 36 36 36 37 37 37 37 36 35 35 35 34 34 35 35 35 35 34 34 34 33 33
27 28 30 34 36 36 34 33 33 35 36 37 36 35 35 35 35 35 35 36 37 37 37 37 39 39 38 37 37 36 35 35 35 35 36 36 36 35 35 34 34 33
21 24 28 31 32 32 32 33 33 33 34 33 33 33 34 34 34 34 35 36 37 36 36 37 39 40 39 39 38 37 36 35 35 36 36 36 37 36 36 35 35 34
24 25 28 30 31 31 32 33 34 34 33 31 30 31 32 33 34 35 36 36 36 35 36 37 40 40 39 40 39 38 37 35 36 37 37 37 38 37 37 36 36 36
25 27 29 30 30 30 32 33 33 32 32 31 31 32 33 35 35 35 35 36 36 36 37 39 40 40 39 40 40 39 38 37 37 38 37 37 38 38 37 37 37 36
20 25 29 30 30 31 31 31 30 31 31 30 31 33 34 34 34 33 34 35 36 38 38 39 41 41 39 40 41 40 39 38 38 37 37 37 37 37 37 37 37 37
15 19 25 28 30 31 31 30 30 30 30 29 31 33 33 33 33 34 35 36 36 37 38 39 41 41 40 41 41 40 40 39 38 37 37 37 37 36 36 36 36 37

ECMWFNIL_925_spd_075.txt.gz
Wind_Speed
32 31 30 29 29 28 26 25 24 23 22 19 17 15 14 13 12 12 13 14 14 14 13 12 10 9 8 8 7 7 6 6 5 6 6 7 7 7 7 7 7 7
34 33 32 31 30 30 29 27 25 24 24 22 19 16 15 14 13 13 13 14 15 15 14 13 12 11 10 9 9 8 8 7 6 6 6 7 7 8 8 7 8 8
35 34 34 33 32 31 30 29 28 26 24 23 22 19 16 15 14 13 13 13 14 15 15 14 14 13 11 11 10 10 10 9 8 7 7 6 7 8 8 7 7 8
36 35 35 34 33 32 31 30 29 27 25 25 24 21 18 16 15 14 14 13 14 14 14 14 14 14 13 12 11 11 11 11 11 10 8 7 7 7 8 8 7 8
36 36 36 35 34 33 31 31 30 29 28 26 25 24 21 18 17 17 15 14 14 14 14 14 14 14 14 13 12 12 12 12 12 13 11 9 8 8 8 8 8 8
37 37 36 35 35 34 32 31 31 30 29 27 26 26 24 21 19 19 18 16 15 15 14 14 14 15 15 14 14 14 13 12 12 14 14 12 10 9 9 9 9 9
36 36 36 35 34 34 33 33 32 31 30 28 27 27 26 24 22 21 20 19 18 17 16 15 15 15 15 15 15 15 15 14 14 15 16 15 14 12 11 10 10 10
32 33 35 35 32 31 33 33 32 33 31 29 28 27 27 26 25 23 22 21 20 20 19 18 17 16 16 16 16 16 16 15 15 16 16 16 16 15 14 13 12 12
29 30 32 33 31 29 30 31 31 32 33 31 29 27 27 28 26 25 24 22 21 21 21 20 19 18 18 18 17 17 17 16 16 16 17 17 17 17 15 14 14 13
27 27 28 29 29 28 29 29 27 28 31 32 29 26 27 28 28 26 25 23 22 22 22 22 21 20 20 20 20 19 18 18 17 18 18 17 17 17 16 15 15 14
26 26 25 27 28 27 27 28 26 24 28 32 29 26 27 28 28 28 27 26 25 24 24 23 23 22 22 21 21 21 21 20 20 19 19 19 19 19 18 17 17 16
25 25 26 26 28 27 26 26 26 24 26 31 32 30 29 29 29 29 29 29 29 27 26 26 25 24 24 24 23 22 23 22 22 22 21 21 21 20 20 20 19 18
24 26 26 26 27 29 28 26 27 27 27 30 32 33 32 31 30 31 32 32 31 30 29 28 27 26 26 26 25 24 25 24 23 23 23 23 23 22 21 20 20 19
27 25 25 27 29 30 31 29 28 28 29 30 31 33 33 33 32 33 33 33 33 32 32 31 30 29 29 28 28 27 27 26 26 25 24 23 24 24 22 21 21 20
29 26 25 29 32 32 34 33 30 30 31 31 32 33 33 32 31 31 32 33 34 34 34 33 32 32 32 32 31 30 29 28 27 27 26 24 24 24 24 24 23 22
31 32 30 30 34 36 37 36 33 32 32 34 35 35 33 33 32 31 30 31 33 34 34 33 33 34 35 35 34 33 32 30 30 29 28 27 26 25 25 25 25 24
32 36 34 33 35 38 38 37 35 32 32 35 36 34 35 35 34 33 31 29 30 32 33 33 35 36 38 38 37 35 34 32 32 31 30 29 28 27 26 25 25 25
32 33 34 35 36 37 37 37 36 33 32 33 32 32 34 34 33 33 34 31 28 29 30 32 35 38 39 38 38 38 36 35 32 30 28 28 28 27 27 26 24 23
29 30 32 33 34 35 35 33 32 31 31 31 30 29 29 31 31 32 35 34 30 28 29 30 32 37 39 39 38 38 37 36 34 30 26 26 27 28 28 27 25 24
18 21 23 26 29 31 31 29 28 29 29 28 26 25 26 30 32 30 31 34 33 31 31 30 30 34 38 38 38 38 37 36 36 32 27 26 28 29 29 28 28 27
8 11 14 17 20 24 25 26 26 27 28 26 24 23 25 30 32 28 27 31 33 32 31 30 31 34 37 38 38 37 36 36 36 34 30 26 28 31 32 31 30 29
7 9 12 15 16 18 20 23 24 26 28 27 25 23 23 24 27 27 27 29 31 31 30 30 32 35 37 38 38 37 36 35 36 37 34 29 27 30 33 33 32 31
7 9 11 14 16 18 20 21 22 24 25 25 24 24 23 23 23 25 27 28 29 29 30 31 34 37 38 39 39 37 36 36 36 37 37 33 30 29 31 33 34 34
7 8 9 12 14 18 21 22 22 23 23 23 23 24 25 25 24 24 25 26 27 29 31 33 35 37 39 40 40 38 37 37 38 38 37 35 33 31 30 32 35 36
9 8 8 9 12 15 20 23 23 23 23 23 24 25 25 26 25 24 24 25 27 29 31 33 34 36 37 38 39 39 37 38 38 37 35 33 32 31 29 31 34 37
11 10 8 8 10 13 18 22 23 23 23 23 24 25 25 26 26 26 26 26 26 27 29 32 33 34 36 38 39 38 37 38 39 37 35 34 32 30 28 28 30 34

ECMWFNIL_925_spd_078.txt.gz
Wind_Speed
17 16 16 15 15 14 13 12 11 11 11 10 9 8 8 7 6 7 8 8 9 9 8 8 8 7 6 6 6 5 4 5 5 5 5 6 6 6 6 6 6 6
19 17 16 16 15 15 14 13 12 11 11 10 10 8 7 8 7 7 8 8 9 9 9 9 8 8 7 6 7 6 5 5 5 5 5 6 6 6 6 7 7 7
20 19 18 18 17 16 15 14 13 12 11 11 11 10 9 8 8 8 8 9 9 9 9 10 9 9 9 7 7 7 6 6 6 5 5 6 6 6 6 6 7 7
22 21 20 19 18 16 15 15 14 13 13 12 11 11 11 10 9 8 9 9 9 9 9 10 10 10 9 9 8 8 7 7 7 6 5 5 5 6 6 6 6 6
23 22 21 20 18 17 15 15 15 14 14 14 12 12 12 11 10 9 9 10 10 10 10 10 10 10 10 10 9 9 8 8 8 8 7 7 6 6 6 6 6 6
21 22 21 20 19 18 17 17 16 15 15 15 14 13 13 13 13 12 11 11 10 10 10 10 10 10 10 10 10 10 9 8 8 9 9 9 8 7 7 6 7 7
20 21 21 21 20 19 19 18 17 16 16 15 15 15 14 14 14 13 13 12 11 11 10 10 10 10 10 10 11 10 10 9 8 8 9 9 9 9 8 7 7 7
20 20 21 21 21 20 20 19 18 17 17 16 16 16 15 15 15 15 14 14 13 13 12 12 11 11 10 10 11 11 11 10 10 10 10 10 10 10 10 9 8 8
20 20 20 21 21 21 21 20 19 18 18 18 18 17 16 16 16 16 15 15 15 14 13 13 13 13 12 11 11 11 11 11 10 10 10 11 11 11 11 11 10 10
20 20 20 21 22 21 21 21 20 19 19 19 19 18 17 17 17 17 16 16 16 15 15 15 14 14 13 13 13 12 12 12 11 10 11 10 11 11 11 11 12 12
20 20 20 21 21 21 21 21 20 19 18 19 19 19 18 17 17 17 18 18 18 17 17 16 16 15 15 14 14 13 13 13 12 12 12 11 11 11 11 12 12 13
20 20 21 22 22 21 21 21 20 20 19 19 19 19 19 19 18 18 18 19 20 19 18 18 17 17 17 16 15 15 14 14 13 13 13 12 12 12 12 12 13 13
19 20 20 21 21 21 21 20 20 20 20 19 19 19 20 20 19 19 19 20 21 20 19 19 18 18 18 18 17 16 16 15 15 14 14 13 13 13 13 13 14 14
19 19 19 20 20 20 20 20 20 20 20 20 19 19 20 20 20 20 20 21 21 21 21 20 19 19 19 19 19 18 18 17 16 16 16 15 15 15 14 14 15 15
20 19 19 19 19 19 20 20 20 20 20 20 19 20 20 20 20 20 20 20 21 21 21 21 21 21 20 20 20 19 19 19 18 18 17 17 16 16 16 16 16 16
20 20 19 18 18 19 20 20 20 19 19 20 20 20 19 19 20 20 21 21 20 20 21 21 22 22 23 24 24 22 20 19 19 19 18 18 18 17 17 17 17 17
18 19 20 20 19 19 19 20 20 19 19 19 20 20 20 19 19 20 21 21 21 21 21 22 22 23 24 27 29 29 25 21 19 19 19 19 19 19 18 18 18 18
18 17 19 20 20 20 20 19 19 19 19 19 20 20 20 20 20 21 22 22 22 22 22 22 23 23 25 28 30 32 31 27 22 19 19 19 19 20 20 19 19 19
18 18 19 19 19 20 20 19 18 19 20 20 20 20 20 20 21 21 22 22 22 23 23 23 23 23 25 28 30 32 33 31 27 22 21 20 20 20 20 20 20 19
15 17 19 19 19 19 18 19 19 19 21 21 20 19 19 20 21 22 22 23 23 23 24 24 24 24 25 27 30 31 31 31 29 25 23 22 22 20 20 20 20 20
11 14 18 18 18 17 17 18 19 20 20 20 19 19 19 20 21 21 22 23 23 24 24 24 25 26 27 28 30 30 30 30 30 27 25 24 23 23 22 22 21 21
8 11 13 14 16 17 17 18 19 20 19 18 18 18 19 19 20 20 21 22 23 24 24 24 25 26 28 30 31 32 30 29 30 28 26 25 25 24 24 24 23 23
7 9 11 12 13 15 16 17 17 17 17 17 17 18 18 19 20 20 20 21 22 23 24 25 26 27 29 31 32 32 31 31 31 28 25 25 26 25 25 25 25 25
7 8 9 11 12 13 14 15 14 15 17 17 16 17 18 19 20 21 20 21 22 23 24 25 26 27 29 32 33 33 33 33 31 27 24 25 25 25 26 26 27 27
10 9 8 9 11 12 13 12 11 14 18 19 19 19 19 19 20 22 22 22 22 23 24 26 27 26 28 30 33 33 34 35 31 25 23 25 24 24 26 27 27 29
13 11 10 9 10 11 12 12 12 17 22 23 23 22 21 21 21 22 23 24 24 25 25 26 27 27 28 29 32 32 33 35 32 26 24 25 24 24 25 25 26 26

ECMWFNIL_925_spd_084.txt.gz
Wind_Speed
18 18 17 16 15 14 14 14 14 14 14 15 15 15 15 14 15 15 14 13 12 11 10 10 9 8 7 8 9 7 7 8 7 8 8 7 7 7 7 8 7 6
19 19 18 17 16 15 15 15 14 14 14 14 14 15 14 13 13 14 13 14 13 11 11 10 9 9 7 8 9 7 7 8 7 7 8 8 8 8 8 8 7 7
20 19 19 18 17 16 16 15 15 14 14 14 14 14 14 13 14 14 14 14 13 12 11 11 10 10 9 9 9 9 8 8 8 7 8 8 8 8 8 8 8 8
22 21 20 19 18 18 17 16 16 15 14 14 14 13 14 14 15 15 14 14 13 12 12 12 11 11 11 9 9 10 9 8 8 8 8 9 9 9 9 8 8 8
22 21 21 20 19 19 19 17 17 17 15 14 14 14 13 14 15 14 14 14 13 13 12 12 12 11 11 11 10 11 10 8 9 9 8 9 9 9 9 9 8 8
22 22 22 21 20 21 20 19 18 18 17 16 16 15 13 13 14 14 14 14 13 13 13 13 13 12 12 12 12 11 10 9 10 10 9 9 9 9 9 9 9 8
21 22 22 21 20 21 20 20 20 19 18 17 17 17 16 15 14 14 14 14 14 13 13 13 14 14 13 13 13 12 11 10 10 11 11 10 9 9 8 8 9 9
22 22 22 22 21 21 21 20 20 20 20 19 18 18 18 17 16 16 15 15 14 14 14 14 15 15 14 14 14 14 13 11 11 12 12 11 10 10 9 8 8 9
22 22 21 23 22 21 21 20 20 20 20 20 19 18 19 19 18 18 17 17 16 15 15 15 16 16 15 14 15 15 14 13 12 13 13 12 11 11 10 10 9 9
20 24 22 22 23 22 22 21 20 20 21 20 19 18 19 19 19 19 20 19 18 17 17 16 16 17 16 15 15 15 15 14 13 13 13 13 12 12 12 11 11 11
23 22 24 23 22 21 22 23 21 20 20 21 19 18 19 20 20 20 20 22 21 19 18 18 17 17 17 16 16 16 16 15 14 14 14 14 14 13 13 13 13 12
25 24 21 23 23 22 20 21 21 21 20 20 20 19 19 19 21 21 20 22 23 21 20 20 19 18 18 18 17 16 17 16 15 15 15 15 15 14 14 14 14 14
21 21 19 15 15 19 21 20 20 20 20 21 21 20 19 18 20 22 22 22 23 23 21 21 22 20 20 20 19 17 17 17 17 16 16 16 16 15 15 15 15 15
14 14 16 18 14 11 14 17 19 19 19 21 22 21 20 20 19 21 22 22 21 22 22 21 22 23 21 21 21 20 18 18 18 18 18 17 17 17 16 16 17 16
13 14 17 19 15 11 10 10 14 18 18 18 21 22 21 19 19 20 21 22 21 21 22 21 21 22 23 23 23 22 21 19 19 20 19 19 19 19 18 18 18 17
3 7 12 15 16 16 13 9 9 10 11 10 12 17 20 20 20 19 19 21 22 22 22 22 21 22 23 24 24 24 24 22 21 20 20 21 20 20 20 20 19 19
6 4 1 4 7 10 12 11 10 8 8 8 7 8 11 14 18 20 20 19 21 23 23 22 22 22 24 26 26 26 25 24 24 23 22 23 23 22 21 21 20 20
8 9 8 6 4 2 2 6 10 11 13 12 9 9 10 10 13 17 20 21 20 21 22 23 24 23 24 27 29 29 28 27 26 25 24 24 24 25 24 23 23 22
11 10 10 9 8 7 5 4 6 9 12 13 14 13 13 14 15 15 17 21 23 23 22 22 24 26 26 28 30 31 32 31 29 26 26 25 25 26 26 26 25 25
13 11 10 9 8 9 9 9 8 7 10 12 14 14 15 17 19 19 18 19 22 26 26 24 23 25 27 29 31 32 33 35 34 31 28 27 27 26 27 27 27 27
14 11 8 7 7 8 9 9 8 7 9 11 14 15 15 17 19 21 23 22 21 23 26 27 26 25 25 27 30 33 34 35 37 35 31 29 29 28 27 26 27 27
13 10 8 8 8 7 7 8 7 7 8 10 12 14 16 19 21 22 25 27 25 24 25 27 28 27 28 28 27 30 33 36 38 38 36 32 30 30 29 29 28 28
12 10 10 9 9 8 8 7 6 7 8 10 12 14 15 19 21 22 23 24 26 26 25 26 27 27 29 30 30 29 31 35 38 38 36 34 32 31 30 30 30 31
12 12 11 10 9 9 10 10 9 7 8 10 12 13 15 16 17 18 19 20 22 24 25 26 27 28 28 30 31 31 31 34 37 37 34 33 32 31 31 31 31 31
10 9 10 10 9 10 11 11 11 9 8 10 11 13 15 16 16 16 17 18 20 22 23 24 26 28 29 30 31 32 32 33 34 35 33 32 31 30 29 30 31 31
7 7 9 10 10 11 11 11 12 11 10 10 11 12 14 16 17 17 18 19 20 21 23 24 26 26 26 27 29 30 32 35 34 33 32 32 30 28 28 27 28 30

ECMWFNIL_925_spd_087.txt.gz
Wind_Speed
20 19 18 17 18 19 19 18 18 18 18 17 16 14 16 16 15 15 14 14 15 13 12 12 12 11 11 12 13 11 11 12 10 10 10 10 10 10 9 8 8 7
21 20 19 18 18 19 19 18 19 18 17 17 16 15 15 16 17 17 16 15 15 13 12 13 13 11 11 13 13 11 11 12 11 10 10 10 10 10 9 9 8 7
22 21 22 20 19 19 20 19 19 18 18 17 16 15 15 15 16 17 17 16 15 14 12 13 13 12 12 12 12 12 11 11 12 10 10 11 11 10 10 9 9 8
22 22 23 22 20 19 19 20 19 18 19 18 16 16 16 15 15 16 18 17 16 15 13 13 13 12 12 12 12 13 12 11 12 10 10 11 12 11 10 10 10 9
24 23 23 23 21 20 20 20 19 19 19 18 17 16 16 16 15 16 18 19 16 16 16 14 13 12 13 13 12 12 12 11 11 10 10 11 11 12 11 11 10 9
25 24 23 24 23 22 21 21 21 20 20 18 16 17 17 17 18 17 18 19 17 17 18 16 14 13 13 13 12 12 12 11 11 11 11 12 11 11 11 11 11 9
26 26 24 24 23 23 22 22 22 21 21 19 17 18 19 18 19 20 19 19 17 17 18 17 15 15 14 14 13 13 12 11 11 12 12 12 11 12 12 11 12 12
26 26 25 24 24 23 23 22 23 22 21 20 19 19 19 18 20 21 19 19 18 18 18 18 17 16 15 15 15 14 14 13 12 13 13 13 12 13 14 12 10 12
26 26 26 26 25 23 23 23 23 23 21 21 20 21 21 20 20 21 19 19 19 19 19 19 19 18 17 17 16 15 15 15 14 14 14 15 14 14 14 13 10 11
23 25 24 25 25 23 22 23 23 23 23 22 21 21 22 22 22 21 20 20 20 20 20 20 20 20 19 19 18 17 16 16 15 15 15 16 16 15 14 14 13 12
17 20 20 20 23 21 20 22 23 23 23 23 23 22 23 23 24 23 22 22 22 21 20 20 20 21 20 19 19 18 17 16 15 16 16 16 16 15 15 15 15 15
17 20 20 19 20 19 16 16 19 23 25 24 24 24 23 24 25 25 24 24 24 22 21 21 20 20 21 20 19 19 18 17 17 16 16 16 16 15 15 16 16 16
16 18 18 17 19 20 16 10 10 16 24 27 27 25 25 25 26 27 26 25 25 25 24 23 21 20 20 21 20 19 19 19 19 18 18 18 18 17 17 17 18 18
11 12 12 12 15 18 18 14 10 10 12 22 29 29 27 26 27 28 29 27 26 27 26 25 24 23 22 22 21 20 20 21 21 20 20 20 20 20 19 19 19 19
8 10 11 9 11 14 17 17 15 13 11 11 22 30 30 28 27 28 30 31 29 28 28 28 27 27 26 25 24 23 23 23 22 22 22 22 22 22 21 21 20 20
3 4 7 7 8 11 15 15 16 15 12 8 11 22 26 27 27 25 27 32 32 29 29 30 29 29 28 28 28 28 27 26 25 24 23 24 24 23 23 22 22 21
10 8 6 4 4 6 9 11 12 12 12 9 7 14 20 22 23 21 20 26 32 32 31 30 30 29 28 29 29 29 29 29 29 28 26 25 25 25 25 24 23 23
10 10 10 9 8 6 4 6 8 9 9 9 7 10 15 18 20 19 14 14 20 27 30 31 31 30 29 28 28 29 30 30 30 30 29 28 26 26 26 26 25 25
5 6 6 6 5 5 3 3 6 7 7 7 7 8 10 13 15 17 15 12 11 15 20 24 27 29 29 28 26 27 29 30 31 31 31 31 30 28 27 27 28 28
2 3 2 1 1 2 2 2 3 5 5 5 6 7 9 11 12 14 16 16 15 14 14 14 16 20 24 26 27 28 29 30 32 32 32 32 32 31 30 29 29 30
7 7 5 3 3 5 5 5 5 5 4 4 5 6 8 10 11 14 15 17 18 18 18 17 14 11 12 14 18 22 26 30 33 35 33 33 32 32 32 32 31 30
11 11 9 6 6 7 6 5 5 5 5 4 5 7 8 10 11 13 14 16 17 17 18 19 18 14 12 10 10 12 17 23 31 34 33 31 32 32 32 32 32 31
11 11 9 7 7 8 8 6 5 5 4 4 6 7 9 10 11 11 12 14 15 15 15 16 16 16 16 15 13 13 13 15 19 24 26 27 29 31 32 32 31 31
8 8 7 5 5 6 6 6 5 5 4 4 4 5 7 8 9 9 10 10 11 11 11 10 9 12 16 19 21 21 19 16 16 18 21 26 29 30 31 32 33 33
6 6 6 4 3 3 4 5 5 5 5 5 5 5 6 6 7 8 9 9 9 9 9 9 10 12 14 18 22 22 20 20 21 21 21 24 28 30 30 31 33 34
6 6 8 7 6 6 6 6 6 6 5 5 5 6 7 7 7 8 9 9 9 10 10 12 15 17 18 20 20 18 17 18 20 22 24 25 25 25 25 25 28 32

ECMWFNIL_925_spd_090.txt.gz
Wind_Speed
23 22 21 19 20 20 19 19 20 21 21 19 17 17 16 15 15 16 15 13 14 14 12 11 11 11 11 11 10 10 10 9 9 9 9 10 11 11 11 10 9 9
25 23 21 19 20 21 20 19 19 20 21 20 18 17 16 15 16 17 16 15 15 14 13 12 11 11 11 11 10 10 10 9 10 10 9 10 11 11 11 11 9 8
26 24 22 20 20 21 20 19 19 19 19 19 19 17 15 15 16 18 17 15 15 14 13 12 12 11 11 10 11 11 11 10 11 11 10 10 10 11 11 10 10 9
28 26 23 21 20 19 20 20 19 19 18 18 18 17 16 14 15 17 17 16 14 14 13 12 11 11 11 10 11 12 12 11 11 12 11 10 11 12 11 10 10 10
27 27 24 22 20 19 19 20 20 19 18 18 17 16 15 15 15 14 15 15 15 13 12 12 11 11 11 12 12 13 13 12 12 12 13 12 11 12 12 12 11 11
25 26 25 23 21 20 19 20 20 19 18 18 17 16 15 15 15 13 12 14 15 14 14 13 12 11 11 12 13 13 12 12 12 12 13 13 11 11 12 12 12 12
25 25 24 24 22 21 21 20 20 20 19 18 18 18 17 15 15 14 13 14 15 16 15 14 14 13 12 12 13 13 12 11 10 11 12 13 12 11 11 12 12 12
25 24 24 24 23 23 23 21 21 21 20 20 20 20 19 18 17 17 16 16 16 17 16 15 15 15 13 12 12 13 12 12 11 11 12 12 13 13 12 11 12 12
24 25 24 23 24 24 25 24 23 23 22 22 22 21 20 21 20 20 19 19 18 18 18 17 17 17 16 14 14 13 13 12 12 12 12 13 13 14 13 12 13 14
20 23 24 25 25 24 25 25 24 24 24 24 24 23 22 22 22 21 21 21 21 20 19 19 19 19 18 17 16 15 14 14 13 13 14 14 14 14 14 13 14 15
15 19 21 24 26 25 24 25 24 24 25 25 26 25 24 23 23 22 22 23 24 22 21 20 20 21 21 21 19 16 16 15 15 15 15 15 16 16 16 16 15 16
18 21 19 18 23 25 24 23 22 22 23 25 26 26 25 24 25 24 23 24 24 23 22 21 21 22 22 22 22 20 18 18 17 17 16 16 17 17 17 17 17 16
19 22 20 16 17 21 23 21 18 16 16 19 23 27 26 25 26 27 26 25 25 24 23 23 22 22 23 23 23 22 21 20 19 19 19 18 18 19 18 17 17 17
14 16 17 17 17 19 20 19 17 15 13 13 16 23 27 27 27 28 28 27 27 26 25 24 23 23 23 23 23 23 23 23 21 21 21 20 20 20 19 19 19 19
13 15 17 18 19 21 21 19 18 17 15 12 12 16 24 29 29 29 29 30 29 29 27 26 25 24 24 24 23 23 23 24 23 22 22 22 22 22 21 21 21 20
15 17 19 18 18 19 20 20 18 17 17 14 11 11 18 27 30 29 29 30 31 31 30 29 28 27 26 25 25 25 24 24 24 23 22 23 24 24 24 23 22 22
15 16 16 17 15 14 17 19 19 18 17 15 12 10 12 20 25 26 27 28 30 31 31 31 30 29 28 27 27 27 27 26 26 26 25 24 25 25 25 25 25 25
12 13 14 14 14 12 11 13 15 16 15 14 13 11 10 11 15 18 20 22 25 27 29 30 30 30 29 29 29 29 29 28 28 28 27 27 27 27 27 27 27 27
10 11 12 12 12 11 8 7 8 9 10 11 12 12 11 9 9 11 13 14 15 17 19 22 24 27 28 29 29 29 29 29 29 29 30 30 30 30 29 29 29 29
7 7 8 9 9 7 6 5 4 4 5 6 7 9 10 11 10 10 11 11 11 11 12 14 16 20 24 27 28 29 28 29 30 30 31 31 31 31 31 31 31 31
8 7 7 6 6 5 4 3 2 1 1 2 3 4 6 9 10 11 10 10 10 10 10 12 13 15 17 20 24 26 27 29 30 31 31 31 31 31 31 31 32 32
10 9 9 8 7 6 5 5 4 2 1 1 2 3 4 5 7 9 9 8 8 8 8 11 13 14 14 15 16 18 20 22 25 27 29 30 31 31 32 32 32 32
12 12 11 9 8 7 6 5 4 3 2 1 1 2 3 3 4 5 5 3 3 3 4 7 10 11 11 11 12 13 15 17 19 21 22 24 26 28 31 33 34 34
11 12 12 10 9 8 7 5 3 2 2 2 2 3 3 3 4 5 5 6 6 6 6 6 6 6 7 7 8 9 12 14 16 18 19 20 21 22 24 27 31 33
12 11 11 11 10 9 8 7 5 4 4 5 5 5 6 4 3 5 5 4 5 5 6 7 6 6 9 12 13 13 13 14 15 17 19 21 22 22 23 24 25 28
12 11 11 11 10 10 9 8 8 6 5 5 6 6 7 5 3 4 3 1 4 6 10 10 8 7 9 10 13 15 16 17 17 19 20 23 24 24 25 25 26 28

ECMWFNIL_925_spd_093.txt.gz
Wind_Speed
21 21 21 19 18 17 17 17 17 17 16 16 17 17 16 14 13 13 13 12 12 11 11 11 10 9 10 10 9 9 9 9 8 8 8 7 7 8 8 8 7 7
23 21 19 19 18 17 17 16 16 16 16 15 16 16 15 14 13 13 13 12 12 11 10 11 10 9 10 11 11 10 10 10 9 8 8 8 8 8 9 8 7 7
24 22 20 19 18 17 17 17 16 15 15 15 15 15 14 13 13 13 13 13 12 11 11 11 11 10 10 11 11 11 11 10 10 9 9 9 8 8 8 7 7 6
25 23 22 20 19 17 16 18 19 17 16 15 15 14 14 13 13 14 14 14 14 12 12 13 12 11 11 11 12 12 11 11 10 10 10 10 9 9 8 8 8 7
26 25 23 22 20 18 17 18 20 20 18 17 15 15 15 14 14 15 15 16 16 14 13 13 13 12 11 12 12 12 11 12 12 11 11 11 10 10 9 9 9 9
28 26 25 24 22 19 18 18 19 20 19 17 16 15 15 15 15 15 16 17 17 16 15 14 14 13 12 13 13 13 12 12 13 13 12 12 11 11 10 10 10 10
28 27 26 26 24 21 19 18 19 20 20 18 16 16 16 16 16 16 16 17 18 18 17 16 15 14 13 13 13 13 14 13 13 13 13 12 11 12 12 11 10 10
27 27 26 26 26 24 20 19 19 19 19 19 18 17 16 16 16 16 16 16 18 19 18 18 17 15 14 13 13 13 14 13 13 13 13 12 12 12 12 11 11 11
26 25 25 24 25 25 23 21 19 19 18 19 19 18 17 17 17 17 17 17 17 18 19 19 18 15 14 14 14 13 12 13 13 12 13 13 13 13 12 11 11 11
25 24 24 24 24 25 25 23 22 20 19 18 18 18 18 18 17 18 18 18 18 19 19 19 18 16 15 15 14 14 13 13 13 13 13 14 14 14 12 10 11 11
25 24 24 24 25 25 24 24 22 21 21 20 19 19 20 20 19 19 19 20 20 20 19 19 18 17 17 16 16 15 15 14 14 14 14 14 15 15 14 13 12 13
25 26 26 25 25 25 24 23 22 21 20 21 21 20 20 21 21 21 20 20 20 20 20 20 19 18 18 18 18 17 17 17 16 16 15 15 15 15 15 15 15 15
27 26 26 26 25 25 24 23 22 21 20 20 20 21 21 22 22 22 21 20 20 20 20 20 20 20 19 19 18 19 19 19 19 19 19 18 17 17 16 16 17 17
27 25 24 24 24 24 24 23 22 21 20 19 19 19 20 22 23 23 23 22 21 21 22 21 21 21 21 20 20 20 20 21 21 22 22 21 20 19 18 18 18 18
26 24 22 22 22 23 23 22 21 20 19 17 16 16 17 19 21 22 24 24 24 23 23 23 23 24 24 23 22 22 22 23 23 23 23 23 22 21 20 19 19 19
24 22 20 20 21 23 23 23 22 21 19 18 16 15 15 15 17 20 23 25 26 26 25 25 26 27 27 26 25 24 24 24 24 24 24 24 24 23 22 21 20 21
18 18 18 19 21 21 22 23 24 22 21 19 18 16 15 15 15 18 20 23 26 27 27 27 28 29 28 28 27 27 26 26 26 25 25 25 25 25 24 24 22 22
12 13 15 17 18 18 19 21 23 23 22 20 18 17 16 16 15 16 18 21 24 26 27 27 28 28 29 29 30 29 28 28 27 27 26 25 26 26 26 26 26 25
8 9 10 13 14 14 16 17 19 20 21 20 19 17 16 16 15 15 16 18 21 23 25 26 27 27 27 28 30 30 29 28 28 28 28 28 27 27 27 27 28 28
7 6 5 6 7 8 9 11 12 13 14 14 14 14 13 13 12 12 11 12 13 14 17 20 22 23 24 25 27 29 29 28 28 28 28 29 29 29 29 29 29 29
7 7 7 7 6 5 5 5 6 6 6 6 6 6 6 7 7 7 8 9 9 9 9 11 13 15 17 18 20 22 23 25 26 27 28 29 29 30 30 30 30 29
9 8 7 7 5 4 4 5 5 6 7 7 6 5 3 2 2 5 8 10 11 10 9 8 8 9 10 12 13 14 16 18 20 23 25 27 28 29 30 30 31 31
14 14 12 10 8 5 5 5 6 6 8 9 9 8 7 5 2 1 5 8 9 7 4 4 4 5 6 6 8 9 10 12 13 15 18 20 23 24 25 26 26 27
15 16 15 13 11 9 8 8 8 7 6 5 6 6 5 4 2 3 5 7 6 5 3 2 3 4 5 6 5 6 8 9 11 13 14 16 18 19 19 20 21 22
14 15 15 13 11 10 10 10 10 8 7 6 5 5 5 3 1 5 7 7 4 4 4 4 5 6 5 5 5 6 8 10 11 13 15 16 17 18 18 19 20 20
13 12 13 13 13 12 13 12 11 9 7 7 6 4 4 3 2 6 9 6 2 1 1 2 4 6 4 5 6 7 9 10 11 13 15 16 16 16 17 18 18 18

ECMWFNIL_925_spd_096.txt.gz
Wind_Speed
23 21 20 20 19 19 17 16 15 15 15 14 14 13 13 13 11 12 12 11 11 11 11 10 9 8 7 7 8 7 6 6 5 4 4 4 4 4 4 5 4 4
25 23 21 20 19 19 17 16 15 15 14 14 13 13 12 13 12 11 12 12 12 11 10 10 10 9 8 8 8 8 8 7 6 5 5 4 4 4 4 4 4 3
26 24 22 20 19 18 17 16 15 15 14 14 13 13 12 13 13 12 12 12 12 11 10 10 10 10 9 8 8 9 9 8 7 6 6 6 6 5 4 4 3 3
27 24 22 20 19 17 16 16 15 15 14 14 13 12 12 12 13 13 12 12 13 12 11 11 11 11 9 9 9 9 10 9 9 8 8 7 7 6 5 4 4 3
28 24 21 21 20 18 17 16 16 14 14 14 13 12 12 12 13 12 12 12 13 13 12 11 11 11 10 9 9 10 10 10 10 9 9 9 8 7 6 6 5 4
28 25 22 21 21 20 19 18 16 15 14 14 14 13 12 12 13 12 12 12 12 13 13 12 11 11 10 10 10 10 11 11 11 10 10 10 9 8 8 7 7 5
28 27 24 22 22 21 21 20 18 17 15 14 14 14 13 12 13 12 12 12 12 12 13 13 12 11 11 11 11 11 12 12 12 11 11 12 11 10 9 8 8 7
28 28 26 24 23 23 23 22 21 19 16 14 15 15 14 13 12 12 12 12 12 12 13 13 13 13 13 12 13 12 12 12 12 12 12 12 12 12 10 9 8 8
28 27 26 25 25 25 24 23 23 21 17 15 15 15 15 13 12 12 12 12 12 12 13 13 14 14 14 14 14 13 13 12 12 12 13 13 13 12 10 9 9 9
28 27 26 26 25 25 25 25 24 22 19 17 16 16 16 15 14 13 13 13 13 13 13 13 13 14 14 14 14 14 14 13 12 12 13 12 12 12 11 10 10 10
27 27 27 26 25 24 24 24 24 23 21 18 17 17 17 16 15 15 15 15 14 14 14 14 13 13 14 14 14 14 14 14 13 13 13 13 13 12 12 12 11 11
25 26 26 26 25 24 24 24 24 24 23 21 19 18 18 17 17 16 17 16 15 14 14 14 14 14 14 15 14 14 14 14 14 13 13 13 13 13 12 12 12 12
24 25 25 26 25 24 23 23 23 23 23 22 21 20 20 19 19 19 18 18 17 15 14 14 14 15 15 16 15 15 15 15 15 14 14 14 14 14 13 13 13 13
20 20 20 21 23 24 23 23 23 23 22 21 21 20 20 20 20 20 20 19 18 17 16 15 15 15 15 16 16 16 16 16 15 15 15 15 15 15 15 15 15 14
17 18 17 16 17 19 21 22 23 23 22 22 21 21 20 19 18 18 18 19 20 19 18 18 17 17 16 15 16 16 17 17 16 16 16 17 17 17 17 17 17 16
19 20 20 19 18 16 16 18 20 22 21 21 20 20 19 17 16 15 15 16 18 19 19 19 19 18 17 17 17 17 17 18 18 18 17 17 18 18 18 18 18 18
19 18 18 20 21 20 17 16 16 18 19 20 19 19 17 15 13 14 14 14 15 17 18 18 19 18 18 18 18 18 19 19 20 20 19 19 19 19 20 19 19 19
18 17 15 16 18 20 21 18 15 13 14 15 14 12 14 15 14 13 13 13 14 15 16 18 18 18 18 18 18 18 19 20 20 21 21 20 20 20 21 21 20 20
15 15 14 13 14 16 16 15 14 11 11 12 10 8 8 10 12 13 13 12 13 14 15 16 17 17 18 18 18 18 19 19 20 21 21 21 21 21 21 22 22 22
10 10 11 12 12 12 12 11 12 10 7 11 14 13 12 10 10 11 12 11 11 11 12 13 14 15 16 17 18 18 19 19 20 20 20 20 20 20 21 21 22 22
13 13 13 13 12 10 10 9 9 11 12 12 13 16 17 16 13 10 10 10 10 10 9 9 9 10 11 12 13 15 15 17 18 19 19 20 20 20 21 21 22 22
17 16 15 13 12 12 11 10 8 8 11 12 14 15 16 15 12 10 10 10 10 9 8 6 5 5 5 6 7 8 8 9 11 12 14 15 16 17 18 18 19 19
17 18 17 15 15 15 14 13 12 10 8 7 9 11 9 8 8 8 8 9 9 7 5 4 4 4 3 4 4 5 5 5 5 6 7 7 8 8 9 10 10 11
15 16 16 16 16 16 14 13 12 11 8 7 6 6 4 3 2 2 3 5 6 5 3 4 5 5 4 3 3 4 4 5 5 6 6 6 6 6 7 7 8 9
14 13 13 14 15 14 12 11 11 10 9 7 7 7 5 4 4 3 1 1 1 3 3 4 4 3 2 2 2 3 4 5 6 7 7 7 8 8 9 9 9 9
17 16 14 15 15 13 10 8 8 8 8 7 5 5 4 4 5 2 1 2 2 4 4 4 3 1 0 2 2 3 4 4 4 5 6 7 8 8 8 9 8 8

ECMWFNIL_925_spd_099.txt.gz
Wind_Speed
21 20 18 16 14 12 11 11 11 10 10 10 10 9 10 10 9 10 10 10 10 9 8 7 7 7 7 7 7 7 6 5 4 5 4 4 4 3 3 3 3 3
22 21 19 17 15 13 12 11 10 10 10 9 9 9 9 9 8 9 10 10 10 9 8 8 8 8 7 7 8 8 7 6 5 5 5 4 4 4 3 3 3 3
24 23 21 19 17 14 12 11 10 10 9 9 9 9 9 8 8 9 9 9 9 9 8 8 8 8 8 8 8 7 7 7 6 5 5 5 5 4 4 3 3 3
25 24 23 21 19 16 14 12 11 10 9 8 7 7 8 8 8 8 9 9 9 9 9 9 8 8 9 9 8 7 7 7 7 7 6 6 6 5 4 4 4 4
26 25 24 22 21 19 16 14 13 12 10 8 7 7 7 7 8 9 9 9 9 9 9 9 9 9 9 9 8 8 7 7 7 8 7 7 6 6 5 5 5 5
27 26 25 24 23 20 18 16 14 13 11 9 8 7 7 7 8 9 9 9 9 8 9 9 9 9 8 9 9 8 8 7 7 8 8 7 7 6 6 6 6 6
26 26 25 24 23 21 19 17 16 14 12 11 9 8 8 7 7 8 9 9 8 8 8 9 9 9 9 9 9 9 8 8 8 9 9 8 8 8 7 7 8 8
25 24 25 24 22 20 18 18 18 16 14 13 10 9 9 8 8 8 8 8 8 8 8 8 9 9 9 9 9 10 9 8 9 9 9 9 8 8 8 8 8 9
24 22 22 23 21 18 18 17 17 17 16 15 12 10 9 10 9 8 8 8 8 8 8 8 8 9 9 10 10 11 10 9 9 9 9 9 9 9 8 8 8 8
22 23 21 21 20 18 18 17 16 15 16 16 13 11 10 10 10 9 9 8 8 8 8 8 8 9 9 10 11 11 11 11 10 10 9 9 9 9 8 8 7 8
18 20 19 20 20 18 18 18 16 15 15 15 14 12 11 11 11 11 10 9 9 9 9 9 9 10 10 10 11 11 12 11 11 11 10 9 9 9 9 9 8 8
19 17 18 19 20 18 17 17 16 15 14 15 14 13 12 11 11 12 11 10 10 9 10 10 10 11 12 12 12 12 12 12 12 11 11 10 10 10 9 9 9 9
22 20 20 20 20 18 17 16 16 15 14 13 13 13 13 12 12 12 13 12 11 11 11 11 12 12 13 14 14 14 14 13 12 12 11 11 11 11 10 10 10 10
21 22 22 22 21 20 19 16 15 14 14 13 13 13 13 13 12 12 13 13 14 14 14 13 13 14 14 15 16 16 16 15 14 13 12 11 12 12 11 11 11 10
18 20 21 22 22 22 21 19 15 14 13 13 14 13 12 12 12 11 12 12 14 15 16 15 15 15 15 15 15 16 16 15 15 15 13 12 12 12 12 12 12 11
19 20 20 20 21 22 22 21 19 17 15 14 13 13 13 13 13 12 12 12 13 15 16 16 16 16 15 15 15 16 16 16 16 16 16 15 15 14 13 13 12 11
21 20 19 19 21 22 21 20 20 19 18 17 16 15 16 16 15 14 13 13 13 13 14 14 15 15 14 14 14 15 16 17 17 17 17 17 17 16 15 14 12 12
22 21 20 20 21 22 21 19 19 19 19 20 19 18 17 15 15 15 14 13 13 13 12 13 13 13 13 13 14 15 16 17 16 15 15 16 16 16 15 14 13 12
20 20 22 24 24 23 21 19 18 18 19 19 20 19 17 16 15 14 14 13 12 12 12 11 12 14 15 14 14 14 15 16 16 14 13 13 13 14 14 14 14 13
21 22 23 23 22 21 21 21 19 18 19 19 19 19 19 17 15 13 13 13 12 13 13 11 11 14 15 14 14 14 14 15 16 16 14 13 13 13 12 12 12 13
18 21 21 20 18 17 19 20 18 18 20 20 18 19 20 19 15 11 10 9 8 8 8 7 10 12 12 12 12 13 13 14 15 16 14 13 12 12 13 13 13 14
9 10 13 14 15 15 17 18 18 18 18 18 16 15 16 16 13 9 7 8 7 5 3 2 4 5 5 7 9 9 10 11 13 14 14 12 11 11 12 12 12 12
15 13 10 8 10 13 14 16 16 14 13 12 10 9 9 11 10 9 11 13 12 10 8 7 5 3 2 3 5 6 6 7 8 9 9 8 8 8 7 7 6 7
16 16 14 12 11 10 10 10 11 10 8 9 9 9 9 9 9 9 11 12 10 8 8 8 8 6 3 2 3 4 5 5 5 5 5 5 4 4 3 3 3 4
14 15 14 12 11 9 8 8 9 9 10 11 12 12 11 9 8 8 7 6 6 7 7 6 6 5 4 3 3 4 4 3 3 4 5 5 4 4 4 3 3 3
15 14 13 11 10 8 7 7 7 7 8 10 11 11 10 9 9 9 9 7 6 6 7 7 6 4 3 2 1 2 2 2 2 3 4 4 4 5 4 4 3 3

ECMWFNIL_925_spd_102.txt.gz
Wind_Speed
12 11 10 10 9 7 7 6 6 5 5 5 5 4 5 5 6 6 7 7 7 7 7 7 7 7 6 6 6 5 5 5 4 4 4 4 4 4 4 4 4 4
13 12 11 10 9 9 8 7 6 6 5 5 5 4 4 5 6 6 7 7 7 7 7 7 7 7 7 6 6 6 6 5 5 5 4 4 4 5 5 5 5 5
14 13 12 12 11 10 10 8 7 6 6 6 6 5 5 6 6 7 7 7 7 6 7 7 7 7 7 6 6 6 6 6 6 5 4 4 5 5 5 5 5 5
15 14 13 13 12 11 10 9 8 8 7 6 6 6 6 6 6 7 7 7 7 6 6 6 6 6 6 6 6 6 6 6 6 5 4 5 5 5 6 5 5 4
14 14 14 13 12 11 10 10 9 8 8 7 7 6 6 6 7 7 8 8 8 7 7 7 7 6 6 6 6 6 6 6 7 6 6 5 5 6 6 5 5 5
14 14 14 13 12 12 11 11 10 9 8 8 7 7 7 7 7 7 8 8 8 8 8 8 8 7 7 7 7 6 6 6 5 6 6 6 6 6 6 5 5 5
15 15 14 14 13 13 13 12 11 10 9 8 8 7 7 7 8 8 8 8 8 8 8 7 8 8 7 7 7 7 7 6 5 4 5 6 5 5 6 5 5 5
16 15 15 14 14 14 14 13 12 11 10 9 8 8 8 8 8 8 8 9 8 8 8 8 8 8 9 8 8 8 7 7 6 5 6 6 5 5 6 6 5 6
16 15 14 14 14 15 15 14 13 12 12 11 10 9 9 9 9 9 9 9 9 9 8 8 9 9 9 9 9 8 8 7 6 6 6 6 6 6 6 6 6 6
15 15 15 14 14 14 15 15 14 13 13 13 12 11 10 10 10 9 9 9 9 9 9 9 9 9 9 9 9 9 9 8 7 7 7 6 6 6 6 6 6 6
15 15 15 15 14 14 15 15 14 14 14 14 14 13 11 11 11 10 10 10 10 10 10 10 9 9 9 9 9 9 9 9 8 8 8 7 7 7 7 6 6 6
15 15 14 15 15 14 14 14 14 14 14 14 14 14 13 12 12 12 11 11 11 11 10 10 10 9 9 9 9 9 9 9 8 8 9 9 9 8 8 8 7 7
15 15 14 14 14 14 14 14 14 14 14 14 14 14 14 14 14 13 12 12 12 12 11 11 10 10 10 10 9 9 9 9 8 8 9 9 9 9 9 9 8 8
14 14 13 13 13 13 13 13 13 14 14 13 13 14 15 15 15 14 13 13 13 12 12 12 11 11 11 11 10 10 10 9 9 9 9 9 9 9 9 9 9 9
14 13 12 12 13 13 13 14 14 13 13 13 13 14 14 15 15 15 14 14 13 13 13 13 13 12 12 12 11 11 10 10 10 10 10 9 9 9 9 9 9 9
17 15 13 12 12 12 13 13 14 14 14 14 13 14 14 14 14 14 15 14 14 14 14 14 14 13 13 13 13 11 10 10 10 10 9 9 9 9 9 9 9 10
19 18 16 14 13 12 11 12 13 13 13 14 14 13 13 13 14 14 15 14 14 14 14 15 14 13 14 15 14 12 11 10 10 10 10 10 10 10 9 9 10 10
21 19 19 18 17 14 11 11 12 12 13 14 14 13 13 13 14 14 14 14 14 14 15 15 13 12 13 13 12 13 13 12 11 11 11 11 11 11 10 10 10 10
20 18 18 19 19 19 16 12 10 10 12 14 14 14 13 13 15 15 14 14 14 13 13 13 10 9 12 12 11 12 12 12 12 12 12 11 11 10 10 10 9 10
17 17 17 17 18 20 20 17 13 11 12 13 12 12 12 13 14 15 13 14 13 13 13 10 7 7 10 11 12 12 12 13 13 12 13 13 11 11 10 10 9 9
16 18 19 18 18 18 18 17 16 14 14 14 12 10 11 12 13 13 14 14 14 14 12 9 9 11 11 12 12 12 12 13 13 13 13 13 12 11 10 10 9 9
10 14 16 17 18 17 16 16 16 15 15 15 13 11 10 11 13 14 14 13 13 14 10 6 9 12 12 11 12 11 11 11 11 12 12 12 12 10 10 9 8 8
2 5 8 10 12 13 15 18 20 20 18 17 16 15 13 13 14 15 12 10 10 10 8 6 6 9 9 10 10 9 8 7 8 9 9 10 10 8 7 7 6 6
9 8 8 7 7 6 7 12 17 21 21 19 16 15 14 13 13 12 8 9 11 9 8 6 6 7 7 8 8 8 8 7 6 7 7 7 7 7 6 6 5 6
13 13 12 11 11 10 8 6 8 14 19 18 15 14 13 13 12 9 6 7 9 9 7 5 5 5 5 6 6 7 8 7 5 5 6 7 7 6 6 5 4 5
13 13 13 12 11 10 10 9 8 6 8 10 12 12 12 12 11 10 8 8 8 9 7 6 6 5 3 3 3 4 5 5 3 4 6 7 7 6 6 6 4 2

ECMWFNIL_925_spd_105.txt.gz
Wind_Speed
10 10 9 9 8 7 7 8 7 7 7 7 7 7 7 7 8 8 9 9 9 8 8 7 7 6 6 6 6 5 4 5 5 4 4 5 5 5 4 4 4 4
10 9 9 9 9 7 7 8 7 6 6 6 5 6 7 7 8 8 9 9 9 9 8 8 7 7 6 5 5 6 5 5 6 5 4 5 5 5 5 4 5 4
11 10 10 10 10 10 9 8 7 6 7 7 6 6 7 8 8 9 9 9 9 9 9 8 8 7 6 5 5 6 6 5 6 5 3 4 6 6 5 5 5 5
13 12 12 11 10 10 10 9 9 8 8 8 7 7 7 7 8 9 9 9 9 8 8 9 8 8 7 6 6 6 6 5 6 5 3 4 5 6 6 6 5 5
14 13 13 12 11 10 10 10 10 10 9 8 8 8 7 5 7 9 9 9 9 9 9 9 9 9 8 8 7 7 7 6 6 6 5 5 5 6 6 5 5 5
14 14 13 13 11 11 11 11 10 10 10 9 9 9 8 8 8 9 9 10 10 10 10 10 10 10 9 9 8 8 8 8 7 8 8 6 6 6 6 4 4 5
14 14 14 13 13 12 12 11 11 11 10 10 10 10 9 9 9 9 9 10 10 10 10 10 10 10 10 10 9 9 9 8 8 10 9 6 6 6 6 5 4 5
14 14 14 14 14 14 14 13 13 12 11 11 12 11 10 10 10 10 10 10 10 9 9 9 9 10 11 11 10 9 10 9 9 10 9 7 7 6 6 6 5 6
14 14 14 15 15 15 15 15 15 14 13 13 12 12 12 11 11 10 10 10 9 9 9 9 9 10 10 10 10 9 10 10 9 9 9 8 8 8 8 8 7 7
13 14 14 15 15 15 15 15 15 14 14 14 13 12 12 12 11 11 10 10 10 9 10 10 10 10 11 10 10 10 10 10 8 8 8 8 9 9 8 8 8 8
13 14 15 15 15 15 16 16 15 15 15 15 14 14 13 12 12 11 11 11 11 10 11 11 11 11 11 11 11 11 11 10 10 9 9 9 9 9 8 8 8 8
14 14 14 15 15 16 16 16 16 16 15 15 15 14 14 13 12 12 12 12 12 11 11 11 11 11 12 11 11 11 11 10 10 10 10 10 9 9 9 9 9 9
13 13 14 14 15 16 16 15 15 15 15 15 14 14 15 14 13 13 13 12 12 12 12 11 11 12 12 12 12 11 10 10 10 10 10 10 10 10 10 10 10 10
12 13 13 14 14 15 15 15 14 14 15 14 14 14 15 15 15 14 13 13 13 13 13 12 13 13 13 13 12 11 11 10 10 10 10 10 10 10 10 10 10 10
11 12 12 13 14 14 14 14 14 13 14 13 13 14 14 14 15 14 14 14 13 13 14 13 13 14 14 14 12 12 11 11 10 10 10 10 9 10 10 10 11 11
10 11 11 12 13 13 13 14 14 13 13 13 13 13 12 13 13 14 15 14 14 14 14 15 15 14 15 14 13 13 12 11 11 10 10 10 9 10 10 10 11 11
12 11 12 12 12 12 12 12 12 13 13 13 13 12 12 12 13 14 14 15 15 15 15 15 15 14 15 16 16 15 12 9 9 10 10 10 10 10 10 11 11 11
19 15 12 12 11 10 10 9 9 9 11 12 13 14 13 13 13 14 14 15 15 15 15 15 13 11 14 18 18 16 14 11 10 10 10 11 11 12 11 11 11 11
20 20 16 13 12 11 10 9 8 7 8 9 11 12 12 12 14 14 15 15 15 15 14 10 7 8 12 15 15 14 15 15 13 11 11 11 11 12 12 12 12 12
15 18 19 17 13 12 12 12 11 10 9 9 10 9 10 11 12 12 14 14 14 16 12 5 5 9 12 13 13 12 13 14 13 13 13 12 12 12 11 11 11 11
10 13 17 18 16 15 14 14 14 15 14 12 11 10 10 11 10 11 12 11 11 10 4 1 4 9 11 12 12 12 12 12 12 13 14 14 14 13 13 12 12 12
9 12 14 15 15 16 16 15 16 17 17 17 16 14 12 12 11 9 8 7 9 8 2 1 3 6 8 10 10 10 11 11 10 12 14 15 15 14 14 13 11 10
4 8 10 10 11 13 14 16 17 18 17 16 16 14 13 10 9 7 6 7 10 12 11 8 6 6 6 8 8 10 10 10 9 11 13 15 16 15 13 8 5 3
5 2 1 3 6 9 8 10 14 16 17 17 15 14 13 12 10 10 9 8 8 10 12 11 8 7 8 8 9 10 10 9 9 10 12 12 11 11 6 2 3 2
8 8 9 9 7 4 1 1 4 7 11 14 14 14 14 13 13 13 10 8 8 9 11 11 9 8 8 7 8 9 9 8 6 7 9 7 5 8 8 5 3 4
9 9 9 10 9 8 7 7 5 4 2 3 7 12 14 12 11 11 10 10 12 12 12 10 9 8 7 6 6 6 8 8 4 3 5 5 4 8 6 2 1 4

ECMWFNIL_925_spd_111.txt.gz
Wind_Speed
20 20 19 17 17 17 16 16 14 13 13 13 13 13 12 12 10 9 12 12 9 9 9 8 9 9 8 7 5 5 6 5 3 4 5 4 3 4 4 6 6 5
20 20 19 17 17 17 16 15 14 13 13 13 12 12 12 12 11 10 12 12 10 9 10 10 9 10 9 7 6 6 7 7 5 4 5 5 5 5 4 5 6 5
20 20 20 17 16 17 15 15 15 14 13 12 12 13 12 12 12 10 10 11 10 8 9 10 9 9 9 8 7 6 7 8 7 5 5 6 5 6 5 4 5 5
21 21 20 18 17 16 15 16 16 14 13 12 12 12 11 12 13 11 10 11 10 8 9 11 10 8 8 9 9 9 8 7 6 6 7 7 6 6 6 4 4 5
21 21 20 19 18 17 16 16 17 15 13 13 12 12 12 13 13 12 12 12 11 9 10 11 11 9 9 9 10 10 9 7 7 7 8 8 6 6 5 5 5 6
21 21 20 19 19 18 17 16 15 15 14 13 13 13 13 13 13 13 13 13 13 12 11 11 11 11 11 10 10 10 10 9 8 8 9 9 7 7 6 5 6 6
20 20 19 19 19 18 17 15 14 15 15 13 13 14 13 12 12 13 14 13 14 14 12 12 12 12 12 12 11 11 10 10 10 9 9 10 9 8 8 6 6 5
20 20 19 18 18 18 17 17 15 15 14 13 13 14 12 11 12 13 14 14 13 13 13 13 14 13 12 13 13 12 11 11 12 11 11 11 11 10 9 8 7 6
23 21 20 19 18 18 20 19 17 16 15 14 13 14 13 13 12 12 13 14 13 13 14 14 14 14 14 14 14 13 13 13 12 12 12 11 12 12 10 9 9 8
24 22 21 21 20 19 19 19 17 16 16 16 15 15 14 15 15 14 13 13 14 14 14 14 14 14 14 15 15 14 14 14 13 12 11 11 11 11 10 10 10 9
21 22 21 20 19 18 18 18 18 16 15 16 17 17 16 16 16 16 14 14 15 14 14 14 13 13 13 15 15 15 14 13 13 13 12 11 11 10 11 11 11 11
20 21 21 20 19 18 18 18 19 18 18 18 18 18 19 19 17 17 16 15 15 14 13 13 13 12 13 14 14 14 13 12 12 13 13 13 11 11 12 12 12 11
18 18 19 19 19 18 18 18 17 18 19 21 21 21 20 18 17 17 17 16 15 16 15 14 14 14 13 13 13 13 13 13 13 13 14 13 12 12 12 12 12 12
8 13 14 14 15 14 14 15 14 12 15 16 18 21 20 17 17 18 18 18 16 16 17 16 15 15 15 14 13 14 13 13 12 13 15 14 13 13 13 13 14 14
7 9 12 12 13 10 9 12 11 8 10 10 10 14 15 14 15 16 17 18 17 16 17 17 16 15 15 15 14 15 14 13 12 12 14 15 15 14 14 14 12 11
11 11 11 12 13 11 8 10 10 7 7 8 8 10 10 9 11 12 11 13 16 17 17 17 16 14 14 15 14 14 14 15 15 13 12 14 14 12 11 10 8 7
8 9 10 11 12 13 11 11 10 8 7 7 8 10 10 8 8 10 9 5 9 15 17 16 15 14 14 15 15 14 14 15 15 13 12 12 12 8 5 4 5 6
6 6 7 8 9 10 11 11 10 9 8 7 7 8 9 9 7 9 10 7 4 9 14 14 14 15 15 15 14 14 15 16 15 14 13 12 11 8 5 3 1 1
7 7 7 7 7 7 8 9 9 9 9 8 7 6 7 9 8 7 7 8 7 7 11 13 15 17 16 15 15 14 14 16 17 15 11 10 10 9 7 4 4 4
8 9 10 10 9 8 7 8 8 8 8 7 6 5 5 7 8 6 6 9 11 11 11 10 11 14 14 14 14 14 14 15 16 15 8 8 8 8 6 5 6 5
6 7 8 9 9 8 9 9 9 8 8 7 6 6 6 7 7 7 7 9 10 11 11 10 8 9 11 11 12 12 13 13 12 13 12 5 6 5 3 4 6 6
4 5 5 6 6 7 7 8 10 10 9 8 6 5 6 7 7 7 7 6 8 9 10 11 11 10 9 10 10 10 10 8 8 11 13 10 6 4 3 4 5 5
4 4 5 5 6 6 6 7 9 9 8 9 8 6 6 6 5 6 6 6 7 9 9 10 11 12 11 10 10 10 8 5 5 8 12 12 9 7 6 5 5 6
6 5 4 4 4 4 5 6 7 8 9 10 10 9 9 9 8 7 6 5 6 8 9 9 10 10 11 11 11 12 10 6 6 9 13 14 12 10 8 7 6 6
12 10 8 7 5 4 3 3 4 6 9 10 10 9 10 11 12 11 9 8 8 9 9 10 10 10 10 11 11 11 10 9 9 10 13 14 13 10 9 8 8 8
13 14 14 13 12 10 8 6 3 3 7 10 10 10 9 8 9 11 11 10 9 9 8 8 8 8 9 10 10 10 10 11 11 11 12 13 12 11 11 10 10 10

ECMWFNIL_925_spd_114.txt.gz
Wind_Speed
24 24 23 22 22 22 21 20 20 20 19 19 19 18 17 15 13 12 11 11 11 11 10 10 10 9 8 7 6 6 6 6 5 4 3 3 3 2 3 5 6 7
23 23 23 23 22 21 21 20 20 20 19 18 18 18 17 16 14 13 13 12 12 13 12 12 11 11 10 9 8 7 7 7 7 5 5 5 4 4 4 5 5 6
22 23 23 23 23 22 20 20 19 19 18 17 17 17 17 17 15 14 14 14 14 14 12 12 12 11 10 10 10 9 8 9 8 7 7 6 5 5 5 6 5 5
22 23 23 23 23 21 20 20 19 18 17 16 16 15 15 16 15 14 14 13 15 15 13 11 11 9 9 10 11 9 8 9 9 8 8 8 7 6 6 6 6 4
23 23 22 22 21 20 20 20 19 18 17 16 16 15 14 15 14 15 15 13 14 15 12 10 10 9 8 9 10 10 9 8 7 7 8 8 8 8 8 7 6 5
24 23 22 22 21 20 20 20 19 19 18 17 17 16 15 15 15 15 15 13 13 14 12 10 11 10 9 8 9 10 10 9 8 7 7 8 8 8 8 8 7 6
24 23 23 23 22 21 20 19 19 20 19 17 17 16 16 15 16 16 16 14 14 14 13 12 12 12 10 9 9 9 9 9 9 8 8 8 8 9 9 9 8 6
25 24 23 23 23 22 21 20 20 20 19 18 17 17 16 16 17 18 17 16 16 16 15 14 13 12 11 12 12 11 11 10 11 11 10 10 10 10 10 9 9 8
25 24 23 23 23 23 22 21 21 20 19 20 19 17 17 17 17 17 17 17 17 16 16 15 14 14 13 13 13 13 12 12 12 12 12 12 12 11 11 10 10 10
25 25 24 24 23 23 23 22 21 21 20 21 19 17 17 17 17 17 16 17 17 16 15 15 15 15 15 15 15 14 14 13 13 13 13 13 12 10 10 9 10 10
24 24 24 24 24 23 22 22 21 21 21 21 20 19 18 18 18 17 16 16 17 16 15 15 15 15 15 16 15 15 16 15 14 14 14 13 12 11 10 9 9 9
23 22 21 22 24 23 22 22 22 22 22 22 21 21 20 19 19 19 18 17 17 16 16 16 15 15 15 15 15 15 16 15 14 14 14 14 13 12 11 10 10 10
26 25 21 21 24 24 23 22 23 23 23 23 23 23 22 21 21 21 20 20 18 17 16 16 16 15 15 15 14 14 14 14 14 13 13 14 14 13 12 12 12 12
24 25 24 24 25 25 25 24 24 25 25 24 23 24 24 23 22 22 21 21 20 19 17 17 16 16 15 15 14 14 14 13 13 13 13 14 14 13 12 13 13 14
22 22 22 21 22 23 22 20 20 23 27 27 25 24 24 24 24 23 22 22 21 20 19 19 18 17 16 15 15 14 13 13 14 13 12 12 13 14 14 14 13 14
22 22 19 16 16 19 18 16 15 17 21 24 25 25 25 25 25 24 23 22 22 22 20 20 20 18 17 16 16 15 14 14 15 13 10 9 9 10 12 13 12 12
22 21 18 14 13 16 17 15 14 14 15 17 19 22 23 25 25 24 23 22 21 21 21 20 20 20 18 17 17 17 16 15 14 13 12 12 11 8 8 9 10 11
15 16 15 14 13 14 14 13 13 13 13 13 15 17 18 20 21 22 22 22 21 21 20 20 20 20 20 18 17 17 17 16 14 13 13 13 13 11 9 9 10 10
6 7 8 8 8 9 9 9 9 9 10 11 12 13 14 15 16 19 20 21 20 20 21 20 20 20 20 19 18 17 17 17 16 16 16 13 12 11 10 9 10 10
8 7 6 7 6 5 6 7 7 7 8 9 10 11 12 13 14 16 18 18 18 18 19 20 20 21 21 19 19 18 18 18 17 17 18 16 14 12 10 9 10 11
13 12 13 15 13 10 9 8 8 8 8 8 9 10 12 13 14 15 16 17 17 17 17 18 19 20 20 19 18 18 18 18 17 17 17 17 16 14 10 9 12 12
11 11 11 12 12 11 8 5 5 6 7 9 9 10 12 12 12 13 13 14 16 16 17 17 18 18 18 17 15 15 15 15 14 15 15 17 18 15 11 11 13 13
6 7 8 9 10 11 10 9 10 10 10 11 12 12 13 13 12 12 14 14 14 15 16 17 17 17 16 15 12 11 12 12 12 12 14 17 19 16 13 13 13 13
3 3 5 9 11 9 9 11 14 14 13 12 12 12 12 12 13 13 14 12 11 12 15 16 16 15 15 14 12 10 10 11 12 12 15 18 19 17 15 14 14 13
5 3 3 9 10 8 8 9 10 12 12 12 13 12 11 12 12 11 11 12 14 14 14 14 14 14 14 14 12 11 12 13 13 13 16 19 20 18 17 16 15 14
11 7 5 6 6 6 7 8 8 10 10 11 11 11 11 11 12 11 13 17 17 15 13 12 11 11 12 12 12 10 11 13 14 15 17 19 20 18 17 16 15 13

ECMWFNIL_925_spd_117.txt.gz
Wind_Speed
25 25 25 25 25 24 24 23 23 22 21 21 20 19 18 18 16 14 13 12 12 12 12 11 10 10 10 9 7 6 6 6 5 5 4 2 2 1 0 1 3 4
26 26 26 26 25 24 24 23 23 22 21 21 21 19 19 18 17 15 14 12 12 13 12 11 11 11 11 11 10 9 8 7 6 6 5 4 4 4 3 2 2 3
26 26 26 25 25 24 24 23 23 22 21 20 20 20 19 19 17 15 15 14 13 13 13 13 13 13 13 13 12 11 10 9 7 7 6 5 5 5 4 4 3 3
27 26 26 25 24 23 23 23 23 22 21 20 20 19 19 19 18 17 16 15 15 14 15 15 15 15 14 13 13 13 12 10 9 9 8 7 7 6 6 5 5 4
27 26 25 25 25 24 23 22 22 22 21 21 20 19 19 20 19 19 18 16 16 16 16 17 17 16 14 12 12 13 13 11 9 9 9 9 8 7 6 6 6 5
28 26 25 25 24 24 23 23 22 22 21 20 20 19 19 19 18 18 19 17 16 16 16 17 17 15 13 12 11 11 12 12 10 8 9 9 7 7 7 7 7 6
27 26 25 24 24 24 23 23 22 22 21 20 19 18 18 18 17 17 17 17 16 16 15 16 16 14 13 13 12 11 11 10 10 9 9 9 7 7 6 6 7 7
27 26 25 24 24 23 22 22 22 22 21 19 19 18 18 18 17 17 17 16 16 15 15 15 16 14 13 14 13 12 11 10 9 10 10 10 9 8 7 7 7 7
27 26 25 24 24 24 23 22 22 21 20 20 20 19 18 18 17 17 17 17 16 16 15 16 16 15 14 14 14 13 12 11 10 9 10 10 10 10 9 9 9 9
27 26 25 25 25 25 24 23 22 21 20 20 20 20 19 19 19 18 18 18 18 18 17 17 17 16 16 15 15 14 13 12 10 10 10 10 10 10 10 10 9 9
27 26 26 26 26 26 25 24 23 22 21 20 20 20 20 20 19 19 19 19 19 19 19 19 18 17 17 17 16 15 15 14 12 11 11 11 10 10 10 10 9 9
28 28 27 26 26 25 24 24 23 23 22 21 21 21 21 21 20 20 19 20 20 19 18 18 18 17 17 17 16 16 16 15 14 13 13 12 11 11 11 11 10 9
28 28 27 27 27 26 24 23 23 23 23 22 22 22 23 22 22 21 20 21 21 20 19 18 18 18 17 17 16 15 16 15 15 14 13 13 13 13 13 13 12 11
29 28 27 26 26 26 25 24 23 23 23 22 22 23 24 23 23 22 22 22 22 21 20 19 18 18 18 17 16 15 15 15 14 14 14 14 14 14 14 13 13 12
23 25 27 29 29 28 26 25 25 25 24 24 23 23 24 23 23 24 23 23 23 23 22 21 20 19 19 18 17 16 15 15 14 14 15 15 15 13 13 13 13 13
15 14 15 18 22 25 25 23 24 26 26 25 25 25 25 25 25 25 25 24 23 23 23 23 22 21 19 19 18 16 16 15 15 16 16 16 14 12 12 12 12 11
20 16 11 9 9 9 13 15 16 21 25 27 26 25 26 27 27 27 26 25 24 24 24 24 24 22 21 20 19 17 17 17 17 17 17 16 16 15 14 14 12 11
23 23 20 14 8 6 8 12 14 13 16 21 24 26 26 28 29 29 28 27 26 25 25 25 24 23 22 20 20 19 18 18 18 18 18 17 17 17 16 16 15 13
23 24 23 21 17 12 10 12 13 12 9 10 14 19 24 28 29 29 28 27 27 26 26 25 24 23 22 22 21 20 19 19 19 19 19 19 18 17 16 16 15 15
19 20 19 18 17 15 13 11 11 12 12 10 8 11 17 22 25 27 26 25 25 24 24 23 23 23 23 22 22 21 20 20 20 20 20 20 20 19 17 15 15 15
11 12 14 15 14 14 16 16 15 15 16 16 14 13 13 15 18 20 21 21 21 21 21 22 23 23 23 22 22 21 21 20 20 20 21 21 22 21 19 17 16 15
8 9 10 12 12 13 15 16 14 14 13 13 15 16 15 14 14 13 14 16 17 18 19 20 21 22 22 22 21 21 21 21 21 21 21 22 22 22 21 19 17 16
7 8 10 11 11 12 13 13 12 12 11 9 10 12 12 13 13 13 14 15 16 16 17 18 19 20 20 19 20 20 20 20 20 20 20 21 22 22 21 20 19 17
7 8 9 9 9 9 10 11 11 12 14 13 12 12 11 13 15 17 15 13 14 15 16 16 15 15 14 14 14 16 17 17 17 17 17 18 19 21 21 20 19 17
5 5 6 6 6 7 9 9 8 9 11 13 14 15 15 15 18 18 13 10 11 12 11 11 10 9 10 10 11 12 13 14 15 16 16 16 17 19 20 20 19 18
4 4 4 4 5 7 8 8 8 7 7 9 11 13 16 17 18 17 13 11 12 11 9 8 6 7 9 11 11 11 12 13 14 15 16 16 17 19 20 20 19 19

ECMWFNIL_925_spd_120.txt.gz
Wind_Speed
23 23 22 22 22 22 21 21 20 20 19 18 17 17 17 17 15 14 13 12 11 11 10 11 12 11 9 8 7 7 6 6 6 6 5 4 3 2 1 1 2 2
24 24 22 22 22 22 21 21 21 20 19 18 18 17 16 16 15 15 14 13 12 12 11 11 12 11 10 9 9 9 8 8 7 7 6 5 5 4 3 2 1 1
25 24 23 22 22 22 22 21 21 20 19 19 18 18 17 17 16 15 15 14 13 12 12 12 13 12 11 10 10 11 11 10 9 8 8 7 6 5 4 3 3 2
25 23 22 22 22 22 22 22 21 21 20 19 19 19 18 18 17 17 16 16 15 14 13 13 14 13 12 11 12 12 13 12 12 11 10 9 8 7 6 5 4 4
25 23 22 21 21 21 21 21 21 21 20 20 20 19 18 18 18 18 17 17 16 15 14 14 15 14 13 13 13 14 13 13 13 12 11 10 9 8 7 6 6 5
25 24 23 22 21 21 21 21 21 20 20 20 20 19 18 18 18 18 18 19 18 17 16 15 16 16 15 15 14 14 13 12 13 12 12 10 9 9 8 7 6 6
27 25 24 23 22 21 21 21 20 20 20 19 19 19 19 18 19 19 19 19 19 19 18 17 16 16 16 16 15 14 12 12 12 12 12 11 10 9 8 7 7 6
27 26 25 24 23 22 22 21 20 20 19 19 19 19 19 19 19 19 19 18 18 19 19 18 17 16 16 16 15 14 13 12 11 11 12 12 11 11 9 8 7 7
28 26 25 25 24 23 22 21 20 20 19 20 20 19 18 18 18 18 18 18 17 17 17 17 17 16 15 16 15 15 14 14 12 12 12 12 12 12 11 9 9 9
27 26 25 25 24 23 22 21 20 19 19 19 19 19 19 18 18 18 18 17 17 17 17 16 16 16 16 16 16 15 15 15 14 13 13 12 12 12 11 10 9 9
26 26 25 24 23 22 21 20 19 18 18 19 19 19 19 18 18 18 18 18 18 17 17 17 16 16 16 17 17 16 16 16 15 14 14 13 12 11 11 10 10 9
26 25 25 24 23 21 20 20 19 18 18 18 19 19 18 18 18 19 19 19 19 18 17 18 18 18 17 18 17 17 17 17 16 16 15 14 13 13 12 11 11 11
24 24 24 23 21 20 19 18 18 18 18 18 17 18 18 18 19 19 19 19 19 19 18 18 18 18 18 18 18 17 17 17 17 17 16 16 15 14 13 13 13 13
23 21 21 20 20 19 18 17 17 17 17 17 17 17 18 19 19 19 20 20 20 19 19 18 18 18 18 17 18 18 18 18 17 16 16 16 16 15 14 14 13 13
24 22 21 20 19 19 18 17 16 14 14 15 16 18 19 19 19 19 19 20 20 20 19 19 19 19 18 18 18 18 19 19 18 17 16 15 15 15 14 14 14 14
25 24 23 22 21 20 19 17 16 16 14 14 15 17 18 19 19 20 20 20 20 21 20 20 20 20 19 19 18 18 19 19 19 18 17 16 16 16 15 15 14 15
25 24 23 23 22 21 20 19 19 18 18 17 15 16 18 19 20 20 21 22 22 21 21 21 21 20 19 19 19 19 19 19 19 19 18 18 18 17 17 16 15 15
22 22 21 20 19 18 18 19 19 19 20 20 18 16 18 19 20 21 22 22 23 23 23 23 22 21 20 20 20 20 20 20 20 19 19 19 19 19 19 18 17 16
20 19 18 18 16 14 14 16 17 18 19 20 18 16 17 19 20 21 21 21 21 21 23 23 23 23 22 22 21 21 21 21 21 21 20 20 20 20 20 19 18 17
19 18 18 17 15 13 13 13 14 15 16 15 13 12 14 16 17 17 18 19 19 19 20 21 22 23 23 23 22 22 21 21 21 21 21 20 20 20 20 20 19 17
18 17 17 17 16 15 14 13 13 13 12 12 11 11 11 12 12 12 13 14 15 16 16 17 19 22 22 22 22 22 22 21 21 21 21 21 21 20 20 20 19 19
15 15 16 17 17 16 15 14 14 13 13 13 13 13 13 12 12 11 10 10 12 12 12 13 17 20 21 21 22 21 21 21 21 21 22 22 22 22 22 21 21 20
11 12 13 14 14 13 13 13 12 11 12 13 13 13 15 15 14 12 11 12 12 11 11 11 14 16 18 18 19 19 20 20 21 21 22 22 23 23 22 22 22 21
7 8 8 10 11 11 11 10 9 9 9 10 10 11 12 12 12 12 13 13 12 11 11 10 11 12 14 14 15 16 17 18 19 20 21 22 23 23 22 22 22 22
3 5 6 7 8 8 8 7 7 8 9 10 10 11 12 11 12 12 12 11 10 9 9 8 9 10 12 13 13 13 14 15 16 17 19 20 20 20 20 20 20 20
4 4 5 5 5 5 6 6 7 8 9 11 12 13 14 14 15 13 11 9 8 8 8 7 8 9 10 11 12 12 12 12 12 14 15 17 17 17 17 17 16 16

ECMWFNIL_925_spd_123.txt.gz
Wind_Speed
23 21 19 19 20 18 17 17 16 15 15 13 11 11 11 11 12 12 11 11 10 9 8 8 8 8 8 7 7 5 5 4 4 4 4 4 4 4 4 3 3 3
25 23 21 20 20 20 18 17 17 16 16 15 13 12 12 11 12 13 13 12 10 10 9 9 8 9 9 8 8 7 6 6 5 4 5 5 5 4 4 4 4 3
26 24 23 21 20 20 18 18 18 17 16 16 15 14 13 12 12 12 13 12 11 10 10 9 9 9 9 9 9 8 7 7 6 5 6 6 6 6 5 5 5 4
27 25 23 21 19 19 19 18 18 18 17 16 16 15 14 13 13 13 13 13 13 12 11 11 10 10 10 11 10 9 8 8 8 7 8 8 8 8 7 6 6 5
28 26 24 21 20 20 20 19 19 18 18 17 16 15 14 14 13 13 13 13 13 12 12 11 11 10 11 12 12 10 9 8 8 8 9 9 8 8 8 7 7 7
28 28 25 22 22 22 21 19 19 18 17 16 16 15 15 14 14 13 12 12 12 11 11 11 11 11 11 12 13 12 11 9 8 8 8 9 8 8 8 8 8 8
28 28 25 23 22 22 20 19 18 18 16 15 15 16 15 14 14 14 13 12 12 12 12 12 13 13 12 13 14 14 14 12 10 10 9 9 9 9 9 8 8 8
26 26 26 23 21 20 19 18 17 17 17 16 15 15 15 14 14 13 13 13 12 12 13 13 14 15 14 13 14 14 13 11 10 10 10 9 9 10 10 9 9 9
24 24 25 23 20 18 17 16 15 16 16 16 14 13 13 14 13 12 13 14 13 13 13 13 14 15 15 15 15 14 14 12 10 10 9 9 10 10 10 10 9 10
22 22 22 21 19 17 17 16 15 14 15 15 13 12 12 13 13 13 13 14 13 13 14 14 14 15 15 15 15 15 14 13 12 11 11 11 10 10 10 10 10 10
20 20 20 20 19 18 17 17 16 14 15 15 14 13 13 12 13 13 13 14 14 13 14 14 14 15 15 15 14 14 15 14 13 13 12 12 11 11 10 10 10 10
18 19 19 20 20 18 17 17 17 16 15 15 15 15 14 13 13 13 14 15 15 14 14 14 15 15 15 15 14 14 15 14 14 14 13 12 12 12 11 11 11 11
20 20 19 19 19 18 17 17 17 16 16 15 15 14 14 14 14 14 14 15 15 15 15 15 15 15 15 16 15 15 15 15 15 13 11 11 12 12 12 12 12 12
22 21 19 19 19 18 16 16 15 15 14 13 13 13 13 13 13 13 14 13 14 14 14 14 15 14 14 15 15 15 15 15 13 12 12 13 13 14 14 13 13 12
23 21 18 18 19 17 16 16 16 16 16 15 13 12 12 12 12 12 11 12 12 13 13 13 13 13 14 14 15 15 14 14 13 14 15 15 14 14 14 14 15 13
22 21 19 18 18 18 19 20 20 20 19 17 16 14 13 13 12 11 11 10 10 11 12 13 13 14 14 15 15 14 14 14 13 14 16 16 15 15 15 14 14 14
21 20 19 19 20 21 23 24 23 21 20 18 17 16 16 15 14 13 11 10 10 10 11 13 13 14 15 14 14 14 13 14 14 14 16 17 16 15 15 14 14 14
19 19 18 19 21 24 25 24 23 22 20 19 17 16 16 16 15 14 13 12 11 10 11 12 13 14 14 13 14 14 14 14 15 15 15 16 16 15 15 15 14 14
20 20 20 21 22 24 25 24 23 22 21 20 19 18 17 16 15 14 14 13 12 12 14 13 13 15 15 14 15 16 16 16 15 14 14 15 15 15 16 16 16 16
23 23 24 24 24 24 23 22 21 20 20 19 19 18 18 16 16 14 14 13 13 13 13 11 12 16 16 15 15 15 16 17 16 15 15 15 15 15 16 17 17 17
20 20 20 19 20 20 20 20 19 17 17 16 16 16 15 14 13 12 11 11 11 10 9 10 13 16 16 15 15 15 15 16 16 16 16 16 16 16 17 17 18 18
17 15 13 12 13 14 14 14 13 12 12 12 12 12 12 11 10 8 7 8 9 8 8 9 12 13 13 14 14 14 14 15 15 16 17 16 15 16 18 19 19 19
15 13 11 10 11 10 8 6 5 6 8 9 9 9 9 9 8 7 7 7 8 8 9 9 10 10 11 12 12 12 13 14 15 15 16 16 15 15 18 20 20 20
13 12 12 11 10 9 8 8 8 9 11 10 7 6 7 7 7 7 7 8 8 8 8 8 9 10 10 9 9 10 10 11 12 13 12 12 12 14 16 18 18 19
11 11 12 10 8 7 7 8 8 8 9 8 5 4 6 6 5 5 6 6 5 5 6 7 7 8 8 8 8 8 8 7 7 8 9 9 10 11 12 12 12 13
12 11 10 8 7 6 5 5 6 7 6 6 6 5 6 7 4 4 4 4 3 4 4 4 4 5 5 6 6 6 7 5 4 5 7 8 9 9 10 10 10 11